<?xml version="1.0" encoding="UTF-8" standalone="no" ?>
<gpx xmlns="http://www.topografix.com/GPX/1/1" xmlns:xsi="http://www.w3.org/2001/XMLSchema-instance" xsi:schemaLocation="http://www.topografix.com/GPX/1/1 http://www.topografix.com/GPX/1/1/gpx.xsd" version="1.1" creator="VisuGPX - https://www.visugpx.com">
  <metadata>
    <name>MOTO CORSICA</name>
  </metadata>
  <wpt lat="45.87977" lon="4.59604">
    <ele>292.6</ele>
    <name><![CDATA[Argon]]></name>
  </wpt>
  <wpt lat="41.62056" lon="9.29931">
    <ele>40.02</ele>
    <name><![CDATA[Camping Porto Vecchio]]></name>
  </wpt>
  <wpt lat="43.29702" lon="3.51216">
    <ele>-1.08</ele>
    <name><![CDATA[Cassiopee]]></name>
  </wpt>
  <wpt lat="41.62054" lon="9.29927">
    <ele>24.88</ele>
    <name><![CDATA[Dernière position]]></name>
  </wpt>
  <wpt lat="25.06178" lon="121.64027">
    <ele>38.1</ele>
    <name><![CDATA[Garmin Asia]]></name>
  </wpt>
  <wpt lat="50.9017" lon="-1.48935">
    <ele>35.93</ele>
    <name><![CDATA[Garmin Europe]]></name>
  </wpt>
  <wpt lat="38.85555" lon="-94.79902">
    <ele>325.05</ele>
    <name><![CDATA[Garmin USA]]></name>
  </wpt>
  <wpt lat="45.53375" lon="4.6308">
    <ele>238.77</ele>
    <name><![CDATA[Zezette]]></name>
  </wpt>
  <trk>
    <name><![CDATA[Enregistremen: 06 JUIN 2014 09:59]]></name>
    <trkseg>
      <trkpt lat="41.62029" lon="9.29951">
        <ele>-140.22</ele>
        <time>2014-06-06T07:59:49Z</time>
      </trkpt>
      <trkpt lat="41.62041" lon="9.29965">
        <ele>-105.61</ele>
        <time>2014-06-06T08:00:30Z</time>
      </trkpt>
      <trkpt lat="41.62042" lon="9.29965">
        <ele>-105.61</ele>
        <time>2014-06-06T08:01:11Z</time>
      </trkpt>
      <trkpt lat="41.62041" lon="9.29961">
        <ele>-103.68</ele>
        <time>2014-06-06T08:01:13Z</time>
      </trkpt>
      <trkpt lat="41.62035" lon="9.29959">
        <ele>-101.76</ele>
        <time>2014-06-06T08:01:17Z</time>
      </trkpt>
      <trkpt lat="41.62036" lon="9.29955">
        <ele>-95.99</ele>
        <time>2014-06-06T08:01:36Z</time>
      </trkpt>
      <trkpt lat="41.62039" lon="9.29953">
        <ele>-93.11</ele>
        <time>2014-06-06T08:02:13Z</time>
      </trkpt>
      <trkpt lat="41.62056" lon="9.29948">
        <ele>-71.96</ele>
        <time>2014-06-06T08:03:13Z</time>
      </trkpt>
      <trkpt lat="41.62055" lon="9.29943">
        <ele>-58.98</ele>
        <time>2014-06-06T08:03:58Z</time>
      </trkpt>
      <trkpt lat="41.62055" lon="9.2994">
        <ele>-47.93</ele>
        <time>2014-06-06T08:04:08Z</time>
      </trkpt>
      <trkpt lat="41.62051" lon="9.2992">
        <ele>-40.72</ele>
        <time>2014-06-06T08:04:11Z</time>
      </trkpt>
      <trkpt lat="41.62043" lon="9.29889">
        <ele>-34.95</ele>
        <time>2014-06-06T08:04:15Z</time>
      </trkpt>
      <trkpt lat="41.62041" lon="9.29882">
        <ele>-33.51</ele>
        <time>2014-06-06T08:04:16Z</time>
      </trkpt>
      <trkpt lat="41.62042" lon="9.29877">
        <ele>-32.55</ele>
        <time>2014-06-06T08:04:17Z</time>
      </trkpt>
      <trkpt lat="41.62044" lon="9.29875">
        <ele>-31.11</ele>
        <time>2014-06-06T08:04:18Z</time>
      </trkpt>
      <trkpt lat="41.62045" lon="9.29872">
        <ele>-29.66</ele>
        <time>2014-06-06T08:04:19Z</time>
      </trkpt>
      <trkpt lat="41.62047" lon="9.29869">
        <ele>-29.18</ele>
        <time>2014-06-06T08:04:20Z</time>
      </trkpt>
      <trkpt lat="41.62049" lon="9.29866">
        <ele>-28.22</ele>
        <time>2014-06-06T08:04:21Z</time>
      </trkpt>
      <trkpt lat="41.62052" lon="9.29863">
        <ele>-27.26</ele>
        <time>2014-06-06T08:04:22Z</time>
      </trkpt>
      <trkpt lat="41.62056" lon="9.29859">
        <ele>-25.34</ele>
        <time>2014-06-06T08:04:23Z</time>
      </trkpt>
      <trkpt lat="41.62062" lon="9.29859">
        <ele>-23.9</ele>
        <time>2014-06-06T08:04:24Z</time>
      </trkpt>
      <trkpt lat="41.62072" lon="9.29861">
        <ele>-22.93</ele>
        <time>2014-06-06T08:04:25Z</time>
      </trkpt>
      <trkpt lat="41.62081" lon="9.29863">
        <ele>-21.01</ele>
        <time>2014-06-06T08:04:26Z</time>
      </trkpt>
      <trkpt lat="41.62092" lon="9.29867">
        <ele>-20.53</ele>
        <time>2014-06-06T08:04:27Z</time>
      </trkpt>
      <trkpt lat="41.62104" lon="9.29872">
        <ele>-20.05</ele>
        <time>2014-06-06T08:04:28Z</time>
      </trkpt>
      <trkpt lat="41.62199" lon="9.29929">
        <ele>-14.76</ele>
        <time>2014-06-06T08:04:37Z</time>
      </trkpt>
      <trkpt lat="41.62216" lon="9.2994">
        <ele>-13.32</ele>
        <time>2014-06-06T08:04:39Z</time>
      </trkpt>
      <trkpt lat="41.62278" lon="9.29977">
        <ele>-4.19</ele>
        <time>2014-06-06T08:04:47Z</time>
      </trkpt>
      <trkpt lat="41.62289" lon="9.29984">
        <ele>-3.71</ele>
        <time>2014-06-06T08:04:48Z</time>
      </trkpt>
      <trkpt lat="41.62371" lon="9.30029">
        <ele>2.06</ele>
        <time>2014-06-06T08:04:54Z</time>
      </trkpt>
      <trkpt lat="41.62382" lon="9.3003">
        <ele>2.54</ele>
        <time>2014-06-06T08:04:55Z</time>
      </trkpt>
      <trkpt lat="41.62394" lon="9.3003">
        <ele>2.54</ele>
        <time>2014-06-06T08:04:56Z</time>
      </trkpt>
      <trkpt lat="41.62425" lon="9.30027">
        <ele>6.39</ele>
        <time>2014-06-06T08:04:59Z</time>
      </trkpt>
      <trkpt lat="41.62432" lon="9.30024">
        <ele>7.83</ele>
        <time>2014-06-06T08:05:00Z</time>
      </trkpt>
      <trkpt lat="41.62438" lon="9.30019">
        <ele>8.79</ele>
        <time>2014-06-06T08:05:01Z</time>
      </trkpt>
      <trkpt lat="41.62443" lon="9.30012">
        <ele>10.71</ele>
        <time>2014-06-06T08:05:02Z</time>
      </trkpt>
      <trkpt lat="41.62449" lon="9.30005">
        <ele>11.19</ele>
        <time>2014-06-06T08:05:03Z</time>
      </trkpt>
      <trkpt lat="41.6246" lon="9.29994">
        <ele>15.04</ele>
        <time>2014-06-06T08:05:05Z</time>
      </trkpt>
      <trkpt lat="41.62465" lon="9.2999">
        <ele>16</ele>
        <time>2014-06-06T08:05:06Z</time>
      </trkpt>
      <trkpt lat="41.62468" lon="9.29985">
        <ele>16.96</ele>
        <time>2014-06-06T08:05:07Z</time>
      </trkpt>
      <trkpt lat="41.62469" lon="9.29981">
        <ele>16.48</ele>
        <time>2014-06-06T08:05:08Z</time>
      </trkpt>
      <trkpt lat="41.62469" lon="9.29977">
        <ele>16.48</ele>
        <time>2014-06-06T08:05:09Z</time>
      </trkpt>
      <trkpt lat="41.62466" lon="9.29965">
        <ele>16.96</ele>
        <time>2014-06-06T08:05:12Z</time>
      </trkpt>
      <trkpt lat="41.62461" lon="9.29952">
        <ele>17.44</ele>
        <time>2014-06-06T08:05:14Z</time>
      </trkpt>
      <trkpt lat="41.62459" lon="9.29943">
        <ele>17.44</ele>
        <time>2014-06-06T08:05:15Z</time>
      </trkpt>
      <trkpt lat="41.62458" lon="9.29933">
        <ele>17.92</ele>
        <time>2014-06-06T08:05:16Z</time>
      </trkpt>
      <trkpt lat="41.62457" lon="9.29922">
        <ele>17.92</ele>
        <time>2014-06-06T08:05:17Z</time>
      </trkpt>
      <trkpt lat="41.62457" lon="9.29908">
        <ele>18.4</ele>
        <time>2014-06-06T08:05:18Z</time>
      </trkpt>
      <trkpt lat="41.62444" lon="9.29758">
        <ele>21.77</ele>
        <time>2014-06-06T08:05:27Z</time>
      </trkpt>
      <trkpt lat="41.62424" lon="9.29653">
        <ele>28.98</ele>
        <time>2014-06-06T08:05:34Z</time>
      </trkpt>
      <trkpt lat="41.62413" lon="9.29594">
        <ele>35.23</ele>
        <time>2014-06-06T08:05:38Z</time>
      </trkpt>
      <trkpt lat="41.62407" lon="9.29583">
        <ele>36.19</ele>
        <time>2014-06-06T08:05:39Z</time>
      </trkpt>
      <trkpt lat="41.624" lon="9.29573">
        <ele>36.67</ele>
        <time>2014-06-06T08:05:40Z</time>
      </trkpt>
      <trkpt lat="41.62392" lon="9.29564">
        <ele>37.63</ele>
        <time>2014-06-06T08:05:41Z</time>
      </trkpt>
      <trkpt lat="41.62382" lon="9.29557">
        <ele>37.63</ele>
        <time>2014-06-06T08:05:42Z</time>
      </trkpt>
      <trkpt lat="41.62371" lon="9.29549">
        <ele>38.11</ele>
        <time>2014-06-06T08:05:43Z</time>
      </trkpt>
      <trkpt lat="41.62336" lon="9.29526">
        <ele>40.99</ele>
        <time>2014-06-06T08:05:46Z</time>
      </trkpt>
      <trkpt lat="41.62323" lon="9.29516">
        <ele>40.99</ele>
        <time>2014-06-06T08:05:47Z</time>
      </trkpt>
      <trkpt lat="41.62312" lon="9.29504">
        <ele>41.47</ele>
        <time>2014-06-06T08:05:48Z</time>
      </trkpt>
      <trkpt lat="41.62302" lon="9.2949">
        <ele>42.92</ele>
        <time>2014-06-06T08:05:49Z</time>
      </trkpt>
      <trkpt lat="41.62293" lon="9.29476">
        <ele>43.4</ele>
        <time>2014-06-06T08:05:50Z</time>
      </trkpt>
      <trkpt lat="41.62285" lon="9.2946">
        <ele>44.84</ele>
        <time>2014-06-06T08:05:51Z</time>
      </trkpt>
      <trkpt lat="41.62278" lon="9.29445">
        <ele>46.28</ele>
        <time>2014-06-06T08:05:52Z</time>
      </trkpt>
      <trkpt lat="41.62272" lon="9.29429">
        <ele>48.68</ele>
        <time>2014-06-06T08:05:53Z</time>
      </trkpt>
      <trkpt lat="41.62268" lon="9.29411">
        <ele>50.13</ele>
        <time>2014-06-06T08:05:54Z</time>
      </trkpt>
      <trkpt lat="41.62264" lon="9.29393">
        <ele>51.09</ele>
        <time>2014-06-06T08:05:55Z</time>
      </trkpt>
      <trkpt lat="41.62263" lon="9.29374">
        <ele>52.05</ele>
        <time>2014-06-06T08:05:56Z</time>
      </trkpt>
      <trkpt lat="41.62262" lon="9.29355">
        <ele>53.49</ele>
        <time>2014-06-06T08:05:57Z</time>
      </trkpt>
      <trkpt lat="41.62263" lon="9.29336">
        <ele>54.45</ele>
        <time>2014-06-06T08:05:58Z</time>
      </trkpt>
      <trkpt lat="41.62265" lon="9.29317">
        <ele>55.41</ele>
        <time>2014-06-06T08:05:59Z</time>
      </trkpt>
      <trkpt lat="41.62269" lon="9.29299">
        <ele>56.37</ele>
        <time>2014-06-06T08:06:00Z</time>
      </trkpt>
      <trkpt lat="41.62274" lon="9.2928">
        <ele>57.34</ele>
        <time>2014-06-06T08:06:01Z</time>
      </trkpt>
      <trkpt lat="41.62279" lon="9.29262">
        <ele>58.78</ele>
        <time>2014-06-06T08:06:02Z</time>
      </trkpt>
      <trkpt lat="41.62325" lon="9.29125">
        <ele>65.03</ele>
        <time>2014-06-06T08:06:10Z</time>
      </trkpt>
      <trkpt lat="41.62382" lon="9.28988">
        <ele>66.95</ele>
        <time>2014-06-06T08:06:21Z</time>
      </trkpt>
      <trkpt lat="41.62415" lon="9.28932">
        <ele>64.07</ele>
        <time>2014-06-06T08:06:29Z</time>
      </trkpt>
      <trkpt lat="41.62416" lon="9.28927">
        <ele>63.1</ele>
        <time>2014-06-06T08:06:30Z</time>
      </trkpt>
      <trkpt lat="41.62416" lon="9.28921">
        <ele>62.14</ele>
        <time>2014-06-06T08:06:31Z</time>
      </trkpt>
      <trkpt lat="41.62412" lon="9.28916">
        <ele>60.7</ele>
        <time>2014-06-06T08:06:32Z</time>
      </trkpt>
      <trkpt lat="41.62408" lon="9.28913">
        <ele>60.7</ele>
        <time>2014-06-06T08:06:33Z</time>
      </trkpt>
      <trkpt lat="41.62402" lon="9.28909">
        <ele>60.7</ele>
        <time>2014-06-06T08:06:34Z</time>
      </trkpt>
      <trkpt lat="41.62387" lon="9.28896">
        <ele>62.62</ele>
        <time>2014-06-06T08:06:36Z</time>
      </trkpt>
      <trkpt lat="41.62297" lon="9.28788">
        <ele>62.14</ele>
        <time>2014-06-06T08:06:46Z</time>
      </trkpt>
      <trkpt lat="41.62291" lon="9.28773">
        <ele>61.66</ele>
        <time>2014-06-06T08:06:47Z</time>
      </trkpt>
      <trkpt lat="41.62287" lon="9.28754">
        <ele>57.82</ele>
        <time>2014-06-06T08:06:48Z</time>
      </trkpt>
      <trkpt lat="41.62285" lon="9.28735">
        <ele>58.3</ele>
        <time>2014-06-06T08:06:49Z</time>
      </trkpt>
      <trkpt lat="41.62285" lon="9.28718">
        <ele>57.82</ele>
        <time>2014-06-06T08:06:50Z</time>
      </trkpt>
      <trkpt lat="41.62287" lon="9.287">
        <ele>57.34</ele>
        <time>2014-06-06T08:06:51Z</time>
      </trkpt>
      <trkpt lat="41.6229" lon="9.28681">
        <ele>56.37</ele>
        <time>2014-06-06T08:06:52Z</time>
      </trkpt>
      <trkpt lat="41.62294" lon="9.28662">
        <ele>54.45</ele>
        <time>2014-06-06T08:06:53Z</time>
      </trkpt>
      <trkpt lat="41.62314" lon="9.28577">
        <ele>51.57</ele>
        <time>2014-06-06T08:06:58Z</time>
      </trkpt>
      <trkpt lat="41.62315" lon="9.2856">
        <ele>51.09</ele>
        <time>2014-06-06T08:06:59Z</time>
      </trkpt>
      <trkpt lat="41.62313" lon="9.28544">
        <ele>51.09</ele>
        <time>2014-06-06T08:07:00Z</time>
      </trkpt>
      <trkpt lat="41.6231" lon="9.28528">
        <ele>50.13</ele>
        <time>2014-06-06T08:07:01Z</time>
      </trkpt>
      <trkpt lat="41.62304" lon="9.28512">
        <ele>49.65</ele>
        <time>2014-06-06T08:07:02Z</time>
      </trkpt>
      <trkpt lat="41.62295" lon="9.28498">
        <ele>48.68</ele>
        <time>2014-06-06T08:07:03Z</time>
      </trkpt>
      <trkpt lat="41.62285" lon="9.28487">
        <ele>47.72</ele>
        <time>2014-06-06T08:07:04Z</time>
      </trkpt>
      <trkpt lat="41.62274" lon="9.28477">
        <ele>47.72</ele>
        <time>2014-06-06T08:07:05Z</time>
      </trkpt>
      <trkpt lat="41.62263" lon="9.28468">
        <ele>47.24</ele>
        <time>2014-06-06T08:07:06Z</time>
      </trkpt>
      <trkpt lat="41.6225" lon="9.28459">
        <ele>47.24</ele>
        <time>2014-06-06T08:07:07Z</time>
      </trkpt>
      <trkpt lat="41.621" lon="9.28365">
        <ele>39.07</ele>
        <time>2014-06-06T08:07:18Z</time>
      </trkpt>
      <trkpt lat="41.61845" lon="9.28206">
        <ele>32.82</ele>
        <time>2014-06-06T08:07:36Z</time>
      </trkpt>
      <trkpt lat="41.61617" lon="9.28059">
        <ele>28.5</ele>
        <time>2014-06-06T08:07:53Z</time>
      </trkpt>
      <trkpt lat="41.61495" lon="9.27998">
        <ele>26.57</ele>
        <time>2014-06-06T08:08:03Z</time>
      </trkpt>
      <trkpt lat="41.61425" lon="9.27978">
        <ele>26.09</ele>
        <time>2014-06-06T08:08:12Z</time>
      </trkpt>
      <trkpt lat="41.6139" lon="9.27969">
        <ele>25.61</ele>
        <time>2014-06-06T08:08:20Z</time>
      </trkpt>
      <trkpt lat="41.61299" lon="9.27943">
        <ele>21.29</ele>
        <time>2014-06-06T08:08:28Z</time>
      </trkpt>
      <trkpt lat="41.61101" lon="9.27888">
        <ele>11.67</ele>
        <time>2014-06-06T08:08:42Z</time>
      </trkpt>
      <trkpt lat="41.60978" lon="9.27855">
        <ele>10.23</ele>
        <time>2014-06-06T08:08:52Z</time>
      </trkpt>
      <trkpt lat="41.60872" lon="9.27827">
        <ele>8.79</ele>
        <time>2014-06-06T08:09:02Z</time>
      </trkpt>
      <trkpt lat="41.60742" lon="9.27792">
        <ele>6.87</ele>
        <time>2014-06-06T08:09:15Z</time>
      </trkpt>
      <trkpt lat="41.60638" lon="9.27761">
        <ele>6.87</ele>
        <time>2014-06-06T08:09:26Z</time>
      </trkpt>
      <trkpt lat="41.60591" lon="9.27737">
        <ele>7.83</ele>
        <time>2014-06-06T08:09:33Z</time>
      </trkpt>
      <trkpt lat="41.6058" lon="9.27726">
        <ele>7.35</ele>
        <time>2014-06-06T08:09:38Z</time>
      </trkpt>
      <trkpt lat="41.60578" lon="9.27721">
        <ele>7.35</ele>
        <time>2014-06-06T08:09:39Z</time>
      </trkpt>
      <trkpt lat="41.60576" lon="9.27714">
        <ele>7.35</ele>
        <time>2014-06-06T08:09:40Z</time>
      </trkpt>
      <trkpt lat="41.60569" lon="9.27695">
        <ele>7.35</ele>
        <time>2014-06-06T08:09:43Z</time>
      </trkpt>
      <trkpt lat="41.60565" lon="9.27691">
        <ele>7.35</ele>
        <time>2014-06-06T08:09:44Z</time>
      </trkpt>
      <trkpt lat="41.6056" lon="9.27687">
        <ele>7.35</ele>
        <time>2014-06-06T08:09:45Z</time>
      </trkpt>
      <trkpt lat="41.60553" lon="9.27685">
        <ele>7.35</ele>
        <time>2014-06-06T08:09:46Z</time>
      </trkpt>
      <trkpt lat="41.60546" lon="9.27687">
        <ele>7.35</ele>
        <time>2014-06-06T08:09:47Z</time>
      </trkpt>
      <trkpt lat="41.60541" lon="9.2769">
        <ele>7.35</ele>
        <time>2014-06-06T08:09:48Z</time>
      </trkpt>
      <trkpt lat="41.60536" lon="9.27695">
        <ele>7.35</ele>
        <time>2014-06-06T08:09:49Z</time>
      </trkpt>
      <trkpt lat="41.60532" lon="9.27701">
        <ele>7.35</ele>
        <time>2014-06-06T08:09:50Z</time>
      </trkpt>
      <trkpt lat="41.60524" lon="9.27709">
        <ele>7.35</ele>
        <time>2014-06-06T08:09:52Z</time>
      </trkpt>
      <trkpt lat="41.60517" lon="9.27714">
        <ele>7.35</ele>
        <time>2014-06-06T08:09:54Z</time>
      </trkpt>
      <trkpt lat="41.60513" lon="9.27716">
        <ele>7.35</ele>
        <time>2014-06-06T08:09:55Z</time>
      </trkpt>
      <trkpt lat="41.60509" lon="9.27717">
        <ele>6.87</ele>
        <time>2014-06-06T08:09:56Z</time>
      </trkpt>
      <trkpt lat="41.60501" lon="9.27718">
        <ele>6.87</ele>
        <time>2014-06-06T08:09:58Z</time>
      </trkpt>
      <trkpt lat="41.60497" lon="9.27718">
        <ele>6.87</ele>
        <time>2014-06-06T08:09:59Z</time>
      </trkpt>
      <trkpt lat="41.60451" lon="9.2771">
        <ele>5.91</ele>
        <time>2014-06-06T08:10:10Z</time>
      </trkpt>
      <trkpt lat="41.60366" lon="9.27683">
        <ele>7.83</ele>
        <time>2014-06-06T08:10:23Z</time>
      </trkpt>
      <trkpt lat="41.60299" lon="9.27668">
        <ele>8.79</ele>
        <time>2014-06-06T08:10:35Z</time>
      </trkpt>
      <trkpt lat="41.60294" lon="9.27667">
        <ele>8.79</ele>
        <time>2014-06-06T08:10:36Z</time>
      </trkpt>
      <trkpt lat="41.60226" lon="9.27645">
        <ele>10.23</ele>
        <time>2014-06-06T08:10:46Z</time>
      </trkpt>
      <trkpt lat="41.60074" lon="9.27603">
        <ele>11.19</ele>
        <time>2014-06-06T08:11:02Z</time>
      </trkpt>
      <trkpt lat="41.60004" lon="9.27584">
        <ele>11.19</ele>
        <time>2014-06-06T08:11:11Z</time>
      </trkpt>
      <trkpt lat="41.59958" lon="9.27571">
        <ele>11.19</ele>
        <time>2014-06-06T08:11:21Z</time>
      </trkpt>
      <trkpt lat="41.59945" lon="9.27567">
        <ele>12.63</ele>
        <time>2014-06-06T08:11:33Z</time>
      </trkpt>
      <trkpt lat="41.59911" lon="9.27558">
        <ele>12.63</ele>
        <time>2014-06-06T08:11:44Z</time>
      </trkpt>
      <trkpt lat="41.59901" lon="9.27555">
        <ele>12.15</ele>
        <time>2014-06-06T08:11:52Z</time>
      </trkpt>
      <trkpt lat="41.59872" lon="9.27544">
        <ele>14.08</ele>
        <time>2014-06-06T08:12:07Z</time>
      </trkpt>
      <trkpt lat="41.5983" lon="9.27535">
        <ele>13.12</ele>
        <time>2014-06-06T08:12:21Z</time>
      </trkpt>
      <trkpt lat="41.59806" lon="9.2753">
        <ele>11.19</ele>
        <time>2014-06-06T08:12:37Z</time>
      </trkpt>
      <trkpt lat="41.59797" lon="9.27528">
        <ele>9.27</ele>
        <time>2014-06-06T08:12:47Z</time>
      </trkpt>
      <trkpt lat="41.59788" lon="9.27525">
        <ele>8.31</ele>
        <time>2014-06-06T08:12:55Z</time>
      </trkpt>
      <trkpt lat="41.59787" lon="9.27524">
        <ele>8.31</ele>
        <time>2014-06-06T08:12:56Z</time>
      </trkpt>
      <trkpt lat="41.59775" lon="9.27519">
        <ele>5.42</ele>
        <time>2014-06-06T08:13:06Z</time>
      </trkpt>
      <trkpt lat="41.59759" lon="9.27512">
        <ele>4.94</ele>
        <time>2014-06-06T08:13:10Z</time>
      </trkpt>
      <trkpt lat="41.59753" lon="9.27513">
        <ele>4.46</ele>
        <time>2014-06-06T08:13:11Z</time>
      </trkpt>
      <trkpt lat="41.5974" lon="9.27514">
        <ele>4.46</ele>
        <time>2014-06-06T08:13:13Z</time>
      </trkpt>
      <trkpt lat="41.59734" lon="9.27514">
        <ele>4.46</ele>
        <time>2014-06-06T08:13:14Z</time>
      </trkpt>
      <trkpt lat="41.59727" lon="9.27513">
        <ele>4.46</ele>
        <time>2014-06-06T08:13:15Z</time>
      </trkpt>
      <trkpt lat="41.59661" lon="9.2749">
        <ele>5.42</ele>
        <time>2014-06-06T08:13:25Z</time>
      </trkpt>
      <trkpt lat="41.59645" lon="9.27485">
        <ele>5.42</ele>
        <time>2014-06-06T08:13:28Z</time>
      </trkpt>
      <trkpt lat="41.59567" lon="9.27461">
        <ele>7.35</ele>
        <time>2014-06-06T08:13:40Z</time>
      </trkpt>
      <trkpt lat="41.59548" lon="9.2745">
        <ele>8.31</ele>
        <time>2014-06-06T08:13:43Z</time>
      </trkpt>
      <trkpt lat="41.59533" lon="9.27442">
        <ele>9.75</ele>
        <time>2014-06-06T08:13:46Z</time>
      </trkpt>
      <trkpt lat="41.59529" lon="9.27444">
        <ele>9.75</ele>
        <time>2014-06-06T08:13:47Z</time>
      </trkpt>
      <trkpt lat="41.59526" lon="9.27449">
        <ele>9.27</ele>
        <time>2014-06-06T08:13:48Z</time>
      </trkpt>
      <trkpt lat="41.59502" lon="9.27522">
        <ele>11.19</ele>
        <time>2014-06-06T08:13:56Z</time>
      </trkpt>
      <trkpt lat="41.59462" lon="9.27638">
        <ele>17.44</ele>
        <time>2014-06-06T08:14:06Z</time>
      </trkpt>
      <trkpt lat="41.5946" lon="9.27649">
        <ele>18.4</ele>
        <time>2014-06-06T08:14:07Z</time>
      </trkpt>
      <trkpt lat="41.59459" lon="9.27663">
        <ele>18.4</ele>
        <time>2014-06-06T08:14:08Z</time>
      </trkpt>
      <trkpt lat="41.5946" lon="9.27676">
        <ele>18.4</ele>
        <time>2014-06-06T08:14:09Z</time>
      </trkpt>
      <trkpt lat="41.59461" lon="9.2769">
        <ele>18.4</ele>
        <time>2014-06-06T08:14:10Z</time>
      </trkpt>
      <trkpt lat="41.59463" lon="9.27704">
        <ele>18.88</ele>
        <time>2014-06-06T08:14:11Z</time>
      </trkpt>
      <trkpt lat="41.59467" lon="9.27718">
        <ele>18.88</ele>
        <time>2014-06-06T08:14:12Z</time>
      </trkpt>
      <trkpt lat="41.59471" lon="9.2773">
        <ele>18.88</ele>
        <time>2014-06-06T08:14:13Z</time>
      </trkpt>
      <trkpt lat="41.5952" lon="9.27883">
        <ele>24.17</ele>
        <time>2014-06-06T08:14:25Z</time>
      </trkpt>
      <trkpt lat="41.59522" lon="9.27893">
        <ele>24.65</ele>
        <time>2014-06-06T08:14:26Z</time>
      </trkpt>
      <trkpt lat="41.59522" lon="9.27902">
        <ele>25.61</ele>
        <time>2014-06-06T08:14:27Z</time>
      </trkpt>
      <trkpt lat="41.5952" lon="9.27909">
        <ele>26.09</ele>
        <time>2014-06-06T08:14:28Z</time>
      </trkpt>
      <trkpt lat="41.59515" lon="9.27914">
        <ele>26.57</ele>
        <time>2014-06-06T08:14:29Z</time>
      </trkpt>
      <trkpt lat="41.59509" lon="9.27915">
        <ele>27.53</ele>
        <time>2014-06-06T08:14:30Z</time>
      </trkpt>
      <trkpt lat="41.59501" lon="9.27914">
        <ele>27.53</ele>
        <time>2014-06-06T08:14:31Z</time>
      </trkpt>
      <trkpt lat="41.59492" lon="9.27909">
        <ele>27.53</ele>
        <time>2014-06-06T08:14:32Z</time>
      </trkpt>
      <trkpt lat="41.59482" lon="9.27902">
        <ele>28.5</ele>
        <time>2014-06-06T08:14:33Z</time>
      </trkpt>
      <trkpt lat="41.59462" lon="9.27889">
        <ele>32.34</ele>
        <time>2014-06-06T08:14:35Z</time>
      </trkpt>
      <trkpt lat="41.59452" lon="9.27888">
        <ele>32.34</ele>
        <time>2014-06-06T08:14:36Z</time>
      </trkpt>
      <trkpt lat="41.59441" lon="9.27891">
        <ele>31.86</ele>
        <time>2014-06-06T08:14:37Z</time>
      </trkpt>
      <trkpt lat="41.59429" lon="9.27896">
        <ele>35.71</ele>
        <time>2014-06-06T08:14:38Z</time>
      </trkpt>
      <trkpt lat="41.59418" lon="9.27902">
        <ele>36.67</ele>
        <time>2014-06-06T08:14:39Z</time>
      </trkpt>
      <trkpt lat="41.59399" lon="9.27907">
        <ele>37.63</ele>
        <time>2014-06-06T08:14:41Z</time>
      </trkpt>
      <trkpt lat="41.59389" lon="9.27906">
        <ele>38.11</ele>
        <time>2014-06-06T08:14:42Z</time>
      </trkpt>
      <trkpt lat="41.5938" lon="9.27902">
        <ele>38.59</ele>
        <time>2014-06-06T08:14:43Z</time>
      </trkpt>
      <trkpt lat="41.59371" lon="9.27897">
        <ele>39.07</ele>
        <time>2014-06-06T08:14:44Z</time>
      </trkpt>
      <trkpt lat="41.59362" lon="9.27892">
        <ele>40.03</ele>
        <time>2014-06-06T08:14:45Z</time>
      </trkpt>
      <trkpt lat="41.59272" lon="9.27854">
        <ele>46.28</ele>
        <time>2014-06-06T08:14:56Z</time>
      </trkpt>
      <trkpt lat="41.59213" lon="9.2783">
        <ele>46.28</ele>
        <time>2014-06-06T08:15:07Z</time>
      </trkpt>
      <trkpt lat="41.59185" lon="9.2782">
        <ele>49.65</ele>
        <time>2014-06-06T08:15:17Z</time>
      </trkpt>
      <trkpt lat="41.5916" lon="9.2781">
        <ele>53.97</ele>
        <time>2014-06-06T08:15:27Z</time>
      </trkpt>
      <trkpt lat="41.59128" lon="9.27794">
        <ele>62.14</ele>
        <time>2014-06-06T08:15:40Z</time>
      </trkpt>
      <trkpt lat="41.59092" lon="9.27782">
        <ele>65.99</ele>
        <time>2014-06-06T08:15:52Z</time>
      </trkpt>
      <trkpt lat="41.59071" lon="9.27775">
        <ele>67.91</ele>
        <time>2014-06-06T08:16:05Z</time>
      </trkpt>
      <trkpt lat="41.59071" lon="9.27776">
        <ele>67.91</ele>
        <time>2014-06-06T08:16:08Z</time>
      </trkpt>
      <trkpt lat="41.59066" lon="9.27774">
        <ele>67.91</ele>
        <time>2014-06-06T08:16:09Z</time>
      </trkpt>
      <trkpt lat="41.59063" lon="9.27774">
        <ele>67.91</ele>
        <time>2014-06-06T08:16:10Z</time>
      </trkpt>
      <trkpt lat="41.59061" lon="9.27774">
        <ele>67.91</ele>
        <time>2014-06-06T08:16:11Z</time>
      </trkpt>
      <trkpt lat="41.59058" lon="9.27772">
        <ele>67.91</ele>
        <time>2014-06-06T08:16:12Z</time>
      </trkpt>
      <trkpt lat="41.59056" lon="9.27771">
        <ele>67.91</ele>
        <time>2014-06-06T08:16:13Z</time>
      </trkpt>
      <trkpt lat="41.59038" lon="9.27764">
        <ele>69.83</ele>
        <time>2014-06-06T08:16:24Z</time>
      </trkpt>
      <trkpt lat="41.59033" lon="9.27758">
        <ele>69.83</ele>
        <time>2014-06-06T08:16:32Z</time>
      </trkpt>
      <trkpt lat="41.59028" lon="9.27777">
        <ele>70.79</ele>
        <time>2014-06-06T08:16:37Z</time>
      </trkpt>
      <trkpt lat="41.59028" lon="9.2778">
        <ele>70.79</ele>
        <time>2014-06-06T08:16:38Z</time>
      </trkpt>
      <trkpt lat="41.59028" lon="9.27784">
        <ele>71.27</ele>
        <time>2014-06-06T08:16:39Z</time>
      </trkpt>
      <trkpt lat="41.59027" lon="9.27787">
        <ele>71.76</ele>
        <time>2014-06-06T08:16:40Z</time>
      </trkpt>
      <trkpt lat="41.59026" lon="9.27791">
        <ele>72.24</ele>
        <time>2014-06-06T08:16:41Z</time>
      </trkpt>
      <trkpt lat="41.59024" lon="9.27794">
        <ele>73.2</ele>
        <time>2014-06-06T08:16:42Z</time>
      </trkpt>
      <trkpt lat="41.59023" lon="9.27796">
        <ele>73.68</ele>
        <time>2014-06-06T08:16:43Z</time>
      </trkpt>
      <trkpt lat="41.59019" lon="9.2785">
        <ele>78</ele>
        <time>2014-06-06T08:16:55Z</time>
      </trkpt>
      <trkpt lat="41.5902" lon="9.27883">
        <ele>75.6</ele>
        <time>2014-06-06T08:17:02Z</time>
      </trkpt>
      <trkpt lat="41.59029" lon="9.27899">
        <ele>75.6</ele>
        <time>2014-06-06T08:17:06Z</time>
      </trkpt>
      <trkpt lat="41.59033" lon="9.27899">
        <ele>76.56</ele>
        <time>2014-06-06T08:17:07Z</time>
      </trkpt>
      <trkpt lat="41.59044" lon="9.27893">
        <ele>76.56</ele>
        <time>2014-06-06T08:17:10Z</time>
      </trkpt>
      <trkpt lat="41.59045" lon="9.27895">
        <ele>76.56</ele>
        <time>2014-06-06T08:17:11Z</time>
      </trkpt>
      <trkpt lat="41.59076" lon="9.2793">
        <ele>78</ele>
        <time>2014-06-06T08:17:25Z</time>
      </trkpt>
      <trkpt lat="41.59094" lon="9.27951">
        <ele>78.97</ele>
        <time>2014-06-06T08:17:33Z</time>
      </trkpt>
      <trkpt lat="41.59097" lon="9.2795">
        <ele>78.48</ele>
        <time>2014-06-06T08:17:34Z</time>
      </trkpt>
      <trkpt lat="41.59099" lon="9.27949">
        <ele>78.48</ele>
        <time>2014-06-06T08:17:35Z</time>
      </trkpt>
      <trkpt lat="41.59101" lon="9.27947">
        <ele>78.97</ele>
        <time>2014-06-06T08:17:36Z</time>
      </trkpt>
      <trkpt lat="41.59103" lon="9.27943">
        <ele>78.97</ele>
        <time>2014-06-06T08:17:37Z</time>
      </trkpt>
      <trkpt lat="41.59104" lon="9.2794">
        <ele>78.97</ele>
        <time>2014-06-06T08:17:38Z</time>
      </trkpt>
      <trkpt lat="41.59127" lon="9.27888">
        <ele>66.95</ele>
        <time>2014-06-06T08:17:50Z</time>
      </trkpt>
      <trkpt lat="41.59129" lon="9.27887">
        <ele>66.95</ele>
        <time>2014-06-06T08:17:51Z</time>
      </trkpt>
      <trkpt lat="41.59132" lon="9.27888">
        <ele>66.47</ele>
        <time>2014-06-06T08:17:52Z</time>
      </trkpt>
      <trkpt lat="41.59135" lon="9.2789">
        <ele>65.99</ele>
        <time>2014-06-06T08:17:53Z</time>
      </trkpt>
      <trkpt lat="41.59136" lon="9.27893">
        <ele>65.99</ele>
        <time>2014-06-06T08:17:54Z</time>
      </trkpt>
      <trkpt lat="41.59137" lon="9.27895">
        <ele>65.99</ele>
        <time>2014-06-06T08:17:55Z</time>
      </trkpt>
      <trkpt lat="41.59139" lon="9.27896">
        <ele>65.51</ele>
        <time>2014-06-06T08:17:56Z</time>
      </trkpt>
      <trkpt lat="41.5914" lon="9.27896">
        <ele>65.51</ele>
        <time>2014-06-06T08:17:57Z</time>
      </trkpt>
      <trkpt lat="41.59142" lon="9.27898">
        <ele>65.51</ele>
        <time>2014-06-06T08:17:58Z</time>
      </trkpt>
      <trkpt lat="41.59147" lon="9.2791">
        <ele>66.95</ele>
        <time>2014-06-06T08:18:10Z</time>
      </trkpt>
      <trkpt lat="41.59147" lon="9.27907">
        <ele>66.47</ele>
        <time>2014-06-06T08:18:57Z</time>
      </trkpt>
      <trkpt lat="41.59147" lon="9.27906">
        <ele>66.95</ele>
        <time>2014-06-06T08:20:19Z</time>
      </trkpt>
      <trkpt lat="41.59144" lon="9.27903">
        <ele>67.43</ele>
        <time>2014-06-06T08:21:12Z</time>
      </trkpt>
      <trkpt lat="41.59128" lon="9.27893">
        <ele>71.27</ele>
        <time>2014-06-06T08:21:55Z</time>
      </trkpt>
      <trkpt lat="41.5913" lon="9.27892">
        <ele>71.76</ele>
        <time>2014-06-06T08:22:45Z</time>
      </trkpt>
      <trkpt lat="41.59131" lon="9.27893">
        <ele>71.76</ele>
        <time>2014-06-06T08:23:33Z</time>
      </trkpt>
      <trkpt lat="41.59128" lon="9.27891">
        <ele>72.24</ele>
        <time>2014-06-06T08:24:18Z</time>
      </trkpt>
      <trkpt lat="41.59145" lon="9.27894">
        <ele>74.64</ele>
        <time>2014-06-06T08:25:12Z</time>
      </trkpt>
      <trkpt lat="41.59145" lon="9.27894">
        <ele>74.16</ele>
        <time>2014-06-06T08:26:13Z</time>
      </trkpt>
      <trkpt lat="41.59149" lon="9.27896">
        <ele>73.68</ele>
        <time>2014-06-06T08:27:04Z</time>
      </trkpt>
      <trkpt lat="41.59151" lon="9.27897">
        <ele>73.68</ele>
        <time>2014-06-06T08:28:03Z</time>
      </trkpt>
      <trkpt lat="41.5915" lon="9.27897">
        <ele>73.68</ele>
        <time>2014-06-06T08:29:09Z</time>
      </trkpt>
      <trkpt lat="41.59158" lon="9.279">
        <ele>72.24</ele>
        <time>2014-06-06T08:29:54Z</time>
      </trkpt>
      <trkpt lat="41.59157" lon="9.27899">
        <ele>72.72</ele>
        <time>2014-06-06T08:30:42Z</time>
      </trkpt>
      <trkpt lat="41.5915" lon="9.27896">
        <ele>71.27</ele>
        <time>2014-06-06T08:31:20Z</time>
      </trkpt>
      <trkpt lat="41.59157" lon="9.279">
        <ele>71.27</ele>
        <time>2014-06-06T08:32:05Z</time>
      </trkpt>
      <trkpt lat="41.59158" lon="9.279">
        <ele>71.76</ele>
        <time>2014-06-06T08:32:50Z</time>
      </trkpt>
      <trkpt lat="41.59158" lon="9.279">
        <ele>71.76</ele>
        <time>2014-06-06T08:33:42Z</time>
      </trkpt>
      <trkpt lat="41.59158" lon="9.279">
        <ele>71.76</ele>
        <time>2014-06-06T08:35:01Z</time>
      </trkpt>
      <trkpt lat="41.59158" lon="9.27899">
        <ele>71.27</ele>
        <time>2014-06-06T08:36:24Z</time>
      </trkpt>
      <trkpt lat="41.59158" lon="9.27898">
        <ele>70.79</ele>
        <time>2014-06-06T08:37:38Z</time>
      </trkpt>
      <trkpt lat="41.59158" lon="9.27898">
        <ele>70.79</ele>
        <time>2014-06-06T08:38:40Z</time>
      </trkpt>
      <trkpt lat="41.59158" lon="9.27898">
        <ele>70.79</ele>
        <time>2014-06-06T08:40:05Z</time>
      </trkpt>
      <trkpt lat="41.59158" lon="9.27899">
        <ele>71.27</ele>
        <time>2014-06-06T08:41:19Z</time>
      </trkpt>
      <trkpt lat="41.59167" lon="9.27904">
        <ele>78</ele>
        <time>2014-06-06T08:42:29Z</time>
      </trkpt>
      <trkpt lat="41.59156" lon="9.27904">
        <ele>73.68</ele>
        <time>2014-06-06T08:43:15Z</time>
      </trkpt>
      <trkpt lat="41.59153" lon="9.27903">
        <ele>71.76</ele>
        <time>2014-06-06T08:43:57Z</time>
      </trkpt>
      <trkpt lat="41.59151" lon="9.27903">
        <ele>70.79</ele>
        <time>2014-06-06T08:44:36Z</time>
      </trkpt>
      <trkpt lat="41.59161" lon="9.27907">
        <ele>76.56</ele>
        <time>2014-06-06T08:45:20Z</time>
      </trkpt>
      <trkpt lat="41.59162" lon="9.27907">
        <ele>77.52</ele>
        <time>2014-06-06T08:46:14Z</time>
      </trkpt>
      <trkpt lat="41.59161" lon="9.27907">
        <ele>77.04</ele>
        <time>2014-06-06T08:47:32Z</time>
      </trkpt>
      <trkpt lat="41.59167" lon="9.27906">
        <ele>75.6</ele>
        <time>2014-06-06T08:48:43Z</time>
      </trkpt>
      <trkpt lat="41.59152" lon="9.27904">
        <ele>70.31</ele>
        <time>2014-06-06T08:49:23Z</time>
      </trkpt>
      <trkpt lat="41.59149" lon="9.27902">
        <ele>71.27</ele>
        <time>2014-06-06T08:49:52Z</time>
      </trkpt>
      <trkpt lat="41.59148" lon="9.27902">
        <ele>70.79</ele>
        <time>2014-06-06T08:49:53Z</time>
      </trkpt>
      <trkpt lat="41.59146" lon="9.279">
        <ele>70.79</ele>
        <time>2014-06-06T08:49:54Z</time>
      </trkpt>
      <trkpt lat="41.59141" lon="9.27895">
        <ele>67.43</ele>
        <time>2014-06-06T08:50:11Z</time>
      </trkpt>
      <trkpt lat="41.59136" lon="9.27894">
        <ele>62.14</ele>
        <time>2014-06-06T08:50:55Z</time>
      </trkpt>
      <trkpt lat="41.59132" lon="9.27891">
        <ele>59.26</ele>
        <time>2014-06-06T08:51:29Z</time>
      </trkpt>
      <trkpt lat="41.59137" lon="9.27893">
        <ele>55.41</ele>
        <time>2014-06-06T08:51:56Z</time>
      </trkpt>
      <trkpt lat="41.59138" lon="9.27886">
        <ele>50.61</ele>
        <time>2014-06-06T08:52:36Z</time>
      </trkpt>
      <trkpt lat="41.59135" lon="9.27892">
        <ele>47.72</ele>
        <time>2014-06-06T08:53:26Z</time>
      </trkpt>
      <trkpt lat="41.59135" lon="9.27893">
        <ele>47.72</ele>
        <time>2014-06-06T08:53:29Z</time>
      </trkpt>
      <trkpt lat="41.59134" lon="9.27891">
        <ele>48.68</ele>
        <time>2014-06-06T08:53:30Z</time>
      </trkpt>
      <trkpt lat="41.59132" lon="9.2789">
        <ele>49.65</ele>
        <time>2014-06-06T08:53:31Z</time>
      </trkpt>
      <trkpt lat="41.5913" lon="9.27887">
        <ele>50.13</ele>
        <time>2014-06-06T08:53:32Z</time>
      </trkpt>
      <trkpt lat="41.59126" lon="9.27883">
        <ele>50.61</ele>
        <time>2014-06-06T08:53:33Z</time>
      </trkpt>
      <trkpt lat="41.59116" lon="9.27869">
        <ele>50.13</ele>
        <time>2014-06-06T08:53:36Z</time>
      </trkpt>
      <trkpt lat="41.59117" lon="9.27864">
        <ele>49.16</ele>
        <time>2014-06-06T08:53:37Z</time>
      </trkpt>
      <trkpt lat="41.59119" lon="9.2786">
        <ele>49.65</ele>
        <time>2014-06-06T08:53:38Z</time>
      </trkpt>
      <trkpt lat="41.59121" lon="9.27857">
        <ele>49.65</ele>
        <time>2014-06-06T08:53:39Z</time>
      </trkpt>
      <trkpt lat="41.59125" lon="9.27854">
        <ele>49.16</ele>
        <time>2014-06-06T08:53:40Z</time>
      </trkpt>
      <trkpt lat="41.59133" lon="9.27845">
        <ele>48.68</ele>
        <time>2014-06-06T08:53:42Z</time>
      </trkpt>
      <trkpt lat="41.59138" lon="9.27842">
        <ele>47.72</ele>
        <time>2014-06-06T08:53:43Z</time>
      </trkpt>
      <trkpt lat="41.59143" lon="9.2784">
        <ele>47.24</ele>
        <time>2014-06-06T08:53:44Z</time>
      </trkpt>
      <trkpt lat="41.59148" lon="9.27838">
        <ele>46.76</ele>
        <time>2014-06-06T08:53:45Z</time>
      </trkpt>
      <trkpt lat="41.59153" lon="9.27836">
        <ele>46.76</ele>
        <time>2014-06-06T08:53:46Z</time>
      </trkpt>
      <trkpt lat="41.59182" lon="9.27825">
        <ele>44.36</ele>
        <time>2014-06-06T08:53:53Z</time>
      </trkpt>
      <trkpt lat="41.5919" lon="9.27825">
        <ele>44.36</ele>
        <time>2014-06-06T08:53:54Z</time>
      </trkpt>
      <trkpt lat="41.59196" lon="9.27826">
        <ele>45.32</ele>
        <time>2014-06-06T08:53:55Z</time>
      </trkpt>
      <trkpt lat="41.59199" lon="9.27827">
        <ele>44.84</ele>
        <time>2014-06-06T08:53:56Z</time>
      </trkpt>
      <trkpt lat="41.59201" lon="9.27829">
        <ele>44.36</ele>
        <time>2014-06-06T08:53:57Z</time>
      </trkpt>
      <trkpt lat="41.59204" lon="9.2783">
        <ele>44.36</ele>
        <time>2014-06-06T08:53:58Z</time>
      </trkpt>
      <trkpt lat="41.59207" lon="9.27832">
        <ele>43.88</ele>
        <time>2014-06-06T08:53:59Z</time>
      </trkpt>
      <trkpt lat="41.59214" lon="9.27837">
        <ele>43.88</ele>
        <time>2014-06-06T08:54:01Z</time>
      </trkpt>
      <trkpt lat="41.59219" lon="9.27841">
        <ele>43.4</ele>
        <time>2014-06-06T08:54:02Z</time>
      </trkpt>
      <trkpt lat="41.59238" lon="9.27854">
        <ele>43.4</ele>
        <time>2014-06-06T08:54:05Z</time>
      </trkpt>
      <trkpt lat="41.59336" lon="9.27898">
        <ele>37.63</ele>
        <time>2014-06-06T08:54:19Z</time>
      </trkpt>
      <trkpt lat="41.59374" lon="9.27922">
        <ele>36.67</ele>
        <time>2014-06-06T08:54:24Z</time>
      </trkpt>
      <trkpt lat="41.59381" lon="9.27925">
        <ele>36.67</ele>
        <time>2014-06-06T08:54:25Z</time>
      </trkpt>
      <trkpt lat="41.59388" lon="9.27926">
        <ele>36.19</ele>
        <time>2014-06-06T08:54:26Z</time>
      </trkpt>
      <trkpt lat="41.59395" lon="9.27926">
        <ele>36.19</ele>
        <time>2014-06-06T08:54:27Z</time>
      </trkpt>
      <trkpt lat="41.59403" lon="9.27923">
        <ele>35.23</ele>
        <time>2014-06-06T08:54:28Z</time>
      </trkpt>
      <trkpt lat="41.59409" lon="9.2792">
        <ele>35.23</ele>
        <time>2014-06-06T08:54:29Z</time>
      </trkpt>
      <trkpt lat="41.59416" lon="9.27914">
        <ele>34.26</ele>
        <time>2014-06-06T08:54:30Z</time>
      </trkpt>
      <trkpt lat="41.59423" lon="9.27909">
        <ele>33.78</ele>
        <time>2014-06-06T08:54:31Z</time>
      </trkpt>
      <trkpt lat="41.59439" lon="9.279">
        <ele>32.34</ele>
        <time>2014-06-06T08:54:33Z</time>
      </trkpt>
      <trkpt lat="41.59446" lon="9.27899">
        <ele>31.86</ele>
        <time>2014-06-06T08:54:34Z</time>
      </trkpt>
      <trkpt lat="41.59453" lon="9.27899">
        <ele>30.9</ele>
        <time>2014-06-06T08:54:35Z</time>
      </trkpt>
      <trkpt lat="41.59461" lon="9.27901">
        <ele>30.9</ele>
        <time>2014-06-06T08:54:36Z</time>
      </trkpt>
      <trkpt lat="41.59468" lon="9.27905">
        <ele>30.9</ele>
        <time>2014-06-06T08:54:37Z</time>
      </trkpt>
      <trkpt lat="41.59475" lon="9.27911">
        <ele>30.42</ele>
        <time>2014-06-06T08:54:38Z</time>
      </trkpt>
      <trkpt lat="41.59496" lon="9.27925">
        <ele>28.98</ele>
        <time>2014-06-06T08:54:41Z</time>
      </trkpt>
      <trkpt lat="41.59502" lon="9.27927">
        <ele>28.02</ele>
        <time>2014-06-06T08:54:42Z</time>
      </trkpt>
      <trkpt lat="41.59509" lon="9.27925">
        <ele>27.53</ele>
        <time>2014-06-06T08:54:43Z</time>
      </trkpt>
      <trkpt lat="41.59514" lon="9.27921">
        <ele>27.05</ele>
        <time>2014-06-06T08:54:44Z</time>
      </trkpt>
      <trkpt lat="41.59518" lon="9.27915">
        <ele>26.57</ele>
        <time>2014-06-06T08:54:45Z</time>
      </trkpt>
      <trkpt lat="41.5952" lon="9.27907">
        <ele>25.61</ele>
        <time>2014-06-06T08:54:46Z</time>
      </trkpt>
      <trkpt lat="41.59521" lon="9.27898">
        <ele>25.13</ele>
        <time>2014-06-06T08:54:47Z</time>
      </trkpt>
      <trkpt lat="41.5952" lon="9.27888">
        <ele>24.17</ele>
        <time>2014-06-06T08:54:48Z</time>
      </trkpt>
      <trkpt lat="41.59518" lon="9.27877">
        <ele>23.69</ele>
        <time>2014-06-06T08:54:49Z</time>
      </trkpt>
      <trkpt lat="41.59492" lon="9.27788">
        <ele>18.4</ele>
        <time>2014-06-06T08:54:55Z</time>
      </trkpt>
      <trkpt lat="41.59461" lon="9.27689">
        <ele>14.56</ele>
        <time>2014-06-06T08:55:03Z</time>
      </trkpt>
      <trkpt lat="41.59459" lon="9.27677">
        <ele>14.56</ele>
        <time>2014-06-06T08:55:04Z</time>
      </trkpt>
      <trkpt lat="41.5946" lon="9.27665">
        <ele>14.56</ele>
        <time>2014-06-06T08:55:05Z</time>
      </trkpt>
      <trkpt lat="41.5946" lon="9.27653">
        <ele>14.08</ele>
        <time>2014-06-06T08:55:06Z</time>
      </trkpt>
      <trkpt lat="41.59462" lon="9.27641">
        <ele>13.6</ele>
        <time>2014-06-06T08:55:07Z</time>
      </trkpt>
      <trkpt lat="41.59464" lon="9.27628">
        <ele>13.6</ele>
        <time>2014-06-06T08:55:08Z</time>
      </trkpt>
      <trkpt lat="41.59469" lon="9.27615">
        <ele>13.12</ele>
        <time>2014-06-06T08:55:09Z</time>
      </trkpt>
      <trkpt lat="41.59515" lon="9.27485">
        <ele>8.79</ele>
        <time>2014-06-06T08:55:20Z</time>
      </trkpt>
      <trkpt lat="41.5952" lon="9.27478">
        <ele>8.79</ele>
        <time>2014-06-06T08:55:21Z</time>
      </trkpt>
      <trkpt lat="41.59524" lon="9.27473">
        <ele>10.23</ele>
        <time>2014-06-06T08:55:22Z</time>
      </trkpt>
      <trkpt lat="41.59525" lon="9.27469">
        <ele>9.27</ele>
        <time>2014-06-06T08:55:23Z</time>
      </trkpt>
      <trkpt lat="41.59526" lon="9.27468">
        <ele>9.75</ele>
        <time>2014-06-06T08:55:24Z</time>
      </trkpt>
      <trkpt lat="41.59527" lon="9.27467">
        <ele>8.79</ele>
        <time>2014-06-06T08:55:25Z</time>
      </trkpt>
      <trkpt lat="41.59529" lon="9.27465">
        <ele>8.31</ele>
        <time>2014-06-06T08:55:26Z</time>
      </trkpt>
      <trkpt lat="41.59537" lon="9.2746">
        <ele>6.87</ele>
        <time>2014-06-06T08:55:28Z</time>
      </trkpt>
      <trkpt lat="41.59541" lon="9.27459">
        <ele>5.91</ele>
        <time>2014-06-06T08:55:29Z</time>
      </trkpt>
      <trkpt lat="41.59545" lon="9.27459">
        <ele>4.94</ele>
        <time>2014-06-06T08:55:30Z</time>
      </trkpt>
      <trkpt lat="41.5955" lon="9.27462">
        <ele>4.46</ele>
        <time>2014-06-06T08:55:31Z</time>
      </trkpt>
      <trkpt lat="41.59556" lon="9.27464">
        <ele>4.46</ele>
        <time>2014-06-06T08:55:32Z</time>
      </trkpt>
      <trkpt lat="41.59619" lon="9.27485">
        <ele>4.46</ele>
        <time>2014-06-06T08:55:41Z</time>
      </trkpt>
      <trkpt lat="41.59657" lon="9.27502">
        <ele>3.98</ele>
        <time>2014-06-06T08:55:50Z</time>
      </trkpt>
      <trkpt lat="41.59727" lon="9.2753">
        <ele>10.23</ele>
        <time>2014-06-06T08:56:04Z</time>
      </trkpt>
      <trkpt lat="41.59736" lon="9.27534">
        <ele>9.75</ele>
        <time>2014-06-06T08:56:07Z</time>
      </trkpt>
      <trkpt lat="41.59739" lon="9.2754">
        <ele>9.27</ele>
        <time>2014-06-06T08:56:08Z</time>
      </trkpt>
      <trkpt lat="41.59742" lon="9.27546">
        <ele>9.27</ele>
        <time>2014-06-06T08:56:09Z</time>
      </trkpt>
      <trkpt lat="41.59745" lon="9.27552">
        <ele>8.31</ele>
        <time>2014-06-06T08:56:10Z</time>
      </trkpt>
      <trkpt lat="41.59749" lon="9.27558">
        <ele>8.79</ele>
        <time>2014-06-06T08:56:11Z</time>
      </trkpt>
      <trkpt lat="41.59755" lon="9.27561">
        <ele>8.79</ele>
        <time>2014-06-06T08:56:12Z</time>
      </trkpt>
      <trkpt lat="41.5976" lon="9.2756">
        <ele>9.27</ele>
        <time>2014-06-06T08:56:13Z</time>
      </trkpt>
      <trkpt lat="41.59766" lon="9.27557">
        <ele>9.75</ele>
        <time>2014-06-06T08:56:14Z</time>
      </trkpt>
      <trkpt lat="41.5977" lon="9.27553">
        <ele>9.75</ele>
        <time>2014-06-06T08:56:15Z</time>
      </trkpt>
      <trkpt lat="41.59783" lon="9.27546">
        <ele>9.75</ele>
        <time>2014-06-06T08:56:17Z</time>
      </trkpt>
      <trkpt lat="41.5979" lon="9.27545">
        <ele>9.27</ele>
        <time>2014-06-06T08:56:18Z</time>
      </trkpt>
      <trkpt lat="41.59798" lon="9.27547">
        <ele>9.27</ele>
        <time>2014-06-06T08:56:19Z</time>
      </trkpt>
      <trkpt lat="41.59808" lon="9.27549">
        <ele>8.79</ele>
        <time>2014-06-06T08:56:20Z</time>
      </trkpt>
      <trkpt lat="41.59821" lon="9.27552">
        <ele>9.27</ele>
        <time>2014-06-06T08:56:21Z</time>
      </trkpt>
      <trkpt lat="41.59896" lon="9.27574">
        <ele>9.27</ele>
        <time>2014-06-06T08:56:29Z</time>
      </trkpt>
      <trkpt lat="41.59981" lon="9.276">
        <ele>11.19</ele>
        <time>2014-06-06T08:56:40Z</time>
      </trkpt>
      <trkpt lat="41.6001" lon="9.27609">
        <ele>12.63</ele>
        <time>2014-06-06T08:56:48Z</time>
      </trkpt>
      <trkpt lat="41.60098" lon="9.27632">
        <ele>12.63</ele>
        <time>2014-06-06T08:57:00Z</time>
      </trkpt>
      <trkpt lat="41.60152" lon="9.2765">
        <ele>14.08</ele>
        <time>2014-06-06T08:57:08Z</time>
      </trkpt>
      <trkpt lat="41.60187" lon="9.27661">
        <ele>15.52</ele>
        <time>2014-06-06T08:57:17Z</time>
      </trkpt>
      <trkpt lat="41.60254" lon="9.27675">
        <ele>15.04</ele>
        <time>2014-06-06T08:57:28Z</time>
      </trkpt>
      <trkpt lat="41.60259" lon="9.27676">
        <ele>15.04</ele>
        <time>2014-06-06T08:57:29Z</time>
      </trkpt>
      <trkpt lat="41.60261" lon="9.27682">
        <ele>15.04</ele>
        <time>2014-06-06T08:57:30Z</time>
      </trkpt>
      <trkpt lat="41.60271" lon="9.27696">
        <ele>13.6</ele>
        <time>2014-06-06T08:57:33Z</time>
      </trkpt>
      <trkpt lat="41.60275" lon="9.27698">
        <ele>13.6</ele>
        <time>2014-06-06T08:57:34Z</time>
      </trkpt>
      <trkpt lat="41.60279" lon="9.27699">
        <ele>14.08</ele>
        <time>2014-06-06T08:57:35Z</time>
      </trkpt>
      <trkpt lat="41.60284" lon="9.27697">
        <ele>14.56</ele>
        <time>2014-06-06T08:57:36Z</time>
      </trkpt>
      <trkpt lat="41.60289" lon="9.27694">
        <ele>13.6</ele>
        <time>2014-06-06T08:57:37Z</time>
      </trkpt>
      <trkpt lat="41.60306" lon="9.27689">
        <ele>11.67</ele>
        <time>2014-06-06T08:57:40Z</time>
      </trkpt>
      <trkpt lat="41.60313" lon="9.2769">
        <ele>11.67</ele>
        <time>2014-06-06T08:57:41Z</time>
      </trkpt>
      <trkpt lat="41.60318" lon="9.27692">
        <ele>11.19</ele>
        <time>2014-06-06T08:57:42Z</time>
      </trkpt>
      <trkpt lat="41.60381" lon="9.27712">
        <ele>11.67</ele>
        <time>2014-06-06T08:57:54Z</time>
      </trkpt>
      <trkpt lat="41.60409" lon="9.27721">
        <ele>12.63</ele>
        <time>2014-06-06T08:58:07Z</time>
      </trkpt>
      <trkpt lat="41.60439" lon="9.2773">
        <ele>13.12</ele>
        <time>2014-06-06T08:58:15Z</time>
      </trkpt>
      <trkpt lat="41.60446" lon="9.27735">
        <ele>13.12</ele>
        <time>2014-06-06T08:58:17Z</time>
      </trkpt>
      <trkpt lat="41.60469" lon="9.27749">
        <ele>12.63</ele>
        <time>2014-06-06T08:58:21Z</time>
      </trkpt>
      <trkpt lat="41.60482" lon="9.27754">
        <ele>11.67</ele>
        <time>2014-06-06T08:58:24Z</time>
      </trkpt>
      <trkpt lat="41.60484" lon="9.27757">
        <ele>11.67</ele>
        <time>2014-06-06T08:58:25Z</time>
      </trkpt>
      <trkpt lat="41.60484" lon="9.2776">
        <ele>11.67</ele>
        <time>2014-06-06T08:58:26Z</time>
      </trkpt>
      <trkpt lat="41.60485" lon="9.27762">
        <ele>10.71</ele>
        <time>2014-06-06T08:58:27Z</time>
      </trkpt>
      <trkpt lat="41.60484" lon="9.27762">
        <ele>10.71</ele>
        <time>2014-06-06T08:58:28Z</time>
      </trkpt>
      <trkpt lat="41.60482" lon="9.27761">
        <ele>9.75</ele>
        <time>2014-06-06T08:58:29Z</time>
      </trkpt>
      <trkpt lat="41.6048" lon="9.27758">
        <ele>9.75</ele>
        <time>2014-06-06T08:58:30Z</time>
      </trkpt>
      <trkpt lat="41.60478" lon="9.27757">
        <ele>7.83</ele>
        <time>2014-06-06T08:58:31Z</time>
      </trkpt>
      <trkpt lat="41.60475" lon="9.27757">
        <ele>6.39</ele>
        <time>2014-06-06T08:58:32Z</time>
      </trkpt>
      <trkpt lat="41.60474" lon="9.27757">
        <ele>5.91</ele>
        <time>2014-06-06T08:58:33Z</time>
      </trkpt>
      <trkpt lat="41.60473" lon="9.27759">
        <ele>5.42</ele>
        <time>2014-06-06T08:58:34Z</time>
      </trkpt>
      <trkpt lat="41.60473" lon="9.27762">
        <ele>5.91</ele>
        <time>2014-06-06T08:58:35Z</time>
      </trkpt>
      <trkpt lat="41.60472" lon="9.27763">
        <ele>5.42</ele>
        <time>2014-06-06T08:58:36Z</time>
      </trkpt>
      <trkpt lat="41.60471" lon="9.2779">
        <ele>3.5</ele>
        <time>2014-06-06T08:58:47Z</time>
      </trkpt>
      <trkpt lat="41.60473" lon="9.27792">
        <ele>3.5</ele>
        <time>2014-06-06T08:58:48Z</time>
      </trkpt>
      <trkpt lat="41.60475" lon="9.27792">
        <ele>3.5</ele>
        <time>2014-06-06T08:58:49Z</time>
      </trkpt>
      <trkpt lat="41.60477" lon="9.27793">
        <ele>3.5</ele>
        <time>2014-06-06T08:58:50Z</time>
      </trkpt>
      <trkpt lat="41.60477" lon="9.27796">
        <ele>4.94</ele>
        <time>2014-06-06T08:58:51Z</time>
      </trkpt>
      <trkpt lat="41.60478" lon="9.27797">
        <ele>5.42</ele>
        <time>2014-06-06T08:58:52Z</time>
      </trkpt>
      <trkpt lat="41.6048" lon="9.27797">
        <ele>5.42</ele>
        <time>2014-06-06T08:58:53Z</time>
      </trkpt>
      <trkpt lat="41.6048" lon="9.27799">
        <ele>5.42</ele>
        <time>2014-06-06T08:59:02Z</time>
      </trkpt>
      <trkpt lat="41.60478" lon="9.27798">
        <ele>5.42</ele>
        <time>2014-06-06T08:59:03Z</time>
      </trkpt>
      <trkpt lat="41.60466" lon="9.27791">
        <ele>4.46</ele>
        <time>2014-06-06T08:59:13Z</time>
      </trkpt>
      <trkpt lat="41.6047" lon="9.27794">
        <ele>4.46</ele>
        <time>2014-06-06T08:59:35Z</time>
      </trkpt>
      <trkpt lat="41.60469" lon="9.27792">
        <ele>8.79</ele>
        <time>2014-06-06T09:00:03Z</time>
      </trkpt>
      <trkpt lat="41.60469" lon="9.2779">
        <ele>12.15</ele>
        <time>2014-06-06T09:00:39Z</time>
      </trkpt>
      <trkpt lat="41.6047" lon="9.27789">
        <ele>12.15</ele>
        <time>2014-06-06T09:01:36Z</time>
      </trkpt>
      <trkpt lat="41.60471" lon="9.27783">
        <ele>12.63</ele>
        <time>2014-06-06T09:02:33Z</time>
      </trkpt>
      <trkpt lat="41.60471" lon="9.27784">
        <ele>12.15</ele>
        <time>2014-06-06T09:04:21Z</time>
      </trkpt>
      <trkpt lat="41.6047" lon="9.27785">
        <ele>12.63</ele>
        <time>2014-06-06T09:05:34Z</time>
      </trkpt>
      <trkpt lat="41.60472" lon="9.27786">
        <ele>14.08</ele>
        <time>2014-06-06T09:06:38Z</time>
      </trkpt>
      <trkpt lat="41.60473" lon="9.27787">
        <ele>20.81</ele>
        <time>2014-06-06T09:07:48Z</time>
      </trkpt>
      <trkpt lat="41.60473" lon="9.27787">
        <ele>25.13</ele>
        <time>2014-06-06T09:09:30Z</time>
      </trkpt>
      <trkpt lat="41.60471" lon="9.27784">
        <ele>22.25</ele>
        <time>2014-06-06T09:10:41Z</time>
      </trkpt>
      <trkpt lat="41.60467" lon="9.27779">
        <ele>9.27</ele>
        <time>2014-06-06T09:11:48Z</time>
      </trkpt>
      <trkpt lat="41.60465" lon="9.27777">
        <ele>-0.82</ele>
        <time>2014-06-06T09:12:39Z</time>
      </trkpt>
      <trkpt lat="41.60465" lon="9.27773">
        <ele>-9.96</ele>
        <time>2014-06-06T09:13:42Z</time>
      </trkpt>
      <trkpt lat="41.60465" lon="9.27776">
        <ele>-6.59</ele>
        <time>2014-06-06T09:14:25Z</time>
      </trkpt>
      <trkpt lat="41.60464" lon="9.27766">
        <ele>6.39</ele>
        <time>2014-06-06T09:15:10Z</time>
      </trkpt>
      <trkpt lat="41.60463" lon="9.27771">
        <ele>11.19</ele>
        <time>2014-06-06T09:15:52Z</time>
      </trkpt>
      <trkpt lat="41.60461" lon="9.27777">
        <ele>21.29</ele>
        <time>2014-06-06T09:16:45Z</time>
      </trkpt>
      <trkpt lat="41.6046" lon="9.27781">
        <ele>23.21</ele>
        <time>2014-06-06T09:17:34Z</time>
      </trkpt>
      <trkpt lat="41.60464" lon="9.27785">
        <ele>15.04</ele>
        <time>2014-06-06T09:18:06Z</time>
      </trkpt>
      <trkpt lat="41.60463" lon="9.27781">
        <ele>19.84</ele>
        <time>2014-06-06T09:18:54Z</time>
      </trkpt>
      <trkpt lat="41.60462" lon="9.27766">
        <ele>29.94</ele>
        <time>2014-06-06T09:19:44Z</time>
      </trkpt>
      <trkpt lat="41.60462" lon="9.2778">
        <ele>36.67</ele>
        <time>2014-06-06T09:20:37Z</time>
      </trkpt>
      <trkpt lat="41.60462" lon="9.2777">
        <ele>28.02</ele>
        <time>2014-06-06T09:21:26Z</time>
      </trkpt>
      <trkpt lat="41.60461" lon="9.2777">
        <ele>17.92</ele>
        <time>2014-06-06T09:22:07Z</time>
      </trkpt>
      <trkpt lat="41.6046" lon="9.27767">
        <ele>9.75</ele>
        <time>2014-06-06T09:22:50Z</time>
      </trkpt>
      <trkpt lat="41.6046" lon="9.27767">
        <ele>3.98</ele>
        <time>2014-06-06T09:23:40Z</time>
      </trkpt>
      <trkpt lat="41.60461" lon="9.27768">
        <ele>4.46</ele>
        <time>2014-06-06T09:24:35Z</time>
      </trkpt>
      <trkpt lat="41.60462" lon="9.2777">
        <ele>4.46</ele>
        <time>2014-06-06T09:26:23Z</time>
      </trkpt>
      <trkpt lat="41.60462" lon="9.27771">
        <ele>4.94</ele>
        <time>2014-06-06T09:28:07Z</time>
      </trkpt>
      <trkpt lat="41.60462" lon="9.27771">
        <ele>4.94</ele>
        <time>2014-06-06T09:29:47Z</time>
      </trkpt>
      <trkpt lat="41.60463" lon="9.27772">
        <ele>5.91</ele>
        <time>2014-06-06T09:31:29Z</time>
      </trkpt>
      <trkpt lat="41.60467" lon="9.27774">
        <ele>5.91</ele>
        <time>2014-06-06T09:32:42Z</time>
      </trkpt>
      <trkpt lat="41.60468" lon="9.27775">
        <ele>6.39</ele>
        <time>2014-06-06T09:32:45Z</time>
      </trkpt>
      <trkpt lat="41.6047" lon="9.27771">
        <ele>6.39</ele>
        <time>2014-06-06T09:32:47Z</time>
      </trkpt>
      <trkpt lat="41.60472" lon="9.27771">
        <ele>5.91</ele>
        <time>2014-06-06T09:32:48Z</time>
      </trkpt>
      <trkpt lat="41.60474" lon="9.27773">
        <ele>4.94</ele>
        <time>2014-06-06T09:32:49Z</time>
      </trkpt>
      <trkpt lat="41.60478" lon="9.27775">
        <ele>4.46</ele>
        <time>2014-06-06T09:32:50Z</time>
      </trkpt>
      <trkpt lat="41.60482" lon="9.27777">
        <ele>3.98</ele>
        <time>2014-06-06T09:32:51Z</time>
      </trkpt>
      <trkpt lat="41.60495" lon="9.2779">
        <ele>2.06</ele>
        <time>2014-06-06T09:32:56Z</time>
      </trkpt>
      <trkpt lat="41.60495" lon="9.27802">
        <ele>1.1</ele>
        <time>2014-06-06T09:32:59Z</time>
      </trkpt>
      <trkpt lat="41.60495" lon="9.2781">
        <ele>0.62</ele>
        <time>2014-06-06T09:33:01Z</time>
      </trkpt>
      <trkpt lat="41.60506" lon="9.27823">
        <ele>-0.82</ele>
        <time>2014-06-06T09:33:06Z</time>
      </trkpt>
      <trkpt lat="41.60544" lon="9.27835">
        <ele>0.14</ele>
        <time>2014-06-06T09:33:15Z</time>
      </trkpt>
      <trkpt lat="41.60547" lon="9.27832">
        <ele>0.14</ele>
        <time>2014-06-06T09:33:16Z</time>
      </trkpt>
      <trkpt lat="41.60548" lon="9.27829">
        <ele>0.14</ele>
        <time>2014-06-06T09:33:17Z</time>
      </trkpt>
      <trkpt lat="41.60549" lon="9.27826">
        <ele>-0.34</ele>
        <time>2014-06-06T09:33:18Z</time>
      </trkpt>
      <trkpt lat="41.60549" lon="9.27823">
        <ele>-0.34</ele>
        <time>2014-06-06T09:33:19Z</time>
      </trkpt>
      <trkpt lat="41.60557" lon="9.27817">
        <ele>3.02</ele>
        <time>2014-06-06T09:33:22Z</time>
      </trkpt>
      <trkpt lat="41.60579" lon="9.27819">
        <ele>3.98</ele>
        <time>2014-06-06T09:33:30Z</time>
      </trkpt>
      <trkpt lat="41.60586" lon="9.27814">
        <ele>4.94</ele>
        <time>2014-06-06T09:33:32Z</time>
      </trkpt>
      <trkpt lat="41.60587" lon="9.27807">
        <ele>4.46</ele>
        <time>2014-06-06T09:33:33Z</time>
      </trkpt>
      <trkpt lat="41.60587" lon="9.27801">
        <ele>4.46</ele>
        <time>2014-06-06T09:33:34Z</time>
      </trkpt>
      <trkpt lat="41.60585" lon="9.27796">
        <ele>4.94</ele>
        <time>2014-06-06T09:33:35Z</time>
      </trkpt>
      <trkpt lat="41.6058" lon="9.27792">
        <ele>4.94</ele>
        <time>2014-06-06T09:33:36Z</time>
      </trkpt>
      <trkpt lat="41.60576" lon="9.27788">
        <ele>4.94</ele>
        <time>2014-06-06T09:33:37Z</time>
      </trkpt>
      <trkpt lat="41.60562" lon="9.27769">
        <ele>7.83</ele>
        <time>2014-06-06T09:33:45Z</time>
      </trkpt>
      <trkpt lat="41.60566" lon="9.27755">
        <ele>10.23</ele>
        <time>2014-06-06T09:33:54Z</time>
      </trkpt>
      <trkpt lat="41.6057" lon="9.2775">
        <ele>10.23</ele>
        <time>2014-06-06T09:33:55Z</time>
      </trkpt>
      <trkpt lat="41.60575" lon="9.27746">
        <ele>10.23</ele>
        <time>2014-06-06T09:33:56Z</time>
      </trkpt>
      <trkpt lat="41.60582" lon="9.27745">
        <ele>9.75</ele>
        <time>2014-06-06T09:33:57Z</time>
      </trkpt>
      <trkpt lat="41.60589" lon="9.27745">
        <ele>9.75</ele>
        <time>2014-06-06T09:33:58Z</time>
      </trkpt>
      <trkpt lat="41.60597" lon="9.27747">
        <ele>8.79</ele>
        <time>2014-06-06T09:33:59Z</time>
      </trkpt>
      <trkpt lat="41.60606" lon="9.27751">
        <ele>8.79</ele>
        <time>2014-06-06T09:34:00Z</time>
      </trkpt>
      <trkpt lat="41.60616" lon="9.27756">
        <ele>8.31</ele>
        <time>2014-06-06T09:34:01Z</time>
      </trkpt>
      <trkpt lat="41.60647" lon="9.27769">
        <ele>6.87</ele>
        <time>2014-06-06T09:34:04Z</time>
      </trkpt>
      <trkpt lat="41.60659" lon="9.27772">
        <ele>6.87</ele>
        <time>2014-06-06T09:34:05Z</time>
      </trkpt>
      <trkpt lat="41.608" lon="9.2781">
        <ele>8.79</ele>
        <time>2014-06-06T09:34:15Z</time>
      </trkpt>
      <trkpt lat="41.6093" lon="9.27846">
        <ele>11.67</ele>
        <time>2014-06-06T09:34:25Z</time>
      </trkpt>
      <trkpt lat="41.61006" lon="9.2787">
        <ele>10.23</ele>
        <time>2014-06-06T09:34:33Z</time>
      </trkpt>
      <trkpt lat="41.61057" lon="9.27881">
        <ele>9.27</ele>
        <time>2014-06-06T09:34:42Z</time>
      </trkpt>
      <trkpt lat="41.6115" lon="9.27909">
        <ele>15.04</ele>
        <time>2014-06-06T09:34:51Z</time>
      </trkpt>
      <trkpt lat="41.61264" lon="9.2794">
        <ele>17.92</ele>
        <time>2014-06-06T09:35:01Z</time>
      </trkpt>
      <trkpt lat="41.61277" lon="9.27945">
        <ele>18.4</ele>
        <time>2014-06-06T09:35:04Z</time>
      </trkpt>
      <trkpt lat="41.61288" lon="9.27947">
        <ele>18.4</ele>
        <time>2014-06-06T09:35:06Z</time>
      </trkpt>
      <trkpt lat="41.61359" lon="9.27966">
        <ele>23.21</ele>
        <time>2014-06-06T09:35:15Z</time>
      </trkpt>
      <trkpt lat="41.61474" lon="9.28">
        <ele>24.65</ele>
        <time>2014-06-06T09:35:25Z</time>
      </trkpt>
      <trkpt lat="41.61604" lon="9.28057">
        <ele>27.53</ele>
        <time>2014-06-06T09:35:34Z</time>
      </trkpt>
      <trkpt lat="41.61825" lon="9.282">
        <ele>32.82</ele>
        <time>2014-06-06T09:35:49Z</time>
      </trkpt>
      <trkpt lat="41.62079" lon="9.28361">
        <ele>42.44</ele>
        <time>2014-06-06T09:36:05Z</time>
      </trkpt>
      <trkpt lat="41.6228" lon="9.28495">
        <ele>49.65</ele>
        <time>2014-06-06T09:36:18Z</time>
      </trkpt>
      <trkpt lat="41.62292" lon="9.28508">
        <ele>49.65</ele>
        <time>2014-06-06T09:36:19Z</time>
      </trkpt>
      <trkpt lat="41.62302" lon="9.28523">
        <ele>50.13</ele>
        <time>2014-06-06T09:36:20Z</time>
      </trkpt>
      <trkpt lat="41.62309" lon="9.28539">
        <ele>50.13</ele>
        <time>2014-06-06T09:36:21Z</time>
      </trkpt>
      <trkpt lat="41.62313" lon="9.28557">
        <ele>50.61</ele>
        <time>2014-06-06T09:36:22Z</time>
      </trkpt>
      <trkpt lat="41.62315" lon="9.28575">
        <ele>50.13</ele>
        <time>2014-06-06T09:36:23Z</time>
      </trkpt>
      <trkpt lat="41.62314" lon="9.28594">
        <ele>50.61</ele>
        <time>2014-06-06T09:36:24Z</time>
      </trkpt>
      <trkpt lat="41.62311" lon="9.28613">
        <ele>50.61</ele>
        <time>2014-06-06T09:36:25Z</time>
      </trkpt>
      <trkpt lat="41.62306" lon="9.28631">
        <ele>50.13</ele>
        <time>2014-06-06T09:36:26Z</time>
      </trkpt>
      <trkpt lat="41.62283" lon="9.28742">
        <ele>56.86</ele>
        <time>2014-06-06T09:36:32Z</time>
      </trkpt>
      <trkpt lat="41.62284" lon="9.28758">
        <ele>57.82</ele>
        <time>2014-06-06T09:36:33Z</time>
      </trkpt>
      <trkpt lat="41.62286" lon="9.28774">
        <ele>58.3</ele>
        <time>2014-06-06T09:36:34Z</time>
      </trkpt>
      <trkpt lat="41.62291" lon="9.2879">
        <ele>59.26</ele>
        <time>2014-06-06T09:36:35Z</time>
      </trkpt>
      <trkpt lat="41.62297" lon="9.28804">
        <ele>59.74</ele>
        <time>2014-06-06T09:36:36Z</time>
      </trkpt>
      <trkpt lat="41.62305" lon="9.28817">
        <ele>60.22</ele>
        <time>2014-06-06T09:36:37Z</time>
      </trkpt>
      <trkpt lat="41.62313" lon="9.2883">
        <ele>60.7</ele>
        <time>2014-06-06T09:36:38Z</time>
      </trkpt>
      <trkpt lat="41.62322" lon="9.28841">
        <ele>60.7</ele>
        <time>2014-06-06T09:36:39Z</time>
      </trkpt>
      <trkpt lat="41.62332" lon="9.28853">
        <ele>61.18</ele>
        <time>2014-06-06T09:36:40Z</time>
      </trkpt>
      <trkpt lat="41.6239" lon="9.28919">
        <ele>63.58</ele>
        <time>2014-06-06T09:36:48Z</time>
      </trkpt>
      <trkpt lat="41.62393" lon="9.28926">
        <ele>63.58</ele>
        <time>2014-06-06T09:36:49Z</time>
      </trkpt>
      <trkpt lat="41.62396" lon="9.28935">
        <ele>64.07</ele>
        <time>2014-06-06T09:36:50Z</time>
      </trkpt>
      <trkpt lat="41.62397" lon="9.28945">
        <ele>64.07</ele>
        <time>2014-06-06T09:36:51Z</time>
      </trkpt>
      <trkpt lat="41.62396" lon="9.28957">
        <ele>65.03</ele>
        <time>2014-06-06T09:36:52Z</time>
      </trkpt>
      <trkpt lat="41.62394" lon="9.28969">
        <ele>65.03</ele>
        <time>2014-06-06T09:36:53Z</time>
      </trkpt>
      <trkpt lat="41.6239" lon="9.28982">
        <ele>65.51</ele>
        <time>2014-06-06T09:36:54Z</time>
      </trkpt>
      <trkpt lat="41.62384" lon="9.28995">
        <ele>66.47</ele>
        <time>2014-06-06T09:36:55Z</time>
      </trkpt>
      <trkpt lat="41.62378" lon="9.29008">
        <ele>66.95</ele>
        <time>2014-06-06T09:36:56Z</time>
      </trkpt>
      <trkpt lat="41.6237" lon="9.29021">
        <ele>66.95</ele>
        <time>2014-06-06T09:36:57Z</time>
      </trkpt>
      <trkpt lat="41.62362" lon="9.29036">
        <ele>66.95</ele>
        <time>2014-06-06T09:36:58Z</time>
      </trkpt>
      <trkpt lat="41.62293" lon="9.29229">
        <ele>64.07</ele>
        <time>2014-06-06T09:37:08Z</time>
      </trkpt>
      <trkpt lat="41.62267" lon="9.29311">
        <ele>59.74</ele>
        <time>2014-06-06T09:37:12Z</time>
      </trkpt>
      <trkpt lat="41.6226" lon="9.29354">
        <ele>58.3</ele>
        <time>2014-06-06T09:37:14Z</time>
      </trkpt>
      <trkpt lat="41.62259" lon="9.29375">
        <ele>57.82</ele>
        <time>2014-06-06T09:37:15Z</time>
      </trkpt>
      <trkpt lat="41.6226" lon="9.29398">
        <ele>56.86</ele>
        <time>2014-06-06T09:37:16Z</time>
      </trkpt>
      <trkpt lat="41.62263" lon="9.29419">
        <ele>55.89</ele>
        <time>2014-06-06T09:37:17Z</time>
      </trkpt>
      <trkpt lat="41.62268" lon="9.29441">
        <ele>53.97</ele>
        <time>2014-06-06T09:37:18Z</time>
      </trkpt>
      <trkpt lat="41.62274" lon="9.29462">
        <ele>52.05</ele>
        <time>2014-06-06T09:37:19Z</time>
      </trkpt>
      <trkpt lat="41.62283" lon="9.29481">
        <ele>50.61</ele>
        <time>2014-06-06T09:37:20Z</time>
      </trkpt>
      <trkpt lat="41.62293" lon="9.295">
        <ele>50.13</ele>
        <time>2014-06-06T09:37:21Z</time>
      </trkpt>
      <trkpt lat="41.62304" lon="9.29517">
        <ele>48.68</ele>
        <time>2014-06-06T09:37:22Z</time>
      </trkpt>
      <trkpt lat="41.62316" lon="9.29532">
        <ele>47.24</ele>
        <time>2014-06-06T09:37:23Z</time>
      </trkpt>
      <trkpt lat="41.6233" lon="9.29544">
        <ele>45.8</ele>
        <time>2014-06-06T09:37:24Z</time>
      </trkpt>
      <trkpt lat="41.62344" lon="9.29555">
        <ele>43.88</ele>
        <time>2014-06-06T09:37:25Z</time>
      </trkpt>
      <trkpt lat="41.62359" lon="9.29565">
        <ele>42.44</ele>
        <time>2014-06-06T09:37:26Z</time>
      </trkpt>
      <trkpt lat="41.62398" lon="9.29591">
        <ele>37.63</ele>
        <time>2014-06-06T09:37:29Z</time>
      </trkpt>
      <trkpt lat="41.62406" lon="9.29604">
        <ele>37.15</ele>
        <time>2014-06-06T09:37:30Z</time>
      </trkpt>
      <trkpt lat="41.62412" lon="9.29618">
        <ele>35.71</ele>
        <time>2014-06-06T09:37:31Z</time>
      </trkpt>
      <trkpt lat="41.62416" lon="9.29634">
        <ele>33.78</ele>
        <time>2014-06-06T09:37:32Z</time>
      </trkpt>
      <trkpt lat="41.62419" lon="9.29651">
        <ele>32.34</ele>
        <time>2014-06-06T09:37:33Z</time>
      </trkpt>
      <trkpt lat="41.62452" lon="9.2984">
        <ele>21.77</ele>
        <time>2014-06-06T09:37:43Z</time>
      </trkpt>
      <trkpt lat="41.62455" lon="9.2996">
        <ele>19.36</ele>
        <time>2014-06-06T09:37:51Z</time>
      </trkpt>
      <trkpt lat="41.62452" lon="9.29981">
        <ele>19.36</ele>
        <time>2014-06-06T09:37:53Z</time>
      </trkpt>
      <trkpt lat="41.6245" lon="9.29991">
        <ele>19.36</ele>
        <time>2014-06-06T09:37:54Z</time>
      </trkpt>
      <trkpt lat="41.62447" lon="9.30002">
        <ele>19.84</ele>
        <time>2014-06-06T09:37:55Z</time>
      </trkpt>
      <trkpt lat="41.62444" lon="9.30012">
        <ele>19.36</ele>
        <time>2014-06-06T09:37:56Z</time>
      </trkpt>
      <trkpt lat="41.62439" lon="9.3002">
        <ele>19.36</ele>
        <time>2014-06-06T09:37:57Z</time>
      </trkpt>
      <trkpt lat="41.62434" lon="9.30028">
        <ele>18.4</ele>
        <time>2014-06-06T09:37:58Z</time>
      </trkpt>
      <trkpt lat="41.62428" lon="9.30032">
        <ele>17.92</ele>
        <time>2014-06-06T09:37:59Z</time>
      </trkpt>
      <trkpt lat="41.62421" lon="9.30035">
        <ele>17.44</ele>
        <time>2014-06-06T09:38:00Z</time>
      </trkpt>
      <trkpt lat="41.62414" lon="9.30037">
        <ele>16.96</ele>
        <time>2014-06-06T09:38:01Z</time>
      </trkpt>
      <trkpt lat="41.62406" lon="9.30038">
        <ele>16.48</ele>
        <time>2014-06-06T09:38:02Z</time>
      </trkpt>
      <trkpt lat="41.62397" lon="9.30039">
        <ele>16.96</ele>
        <time>2014-06-06T09:38:03Z</time>
      </trkpt>
      <trkpt lat="41.62367" lon="9.30038">
        <ele>18.4</ele>
        <time>2014-06-06T09:38:06Z</time>
      </trkpt>
      <trkpt lat="41.62358" lon="9.30035">
        <ele>18.88</ele>
        <time>2014-06-06T09:38:07Z</time>
      </trkpt>
      <trkpt lat="41.62348" lon="9.30029">
        <ele>17.44</ele>
        <time>2014-06-06T09:38:08Z</time>
      </trkpt>
      <trkpt lat="41.6226" lon="9.29972">
        <ele>19.36</ele>
        <time>2014-06-06T09:38:16Z</time>
      </trkpt>
      <trkpt lat="41.62215" lon="9.2994">
        <ele>20.81</ele>
        <time>2014-06-06T09:38:23Z</time>
      </trkpt>
      <trkpt lat="41.62127" lon="9.29883">
        <ele>21.29</ele>
        <time>2014-06-06T09:38:33Z</time>
      </trkpt>
      <trkpt lat="41.6208" lon="9.29864">
        <ele>21.29</ele>
        <time>2014-06-06T09:38:37Z</time>
      </trkpt>
      <trkpt lat="41.62047" lon="9.2986">
        <ele>20.81</ele>
        <time>2014-06-06T09:38:41Z</time>
      </trkpt>
      <trkpt lat="41.62043" lon="9.29863">
        <ele>20.81</ele>
        <time>2014-06-06T09:38:42Z</time>
      </trkpt>
      <trkpt lat="41.62039" lon="9.29866">
        <ele>21.29</ele>
        <time>2014-06-06T09:38:43Z</time>
      </trkpt>
      <trkpt lat="41.62038" lon="9.2987">
        <ele>20.32</ele>
        <time>2014-06-06T09:38:44Z</time>
      </trkpt>
      <trkpt lat="41.62037" lon="9.29874">
        <ele>21.29</ele>
        <time>2014-06-06T09:38:45Z</time>
      </trkpt>
      <trkpt lat="41.62044" lon="9.2993">
        <ele>19.36</ele>
        <time>2014-06-06T09:39:00Z</time>
      </trkpt>
      <trkpt lat="41.62054" lon="9.29934">
        <ele>19.36</ele>
        <time>2014-06-06T09:39:05Z</time>
      </trkpt>
      <trkpt lat="41.6206" lon="9.29936">
        <ele>19.36</ele>
        <time>2014-06-06T09:39:08Z</time>
      </trkpt>
      <trkpt lat="41.62061" lon="9.29937">
        <ele>18.88</ele>
        <time>2014-06-06T09:39:28Z</time>
      </trkpt>
      <trkpt lat="41.62062" lon="9.29925">
        <ele>28.02</ele>
        <time>2014-06-06T11:47:15Z</time>
      </trkpt>
      <trkpt lat="41.6208" lon="9.29931">
        <ele>5.42</ele>
        <time>2014-06-06T11:47:47Z</time>
      </trkpt>
      <trkpt lat="41.6208" lon="9.29933">
        <ele>5.42</ele>
        <time>2014-06-06T11:48:18Z</time>
      </trkpt>
      <trkpt lat="41.6208" lon="9.29933">
        <ele>5.42</ele>
        <time>2014-06-06T11:48:20Z</time>
      </trkpt>
      <trkpt lat="41.62067" lon="9.2993">
        <ele>5.42</ele>
        <time>2014-06-06T11:48:34Z</time>
      </trkpt>
      <trkpt lat="41.62055" lon="9.29934">
        <ele>2.06</ele>
        <time>2014-06-06T11:48:40Z</time>
      </trkpt>
      <trkpt lat="41.62047" lon="9.29876">
        <ele>6.39</ele>
        <time>2014-06-06T11:48:50Z</time>
      </trkpt>
      <trkpt lat="41.62051" lon="9.29864">
        <ele>7.83</ele>
        <time>2014-06-06T11:48:53Z</time>
      </trkpt>
      <trkpt lat="41.62053" lon="9.29862">
        <ele>8.31</ele>
        <time>2014-06-06T11:48:54Z</time>
      </trkpt>
      <trkpt lat="41.62056" lon="9.29862">
        <ele>7.83</ele>
        <time>2014-06-06T11:48:55Z</time>
      </trkpt>
      <trkpt lat="41.62079" lon="9.29863">
        <ele>7.83</ele>
        <time>2014-06-06T11:48:58Z</time>
      </trkpt>
      <trkpt lat="41.62089" lon="9.29865">
        <ele>7.35</ele>
        <time>2014-06-06T11:48:59Z</time>
      </trkpt>
      <trkpt lat="41.62187" lon="9.29913">
        <ele>5.91</ele>
        <time>2014-06-06T11:49:08Z</time>
      </trkpt>
      <trkpt lat="41.62293" lon="9.29984">
        <ele>9.27</ele>
        <time>2014-06-06T11:49:18Z</time>
      </trkpt>
      <trkpt lat="41.62369" lon="9.30036">
        <ele>10.71</ele>
        <time>2014-06-06T11:49:25Z</time>
      </trkpt>
      <trkpt lat="41.62379" lon="9.30039">
        <ele>10.71</ele>
        <time>2014-06-06T11:49:26Z</time>
      </trkpt>
      <trkpt lat="41.6239" lon="9.30037">
        <ele>9.75</ele>
        <time>2014-06-06T11:49:27Z</time>
      </trkpt>
      <trkpt lat="41.62423" lon="9.30031">
        <ele>8.31</ele>
        <time>2014-06-06T11:49:30Z</time>
      </trkpt>
      <trkpt lat="41.62432" lon="9.30027">
        <ele>7.83</ele>
        <time>2014-06-06T11:49:31Z</time>
      </trkpt>
      <trkpt lat="41.6244" lon="9.30023">
        <ele>7.83</ele>
        <time>2014-06-06T11:49:32Z</time>
      </trkpt>
      <trkpt lat="41.62446" lon="9.30015">
        <ele>6.39</ele>
        <time>2014-06-06T11:49:33Z</time>
      </trkpt>
      <trkpt lat="41.6245" lon="9.3001">
        <ele>6.87</ele>
        <time>2014-06-06T11:49:34Z</time>
      </trkpt>
      <trkpt lat="41.62453" lon="9.30007">
        <ele>6.87</ele>
        <time>2014-06-06T11:49:35Z</time>
      </trkpt>
      <trkpt lat="41.62455" lon="9.30003">
        <ele>6.87</ele>
        <time>2014-06-06T11:49:36Z</time>
      </trkpt>
      <trkpt lat="41.62471" lon="9.29991">
        <ele>10.23</ele>
        <time>2014-06-06T11:49:41Z</time>
      </trkpt>
      <trkpt lat="41.62474" lon="9.29986">
        <ele>10.23</ele>
        <time>2014-06-06T11:49:42Z</time>
      </trkpt>
      <trkpt lat="41.62475" lon="9.29979">
        <ele>10.71</ele>
        <time>2014-06-06T11:49:43Z</time>
      </trkpt>
      <trkpt lat="41.62474" lon="9.29971">
        <ele>10.71</ele>
        <time>2014-06-06T11:49:44Z</time>
      </trkpt>
      <trkpt lat="41.6247" lon="9.29961">
        <ele>11.67</ele>
        <time>2014-06-06T11:49:45Z</time>
      </trkpt>
      <trkpt lat="41.62468" lon="9.29949">
        <ele>12.63</ele>
        <time>2014-06-06T11:49:46Z</time>
      </trkpt>
      <trkpt lat="41.62469" lon="9.2992">
        <ele>13.6</ele>
        <time>2014-06-06T11:49:48Z</time>
      </trkpt>
      <trkpt lat="41.6246" lon="9.29756">
        <ele>19.84</ele>
        <time>2014-06-06T11:49:59Z</time>
      </trkpt>
      <trkpt lat="41.6244" lon="9.29627">
        <ele>25.13</ele>
        <time>2014-06-06T11:50:09Z</time>
      </trkpt>
      <trkpt lat="41.62432" lon="9.29583">
        <ele>28.02</ele>
        <time>2014-06-06T11:50:12Z</time>
      </trkpt>
      <trkpt lat="41.62425" lon="9.29571">
        <ele>29.46</ele>
        <time>2014-06-06T11:50:13Z</time>
      </trkpt>
      <trkpt lat="41.62415" lon="9.29562">
        <ele>29.46</ele>
        <time>2014-06-06T11:50:14Z</time>
      </trkpt>
      <trkpt lat="41.62402" lon="9.29556">
        <ele>29.94</ele>
        <time>2014-06-06T11:50:15Z</time>
      </trkpt>
      <trkpt lat="41.62388" lon="9.2955">
        <ele>29.46</ele>
        <time>2014-06-06T11:50:16Z</time>
      </trkpt>
      <trkpt lat="41.62374" lon="9.29544">
        <ele>29.94</ele>
        <time>2014-06-06T11:50:17Z</time>
      </trkpt>
      <trkpt lat="41.62322" lon="9.29512">
        <ele>36.67</ele>
        <time>2014-06-06T11:50:21Z</time>
      </trkpt>
      <trkpt lat="41.62312" lon="9.29501">
        <ele>38.11</ele>
        <time>2014-06-06T11:50:22Z</time>
      </trkpt>
      <trkpt lat="41.62302" lon="9.29487">
        <ele>39.07</ele>
        <time>2014-06-06T11:50:23Z</time>
      </trkpt>
      <trkpt lat="41.62294" lon="9.29473">
        <ele>40.51</ele>
        <time>2014-06-06T11:50:24Z</time>
      </trkpt>
      <trkpt lat="41.62286" lon="9.29456">
        <ele>41.95</ele>
        <time>2014-06-06T11:50:25Z</time>
      </trkpt>
      <trkpt lat="41.6228" lon="9.29438">
        <ele>42.92</ele>
        <time>2014-06-06T11:50:26Z</time>
      </trkpt>
      <trkpt lat="41.62274" lon="9.29419">
        <ele>44.36</ele>
        <time>2014-06-06T11:50:27Z</time>
      </trkpt>
      <trkpt lat="41.62271" lon="9.294">
        <ele>45.8</ele>
        <time>2014-06-06T11:50:28Z</time>
      </trkpt>
      <trkpt lat="41.62269" lon="9.29379">
        <ele>46.76</ele>
        <time>2014-06-06T11:50:29Z</time>
      </trkpt>
      <trkpt lat="41.62269" lon="9.29359">
        <ele>47.72</ele>
        <time>2014-06-06T11:50:30Z</time>
      </trkpt>
      <trkpt lat="41.6227" lon="9.29338">
        <ele>48.2</ele>
        <time>2014-06-06T11:50:31Z</time>
      </trkpt>
      <trkpt lat="41.62274" lon="9.29318">
        <ele>49.65</ele>
        <time>2014-06-06T11:50:32Z</time>
      </trkpt>
      <trkpt lat="41.62278" lon="9.293">
        <ele>50.13</ele>
        <time>2014-06-06T11:50:33Z</time>
      </trkpt>
      <trkpt lat="41.62283" lon="9.29283">
        <ele>51.09</ele>
        <time>2014-06-06T11:50:34Z</time>
      </trkpt>
      <trkpt lat="41.62331" lon="9.29138">
        <ele>58.78</ele>
        <time>2014-06-06T11:50:42Z</time>
      </trkpt>
      <trkpt lat="41.62383" lon="9.28998">
        <ele>61.18</ele>
        <time>2014-06-06T11:50:51Z</time>
      </trkpt>
      <trkpt lat="41.62404" lon="9.28965">
        <ele>60.22</ele>
        <time>2014-06-06T11:50:57Z</time>
      </trkpt>
      <trkpt lat="41.62412" lon="9.28953">
        <ele>61.18</ele>
        <time>2014-06-06T11:51:09Z</time>
      </trkpt>
      <trkpt lat="41.62416" lon="9.28946">
        <ele>56.86</ele>
        <time>2014-06-06T11:51:18Z</time>
      </trkpt>
      <trkpt lat="41.62423" lon="9.28931">
        <ele>55.89</ele>
        <time>2014-06-06T11:51:21Z</time>
      </trkpt>
      <trkpt lat="41.62422" lon="9.28924">
        <ele>55.89</ele>
        <time>2014-06-06T11:51:22Z</time>
      </trkpt>
      <trkpt lat="41.62419" lon="9.28919">
        <ele>56.37</ele>
        <time>2014-06-06T11:51:23Z</time>
      </trkpt>
      <trkpt lat="41.62414" lon="9.28915">
        <ele>56.37</ele>
        <time>2014-06-06T11:51:24Z</time>
      </trkpt>
      <trkpt lat="41.62408" lon="9.28912">
        <ele>55.89</ele>
        <time>2014-06-06T11:51:25Z</time>
      </trkpt>
      <trkpt lat="41.62394" lon="9.28901">
        <ele>54.45</ele>
        <time>2014-06-06T11:51:27Z</time>
      </trkpt>
      <trkpt lat="41.62323" lon="9.2883">
        <ele>51.09</ele>
        <time>2014-06-06T11:51:35Z</time>
      </trkpt>
      <trkpt lat="41.62313" lon="9.28818">
        <ele>50.61</ele>
        <time>2014-06-06T11:51:36Z</time>
      </trkpt>
      <trkpt lat="41.62304" lon="9.28803">
        <ele>50.61</ele>
        <time>2014-06-06T11:51:37Z</time>
      </trkpt>
      <trkpt lat="41.62297" lon="9.28789">
        <ele>50.13</ele>
        <time>2014-06-06T11:51:38Z</time>
      </trkpt>
      <trkpt lat="41.62291" lon="9.28773">
        <ele>49.65</ele>
        <time>2014-06-06T11:51:39Z</time>
      </trkpt>
      <trkpt lat="41.62287" lon="9.28758">
        <ele>49.65</ele>
        <time>2014-06-06T11:51:40Z</time>
      </trkpt>
      <trkpt lat="41.62284" lon="9.2874">
        <ele>49.16</ele>
        <time>2014-06-06T11:51:41Z</time>
      </trkpt>
      <trkpt lat="41.62285" lon="9.28722">
        <ele>48.2</ele>
        <time>2014-06-06T11:51:42Z</time>
      </trkpt>
      <trkpt lat="41.62287" lon="9.28705">
        <ele>47.72</ele>
        <time>2014-06-06T11:51:43Z</time>
      </trkpt>
      <trkpt lat="41.62291" lon="9.28688">
        <ele>47.24</ele>
        <time>2014-06-06T11:51:44Z</time>
      </trkpt>
      <trkpt lat="41.62296" lon="9.28671">
        <ele>46.28</ele>
        <time>2014-06-06T11:51:45Z</time>
      </trkpt>
      <trkpt lat="41.62319" lon="9.28588">
        <ele>42.92</ele>
        <time>2014-06-06T11:51:50Z</time>
      </trkpt>
      <trkpt lat="41.62319" lon="9.28573">
        <ele>40.99</ele>
        <time>2014-06-06T11:51:51Z</time>
      </trkpt>
      <trkpt lat="41.62319" lon="9.28555">
        <ele>40.99</ele>
        <time>2014-06-06T11:51:52Z</time>
      </trkpt>
      <trkpt lat="41.62318" lon="9.28537">
        <ele>40.99</ele>
        <time>2014-06-06T11:51:53Z</time>
      </trkpt>
      <trkpt lat="41.62313" lon="9.28522">
        <ele>40.51</ele>
        <time>2014-06-06T11:51:54Z</time>
      </trkpt>
      <trkpt lat="41.62306" lon="9.28508">
        <ele>40.03</ele>
        <time>2014-06-06T11:51:55Z</time>
      </trkpt>
      <trkpt lat="41.62297" lon="9.28495">
        <ele>39.55</ele>
        <time>2014-06-06T11:51:56Z</time>
      </trkpt>
      <trkpt lat="41.62287" lon="9.28485">
        <ele>39.55</ele>
        <time>2014-06-06T11:51:57Z</time>
      </trkpt>
      <trkpt lat="41.62276" lon="9.28475">
        <ele>39.07</ele>
        <time>2014-06-06T11:51:58Z</time>
      </trkpt>
      <trkpt lat="41.62263" lon="9.28467">
        <ele>38.59</ele>
        <time>2014-06-06T11:51:59Z</time>
      </trkpt>
      <trkpt lat="41.6211" lon="9.28375">
        <ele>32.34</ele>
        <time>2014-06-06T11:52:10Z</time>
      </trkpt>
      <trkpt lat="41.6192" lon="9.28256">
        <ele>22.73</ele>
        <time>2014-06-06T11:52:24Z</time>
      </trkpt>
      <trkpt lat="41.6166" lon="9.2809">
        <ele>14.56</ele>
        <time>2014-06-06T11:52:43Z</time>
      </trkpt>
      <trkpt lat="41.61516" lon="9.28007">
        <ele>12.15</ele>
        <time>2014-06-06T11:52:54Z</time>
      </trkpt>
      <trkpt lat="41.61301" lon="9.27948">
        <ele>8.79</ele>
        <time>2014-06-06T11:53:11Z</time>
      </trkpt>
      <trkpt lat="41.61162" lon="9.27909">
        <ele>3.5</ele>
        <time>2014-06-06T11:53:22Z</time>
      </trkpt>
      <trkpt lat="41.60975" lon="9.27856">
        <ele>2.54</ele>
        <time>2014-06-06T11:53:37Z</time>
      </trkpt>
      <trkpt lat="41.6082" lon="9.27812">
        <ele>2.54</ele>
        <time>2014-06-06T11:53:49Z</time>
      </trkpt>
      <trkpt lat="41.60649" lon="9.27762">
        <ele>1.1</ele>
        <time>2014-06-06T11:54:03Z</time>
      </trkpt>
      <trkpt lat="41.6059" lon="9.27723">
        <ele>4.46</ele>
        <time>2014-06-06T11:54:10Z</time>
      </trkpt>
      <trkpt lat="41.60587" lon="9.27715">
        <ele>3.98</ele>
        <time>2014-06-06T11:54:11Z</time>
      </trkpt>
      <trkpt lat="41.60547" lon="9.27622">
        <ele>2.54</ele>
        <time>2014-06-06T11:54:18Z</time>
      </trkpt>
      <trkpt lat="41.60538" lon="9.27603">
        <ele>2.54</ele>
        <time>2014-06-06T11:54:19Z</time>
      </trkpt>
      <trkpt lat="41.6046" lon="9.2743">
        <ele>2.06</ele>
        <time>2014-06-06T11:54:27Z</time>
      </trkpt>
      <trkpt lat="41.6039" lon="9.27163">
        <ele>1.58</ele>
        <time>2014-06-06T11:54:37Z</time>
      </trkpt>
      <trkpt lat="41.60308" lon="9.27005">
        <ele>2.06</ele>
        <time>2014-06-06T11:54:44Z</time>
      </trkpt>
      <trkpt lat="41.60232" lon="9.26921">
        <ele>5.42</ele>
        <time>2014-06-06T11:54:51Z</time>
      </trkpt>
      <trkpt lat="41.60225" lon="9.26911">
        <ele>5.91</ele>
        <time>2014-06-06T11:54:52Z</time>
      </trkpt>
      <trkpt lat="41.60219" lon="9.26901">
        <ele>6.39</ele>
        <time>2014-06-06T11:54:53Z</time>
      </trkpt>
      <trkpt lat="41.60215" lon="9.26891">
        <ele>6.39</ele>
        <time>2014-06-06T11:54:54Z</time>
      </trkpt>
      <trkpt lat="41.60204" lon="9.26872">
        <ele>6.87</ele>
        <time>2014-06-06T11:54:56Z</time>
      </trkpt>
      <trkpt lat="41.60196" lon="9.26868">
        <ele>7.35</ele>
        <time>2014-06-06T11:54:57Z</time>
      </trkpt>
      <trkpt lat="41.60187" lon="9.26866">
        <ele>7.83</ele>
        <time>2014-06-06T11:54:58Z</time>
      </trkpt>
      <trkpt lat="41.60156" lon="9.26855">
        <ele>8.31</ele>
        <time>2014-06-06T11:55:01Z</time>
      </trkpt>
      <trkpt lat="41.60036" lon="9.26793">
        <ele>8.79</ele>
        <time>2014-06-06T11:55:11Z</time>
      </trkpt>
      <trkpt lat="41.59909" lon="9.26744">
        <ele>7.35</ele>
        <time>2014-06-06T11:55:21Z</time>
      </trkpt>
      <trkpt lat="41.59852" lon="9.2672">
        <ele>6.87</ele>
        <time>2014-06-06T11:55:28Z</time>
      </trkpt>
      <trkpt lat="41.59837" lon="9.26706">
        <ele>9.27</ele>
        <time>2014-06-06T11:55:34Z</time>
      </trkpt>
      <trkpt lat="41.59833" lon="9.26701">
        <ele>10.71</ele>
        <time>2014-06-06T11:55:35Z</time>
      </trkpt>
      <trkpt lat="41.5983" lon="9.26694">
        <ele>10.71</ele>
        <time>2014-06-06T11:55:36Z</time>
      </trkpt>
      <trkpt lat="41.59827" lon="9.26686">
        <ele>11.19</ele>
        <time>2014-06-06T11:55:37Z</time>
      </trkpt>
      <trkpt lat="41.59824" lon="9.26678">
        <ele>11.19</ele>
        <time>2014-06-06T11:55:38Z</time>
      </trkpt>
      <trkpt lat="41.59818" lon="9.26673">
        <ele>11.19</ele>
        <time>2014-06-06T11:55:39Z</time>
      </trkpt>
      <trkpt lat="41.5981" lon="9.26671">
        <ele>11.67</ele>
        <time>2014-06-06T11:55:40Z</time>
      </trkpt>
      <trkpt lat="41.59802" lon="9.26672">
        <ele>11.19</ele>
        <time>2014-06-06T11:55:41Z</time>
      </trkpt>
      <trkpt lat="41.59793" lon="9.26676">
        <ele>11.19</ele>
        <time>2014-06-06T11:55:42Z</time>
      </trkpt>
      <trkpt lat="41.59783" lon="9.26679">
        <ele>11.19</ele>
        <time>2014-06-06T11:55:43Z</time>
      </trkpt>
      <trkpt lat="41.5977" lon="9.2668">
        <ele>11.67</ele>
        <time>2014-06-06T11:55:44Z</time>
      </trkpt>
      <trkpt lat="41.59758" lon="9.26678">
        <ele>11.67</ele>
        <time>2014-06-06T11:55:45Z</time>
      </trkpt>
      <trkpt lat="41.59745" lon="9.26674">
        <ele>12.63</ele>
        <time>2014-06-06T11:55:46Z</time>
      </trkpt>
      <trkpt lat="41.59623" lon="9.26623">
        <ele>16.96</ele>
        <time>2014-06-06T11:55:55Z</time>
      </trkpt>
      <trkpt lat="41.5945" lon="9.26544">
        <ele>24.17</ele>
        <time>2014-06-06T11:56:06Z</time>
      </trkpt>
      <trkpt lat="41.5933" lon="9.26481">
        <ele>27.05</ele>
        <time>2014-06-06T11:56:15Z</time>
      </trkpt>
      <trkpt lat="41.59269" lon="9.26445">
        <ele>26.57</ele>
        <time>2014-06-06T11:56:23Z</time>
      </trkpt>
      <trkpt lat="41.59264" lon="9.26438">
        <ele>27.05</ele>
        <time>2014-06-06T11:56:24Z</time>
      </trkpt>
      <trkpt lat="41.59259" lon="9.2643">
        <ele>27.53</ele>
        <time>2014-06-06T11:56:25Z</time>
      </trkpt>
      <trkpt lat="41.5925" lon="9.26416">
        <ele>28.02</ele>
        <time>2014-06-06T11:56:27Z</time>
      </trkpt>
      <trkpt lat="41.59243" lon="9.26414">
        <ele>28.02</ele>
        <time>2014-06-06T11:56:28Z</time>
      </trkpt>
      <trkpt lat="41.59235" lon="9.26414">
        <ele>28.02</ele>
        <time>2014-06-06T11:56:29Z</time>
      </trkpt>
      <trkpt lat="41.59206" lon="9.2641">
        <ele>28.98</ele>
        <time>2014-06-06T11:56:32Z</time>
      </trkpt>
      <trkpt lat="41.59193" lon="9.26404">
        <ele>29.46</ele>
        <time>2014-06-06T11:56:33Z</time>
      </trkpt>
      <trkpt lat="41.5906" lon="9.2633">
        <ele>26.57</ele>
        <time>2014-06-06T11:56:42Z</time>
      </trkpt>
      <trkpt lat="41.58886" lon="9.26264">
        <ele>24.17</ele>
        <time>2014-06-06T11:56:51Z</time>
      </trkpt>
      <trkpt lat="41.5872" lon="9.2626">
        <ele>21.77</ele>
        <time>2014-06-06T11:57:00Z</time>
      </trkpt>
      <trkpt lat="41.58587" lon="9.26304">
        <ele>21.29</ele>
        <time>2014-06-06T11:57:08Z</time>
      </trkpt>
      <trkpt lat="41.58442" lon="9.26404">
        <ele>19.36</ele>
        <time>2014-06-06T11:57:18Z</time>
      </trkpt>
      <trkpt lat="41.58334" lon="9.26533">
        <ele>18.88</ele>
        <time>2014-06-06T11:57:29Z</time>
      </trkpt>
      <trkpt lat="41.58312" lon="9.26567">
        <ele>18.88</ele>
        <time>2014-06-06T11:57:33Z</time>
      </trkpt>
      <trkpt lat="41.58306" lon="9.26573">
        <ele>18.88</ele>
        <time>2014-06-06T11:57:34Z</time>
      </trkpt>
      <trkpt lat="41.583" lon="9.26577">
        <ele>18.4</ele>
        <time>2014-06-06T11:57:35Z</time>
      </trkpt>
      <trkpt lat="41.58286" lon="9.26585">
        <ele>18.88</ele>
        <time>2014-06-06T11:57:37Z</time>
      </trkpt>
      <trkpt lat="41.58282" lon="9.26593">
        <ele>18.4</ele>
        <time>2014-06-06T11:57:38Z</time>
      </trkpt>
      <trkpt lat="41.5828" lon="9.26603">
        <ele>18.4</ele>
        <time>2014-06-06T11:57:39Z</time>
      </trkpt>
      <trkpt lat="41.5827" lon="9.26641">
        <ele>18.4</ele>
        <time>2014-06-06T11:57:42Z</time>
      </trkpt>
      <trkpt lat="41.58263" lon="9.26658">
        <ele>17.92</ele>
        <time>2014-06-06T11:57:43Z</time>
      </trkpt>
      <trkpt lat="41.5817" lon="9.26861">
        <ele>16</ele>
        <time>2014-06-06T11:57:54Z</time>
      </trkpt>
      <trkpt lat="41.58086" lon="9.27057">
        <ele>12.15</ele>
        <time>2014-06-06T11:58:05Z</time>
      </trkpt>
      <trkpt lat="41.57986" lon="9.2724">
        <ele>8.31</ele>
        <time>2014-06-06T11:58:15Z</time>
      </trkpt>
      <trkpt lat="41.57891" lon="9.27321">
        <ele>6.87</ele>
        <time>2014-06-06T11:58:22Z</time>
      </trkpt>
      <trkpt lat="41.57783" lon="9.27366">
        <ele>4.94</ele>
        <time>2014-06-06T11:58:30Z</time>
      </trkpt>
      <trkpt lat="41.57773" lon="9.27374">
        <ele>4.94</ele>
        <time>2014-06-06T11:58:31Z</time>
      </trkpt>
      <trkpt lat="41.57763" lon="9.27384">
        <ele>4.94</ele>
        <time>2014-06-06T11:58:32Z</time>
      </trkpt>
      <trkpt lat="41.57755" lon="9.27396">
        <ele>5.42</ele>
        <time>2014-06-06T11:58:33Z</time>
      </trkpt>
      <trkpt lat="41.57747" lon="9.27407">
        <ele>5.91</ele>
        <time>2014-06-06T11:58:34Z</time>
      </trkpt>
      <trkpt lat="41.5774" lon="9.27419">
        <ele>6.39</ele>
        <time>2014-06-06T11:58:35Z</time>
      </trkpt>
      <trkpt lat="41.57733" lon="9.2743">
        <ele>6.39</ele>
        <time>2014-06-06T11:58:36Z</time>
      </trkpt>
      <trkpt lat="41.57725" lon="9.2744">
        <ele>6.39</ele>
        <time>2014-06-06T11:58:37Z</time>
      </trkpt>
      <trkpt lat="41.57715" lon="9.27449">
        <ele>6.39</ele>
        <time>2014-06-06T11:58:38Z</time>
      </trkpt>
      <trkpt lat="41.57705" lon="9.27457">
        <ele>6.39</ele>
        <time>2014-06-06T11:58:39Z</time>
      </trkpt>
      <trkpt lat="41.57694" lon="9.27463">
        <ele>6.87</ele>
        <time>2014-06-06T11:58:40Z</time>
      </trkpt>
      <trkpt lat="41.57683" lon="9.27467">
        <ele>5.91</ele>
        <time>2014-06-06T11:58:41Z</time>
      </trkpt>
      <trkpt lat="41.5767" lon="9.2747">
        <ele>5.42</ele>
        <time>2014-06-06T11:58:42Z</time>
      </trkpt>
      <trkpt lat="41.57657" lon="9.27471">
        <ele>4.46</ele>
        <time>2014-06-06T11:58:43Z</time>
      </trkpt>
      <trkpt lat="41.57642" lon="9.2747">
        <ele>5.42</ele>
        <time>2014-06-06T11:58:44Z</time>
      </trkpt>
      <trkpt lat="41.57627" lon="9.27468">
        <ele>5.91</ele>
        <time>2014-06-06T11:58:45Z</time>
      </trkpt>
      <trkpt lat="41.57518" lon="9.27453">
        <ele>7.35</ele>
        <time>2014-06-06T11:58:51Z</time>
      </trkpt>
      <trkpt lat="41.5735" lon="9.27432">
        <ele>6.39</ele>
        <time>2014-06-06T11:58:59Z</time>
      </trkpt>
      <trkpt lat="41.57218" lon="9.27418">
        <ele>4.94</ele>
        <time>2014-06-06T11:59:07Z</time>
      </trkpt>
      <trkpt lat="41.5721" lon="9.27413">
        <ele>5.42</ele>
        <time>2014-06-06T11:59:08Z</time>
      </trkpt>
      <trkpt lat="41.57203" lon="9.27406">
        <ele>5.42</ele>
        <time>2014-06-06T11:59:09Z</time>
      </trkpt>
      <trkpt lat="41.57198" lon="9.27396">
        <ele>4.94</ele>
        <time>2014-06-06T11:59:10Z</time>
      </trkpt>
      <trkpt lat="41.57195" lon="9.27383">
        <ele>4.94</ele>
        <time>2014-06-06T11:59:11Z</time>
      </trkpt>
      <trkpt lat="41.57192" lon="9.27367">
        <ele>4.46</ele>
        <time>2014-06-06T11:59:12Z</time>
      </trkpt>
      <trkpt lat="41.57182" lon="9.27343">
        <ele>4.94</ele>
        <time>2014-06-06T11:59:14Z</time>
      </trkpt>
      <trkpt lat="41.57173" lon="9.27335">
        <ele>4.46</ele>
        <time>2014-06-06T11:59:15Z</time>
      </trkpt>
      <trkpt lat="41.57163" lon="9.27331">
        <ele>4.94</ele>
        <time>2014-06-06T11:59:16Z</time>
      </trkpt>
      <trkpt lat="41.57152" lon="9.27327">
        <ele>4.94</ele>
        <time>2014-06-06T11:59:17Z</time>
      </trkpt>
      <trkpt lat="41.57139" lon="9.27324">
        <ele>5.42</ele>
        <time>2014-06-06T11:59:18Z</time>
      </trkpt>
      <trkpt lat="41.57115" lon="9.27313">
        <ele>5.42</ele>
        <time>2014-06-06T11:59:20Z</time>
      </trkpt>
      <trkpt lat="41.57104" lon="9.27305">
        <ele>5.42</ele>
        <time>2014-06-06T11:59:21Z</time>
      </trkpt>
      <trkpt lat="41.57093" lon="9.27294">
        <ele>4.94</ele>
        <time>2014-06-06T11:59:22Z</time>
      </trkpt>
      <trkpt lat="41.56989" lon="9.27175">
        <ele>3.5</ele>
        <time>2014-06-06T11:59:31Z</time>
      </trkpt>
      <trkpt lat="41.5698" lon="9.27157">
        <ele>3.5</ele>
        <time>2014-06-06T11:59:32Z</time>
      </trkpt>
      <trkpt lat="41.56972" lon="9.27139">
        <ele>3.5</ele>
        <time>2014-06-06T11:59:33Z</time>
      </trkpt>
      <trkpt lat="41.56965" lon="9.27119">
        <ele>3.5</ele>
        <time>2014-06-06T11:59:34Z</time>
      </trkpt>
      <trkpt lat="41.56959" lon="9.27098">
        <ele>3.5</ele>
        <time>2014-06-06T11:59:35Z</time>
      </trkpt>
      <trkpt lat="41.56954" lon="9.27076">
        <ele>3.5</ele>
        <time>2014-06-06T11:59:36Z</time>
      </trkpt>
      <trkpt lat="41.56903" lon="9.26835">
        <ele>4.46</ele>
        <time>2014-06-06T11:59:46Z</time>
      </trkpt>
      <trkpt lat="41.56844" lon="9.26548">
        <ele>4.94</ele>
        <time>2014-06-06T11:59:57Z</time>
      </trkpt>
      <trkpt lat="41.56808" lon="9.26314">
        <ele>3.5</ele>
        <time>2014-06-06T12:00:07Z</time>
      </trkpt>
      <trkpt lat="41.5678" lon="9.26038">
        <ele>4.94</ele>
        <time>2014-06-06T12:00:18Z</time>
      </trkpt>
      <trkpt lat="41.56744" lon="9.25689">
        <ele>4.94</ele>
        <time>2014-06-06T12:00:31Z</time>
      </trkpt>
      <trkpt lat="41.56732" lon="9.25573">
        <ele>4.46</ele>
        <time>2014-06-06T12:00:36Z</time>
      </trkpt>
      <trkpt lat="41.56727" lon="9.25553">
        <ele>4.94</ele>
        <time>2014-06-06T12:00:37Z</time>
      </trkpt>
      <trkpt lat="41.56672" lon="9.25395">
        <ele>4.46</ele>
        <time>2014-06-06T12:00:45Z</time>
      </trkpt>
      <trkpt lat="41.56671" lon="9.25376">
        <ele>4.46</ele>
        <time>2014-06-06T12:00:46Z</time>
      </trkpt>
      <trkpt lat="41.56672" lon="9.25356">
        <ele>4.46</ele>
        <time>2014-06-06T12:00:47Z</time>
      </trkpt>
      <trkpt lat="41.56691" lon="9.25179">
        <ele>7.35</ele>
        <time>2014-06-06T12:00:55Z</time>
      </trkpt>
      <trkpt lat="41.5669" lon="9.25133">
        <ele>7.35</ele>
        <time>2014-06-06T12:00:57Z</time>
      </trkpt>
      <trkpt lat="41.56687" lon="9.25108">
        <ele>7.35</ele>
        <time>2014-06-06T12:00:58Z</time>
      </trkpt>
      <trkpt lat="41.56663" lon="9.24908">
        <ele>11.67</ele>
        <time>2014-06-06T12:01:05Z</time>
      </trkpt>
      <trkpt lat="41.56636" lon="9.24712">
        <ele>17.92</ele>
        <time>2014-06-06T12:01:13Z</time>
      </trkpt>
      <trkpt lat="41.56625" lon="9.24674">
        <ele>18.88</ele>
        <time>2014-06-06T12:01:15Z</time>
      </trkpt>
      <trkpt lat="41.56616" lon="9.24656">
        <ele>18.88</ele>
        <time>2014-06-06T12:01:16Z</time>
      </trkpt>
      <trkpt lat="41.56607" lon="9.24641">
        <ele>20.32</ele>
        <time>2014-06-06T12:01:17Z</time>
      </trkpt>
      <trkpt lat="41.56595" lon="9.24628">
        <ele>20.81</ele>
        <time>2014-06-06T12:01:18Z</time>
      </trkpt>
      <trkpt lat="41.56583" lon="9.24615">
        <ele>21.29</ele>
        <time>2014-06-06T12:01:19Z</time>
      </trkpt>
      <trkpt lat="41.5655" lon="9.24576">
        <ele>23.21</ele>
        <time>2014-06-06T12:01:22Z</time>
      </trkpt>
      <trkpt lat="41.56542" lon="9.2456">
        <ele>23.69</ele>
        <time>2014-06-06T12:01:23Z</time>
      </trkpt>
      <trkpt lat="41.56535" lon="9.24542">
        <ele>24.65</ele>
        <time>2014-06-06T12:01:24Z</time>
      </trkpt>
      <trkpt lat="41.5649" lon="9.24363">
        <ele>28.98</ele>
        <time>2014-06-06T12:01:34Z</time>
      </trkpt>
      <trkpt lat="41.56468" lon="9.2429">
        <ele>29.46</ele>
        <time>2014-06-06T12:01:39Z</time>
      </trkpt>
      <trkpt lat="41.56404" lon="9.24202">
        <ele>28.5</ele>
        <time>2014-06-06T12:01:47Z</time>
      </trkpt>
      <trkpt lat="41.56331" lon="9.24117">
        <ele>28.98</ele>
        <time>2014-06-06T12:01:56Z</time>
      </trkpt>
      <trkpt lat="41.56264" lon="9.24038">
        <ele>34.74</ele>
        <time>2014-06-06T12:02:03Z</time>
      </trkpt>
      <trkpt lat="41.56242" lon="9.24012">
        <ele>36.19</ele>
        <time>2014-06-06T12:02:06Z</time>
      </trkpt>
      <trkpt lat="41.56179" lon="9.23956">
        <ele>35.23</ele>
        <time>2014-06-06T12:02:14Z</time>
      </trkpt>
      <trkpt lat="41.56173" lon="9.23944">
        <ele>33.3</ele>
        <time>2014-06-06T12:02:15Z</time>
      </trkpt>
      <trkpt lat="41.56168" lon="9.2393">
        <ele>32.82</ele>
        <time>2014-06-06T12:02:16Z</time>
      </trkpt>
      <trkpt lat="41.56165" lon="9.23914">
        <ele>32.34</ele>
        <time>2014-06-06T12:02:17Z</time>
      </trkpt>
      <trkpt lat="41.56164" lon="9.23897">
        <ele>30.9</ele>
        <time>2014-06-06T12:02:18Z</time>
      </trkpt>
      <trkpt lat="41.56164" lon="9.23879">
        <ele>29.94</ele>
        <time>2014-06-06T12:02:19Z</time>
      </trkpt>
      <trkpt lat="41.56167" lon="9.23704">
        <ele>26.57</ele>
        <time>2014-06-06T12:02:27Z</time>
      </trkpt>
      <trkpt lat="41.5618" lon="9.23522">
        <ele>23.21</ele>
        <time>2014-06-06T12:02:34Z</time>
      </trkpt>
      <trkpt lat="41.56178" lon="9.235">
        <ele>22.25</ele>
        <time>2014-06-06T12:02:35Z</time>
      </trkpt>
      <trkpt lat="41.56174" lon="9.23479">
        <ele>22.25</ele>
        <time>2014-06-06T12:02:36Z</time>
      </trkpt>
      <trkpt lat="41.56136" lon="9.23354">
        <ele>20.32</ele>
        <time>2014-06-06T12:02:42Z</time>
      </trkpt>
      <trkpt lat="41.56126" lon="9.23336">
        <ele>20.32</ele>
        <time>2014-06-06T12:02:43Z</time>
      </trkpt>
      <trkpt lat="41.56114" lon="9.23321">
        <ele>20.81</ele>
        <time>2014-06-06T12:02:44Z</time>
      </trkpt>
      <trkpt lat="41.56099" lon="9.23307">
        <ele>20.81</ele>
        <time>2014-06-06T12:02:45Z</time>
      </trkpt>
      <trkpt lat="41.56084" lon="9.23295">
        <ele>20.32</ele>
        <time>2014-06-06T12:02:46Z</time>
      </trkpt>
      <trkpt lat="41.56069" lon="9.23283">
        <ele>20.32</ele>
        <time>2014-06-06T12:02:47Z</time>
      </trkpt>
      <trkpt lat="41.55942" lon="9.23193">
        <ele>20.32</ele>
        <time>2014-06-06T12:02:54Z</time>
      </trkpt>
      <trkpt lat="41.55778" lon="9.23075">
        <ele>18.88</ele>
        <time>2014-06-06T12:03:04Z</time>
      </trkpt>
      <trkpt lat="41.55674" lon="9.22987">
        <ele>17.44</ele>
        <time>2014-06-06T12:03:10Z</time>
      </trkpt>
      <trkpt lat="41.55658" lon="9.22964">
        <ele>16.48</ele>
        <time>2014-06-06T12:03:11Z</time>
      </trkpt>
      <trkpt lat="41.55519" lon="9.22756">
        <ele>16</ele>
        <time>2014-06-06T12:03:21Z</time>
      </trkpt>
      <trkpt lat="41.55388" lon="9.22538">
        <ele>16.96</ele>
        <time>2014-06-06T12:03:31Z</time>
      </trkpt>
      <trkpt lat="41.55337" lon="9.22421">
        <ele>15.52</ele>
        <time>2014-06-06T12:03:36Z</time>
      </trkpt>
      <trkpt lat="41.55331" lon="9.22396">
        <ele>16</ele>
        <time>2014-06-06T12:03:37Z</time>
      </trkpt>
      <trkpt lat="41.55327" lon="9.22371">
        <ele>16</ele>
        <time>2014-06-06T12:03:38Z</time>
      </trkpt>
      <trkpt lat="41.55321" lon="9.22295">
        <ele>16.48</ele>
        <time>2014-06-06T12:03:41Z</time>
      </trkpt>
      <trkpt lat="41.55332" lon="9.22082">
        <ele>18.4</ele>
        <time>2014-06-06T12:03:50Z</time>
      </trkpt>
      <trkpt lat="41.55345" lon="9.21905">
        <ele>20.32</ele>
        <time>2014-06-06T12:03:59Z</time>
      </trkpt>
      <trkpt lat="41.55338" lon="9.21781">
        <ele>20.81</ele>
        <time>2014-06-06T12:04:04Z</time>
      </trkpt>
      <trkpt lat="41.55331" lon="9.21755">
        <ele>20.81</ele>
        <time>2014-06-06T12:04:05Z</time>
      </trkpt>
      <trkpt lat="41.55324" lon="9.21728">
        <ele>20.81</ele>
        <time>2014-06-06T12:04:06Z</time>
      </trkpt>
      <trkpt lat="41.5524" lon="9.21508">
        <ele>21.77</ele>
        <time>2014-06-06T12:04:15Z</time>
      </trkpt>
      <trkpt lat="41.55159" lon="9.21299">
        <ele>23.69</ele>
        <time>2014-06-06T12:04:23Z</time>
      </trkpt>
      <trkpt lat="41.55147" lon="9.21278">
        <ele>24.17</ele>
        <time>2014-06-06T12:04:24Z</time>
      </trkpt>
      <trkpt lat="41.55134" lon="9.2126">
        <ele>24.65</ele>
        <time>2014-06-06T12:04:25Z</time>
      </trkpt>
      <trkpt lat="41.5512" lon="9.21244">
        <ele>24.65</ele>
        <time>2014-06-06T12:04:26Z</time>
      </trkpt>
      <trkpt lat="41.55104" lon="9.21231">
        <ele>24.65</ele>
        <time>2014-06-06T12:04:27Z</time>
      </trkpt>
      <trkpt lat="41.55087" lon="9.21221">
        <ele>24.65</ele>
        <time>2014-06-06T12:04:28Z</time>
      </trkpt>
      <trkpt lat="41.5507" lon="9.21215">
        <ele>25.13</ele>
        <time>2014-06-06T12:04:29Z</time>
      </trkpt>
      <trkpt lat="41.55052" lon="9.21209">
        <ele>26.09</ele>
        <time>2014-06-06T12:04:30Z</time>
      </trkpt>
      <trkpt lat="41.55001" lon="9.2119">
        <ele>26.57</ele>
        <time>2014-06-06T12:04:33Z</time>
      </trkpt>
      <trkpt lat="41.54985" lon="9.2118">
        <ele>27.05</ele>
        <time>2014-06-06T12:04:34Z</time>
      </trkpt>
      <trkpt lat="41.54969" lon="9.21166">
        <ele>27.05</ele>
        <time>2014-06-06T12:04:35Z</time>
      </trkpt>
      <trkpt lat="41.54954" lon="9.21151">
        <ele>27.53</ele>
        <time>2014-06-06T12:04:36Z</time>
      </trkpt>
      <trkpt lat="41.5494" lon="9.21134">
        <ele>28.02</ele>
        <time>2014-06-06T12:04:37Z</time>
      </trkpt>
      <trkpt lat="41.54929" lon="9.21115">
        <ele>27.53</ele>
        <time>2014-06-06T12:04:38Z</time>
      </trkpt>
      <trkpt lat="41.54918" lon="9.21097">
        <ele>27.53</ele>
        <time>2014-06-06T12:04:39Z</time>
      </trkpt>
      <trkpt lat="41.54831" lon="9.20925">
        <ele>33.3</ele>
        <time>2014-06-06T12:04:47Z</time>
      </trkpt>
      <trkpt lat="41.54736" lon="9.20722">
        <ele>46.28</ele>
        <time>2014-06-06T12:04:54Z</time>
      </trkpt>
      <trkpt lat="41.54653" lon="9.20534">
        <ele>51.09</ele>
        <time>2014-06-06T12:05:02Z</time>
      </trkpt>
      <trkpt lat="41.54563" lon="9.20331">
        <ele>60.22</ele>
        <time>2014-06-06T12:05:13Z</time>
      </trkpt>
      <trkpt lat="41.54533" lon="9.20176">
        <ele>66.95</ele>
        <time>2014-06-06T12:05:22Z</time>
      </trkpt>
      <trkpt lat="41.54523" lon="9.20108">
        <ele>67.91</ele>
        <time>2014-06-06T12:05:26Z</time>
      </trkpt>
      <trkpt lat="41.54518" lon="9.20092">
        <ele>68.39</ele>
        <time>2014-06-06T12:05:27Z</time>
      </trkpt>
      <trkpt lat="41.54512" lon="9.20078">
        <ele>67.91</ele>
        <time>2014-06-06T12:05:28Z</time>
      </trkpt>
      <trkpt lat="41.54505" lon="9.20064">
        <ele>68.87</ele>
        <time>2014-06-06T12:05:29Z</time>
      </trkpt>
      <trkpt lat="41.54497" lon="9.20051">
        <ele>68.87</ele>
        <time>2014-06-06T12:05:30Z</time>
      </trkpt>
      <trkpt lat="41.5439" lon="9.19871">
        <ele>79.45</ele>
        <time>2014-06-06T12:05:44Z</time>
      </trkpt>
      <trkpt lat="41.54384" lon="9.19857">
        <ele>79.93</ele>
        <time>2014-06-06T12:05:45Z</time>
      </trkpt>
      <trkpt lat="41.54382" lon="9.19844">
        <ele>79.45</ele>
        <time>2014-06-06T12:05:46Z</time>
      </trkpt>
      <trkpt lat="41.54383" lon="9.19831">
        <ele>78.97</ele>
        <time>2014-06-06T12:05:47Z</time>
      </trkpt>
      <trkpt lat="41.54386" lon="9.19817">
        <ele>78.48</ele>
        <time>2014-06-06T12:05:48Z</time>
      </trkpt>
      <trkpt lat="41.54391" lon="9.19803">
        <ele>78.97</ele>
        <time>2014-06-06T12:05:49Z</time>
      </trkpt>
      <trkpt lat="41.54398" lon="9.1979">
        <ele>79.45</ele>
        <time>2014-06-06T12:05:50Z</time>
      </trkpt>
      <trkpt lat="41.54405" lon="9.19777">
        <ele>79.93</ele>
        <time>2014-06-06T12:05:51Z</time>
      </trkpt>
      <trkpt lat="41.5451" lon="9.19569">
        <ele>87.62</ele>
        <time>2014-06-06T12:06:06Z</time>
      </trkpt>
      <trkpt lat="41.54515" lon="9.19555">
        <ele>88.58</ele>
        <time>2014-06-06T12:06:07Z</time>
      </trkpt>
      <trkpt lat="41.54518" lon="9.1954">
        <ele>89.06</ele>
        <time>2014-06-06T12:06:08Z</time>
      </trkpt>
      <trkpt lat="41.54521" lon="9.19525">
        <ele>89.54</ele>
        <time>2014-06-06T12:06:09Z</time>
      </trkpt>
      <trkpt lat="41.54522" lon="9.19495">
        <ele>90.5</ele>
        <time>2014-06-06T12:06:11Z</time>
      </trkpt>
      <trkpt lat="41.54522" lon="9.19482">
        <ele>90.5</ele>
        <time>2014-06-06T12:06:12Z</time>
      </trkpt>
      <trkpt lat="41.5452" lon="9.19469">
        <ele>90.5</ele>
        <time>2014-06-06T12:06:13Z</time>
      </trkpt>
      <trkpt lat="41.54518" lon="9.1943">
        <ele>90.98</ele>
        <time>2014-06-06T12:06:16Z</time>
      </trkpt>
      <trkpt lat="41.54518" lon="9.19417">
        <ele>91.46</ele>
        <time>2014-06-06T12:06:17Z</time>
      </trkpt>
      <trkpt lat="41.5452" lon="9.19405">
        <ele>91.94</ele>
        <time>2014-06-06T12:06:18Z</time>
      </trkpt>
      <trkpt lat="41.54524" lon="9.19395">
        <ele>92.42</ele>
        <time>2014-06-06T12:06:19Z</time>
      </trkpt>
      <trkpt lat="41.54528" lon="9.19384">
        <ele>92.9</ele>
        <time>2014-06-06T12:06:20Z</time>
      </trkpt>
      <trkpt lat="41.54533" lon="9.19373">
        <ele>93.39</ele>
        <time>2014-06-06T12:06:21Z</time>
      </trkpt>
      <trkpt lat="41.54536" lon="9.19362">
        <ele>93.87</ele>
        <time>2014-06-06T12:06:22Z</time>
      </trkpt>
      <trkpt lat="41.54537" lon="9.19351">
        <ele>93.87</ele>
        <time>2014-06-06T12:06:23Z</time>
      </trkpt>
      <trkpt lat="41.54537" lon="9.19339">
        <ele>93.87</ele>
        <time>2014-06-06T12:06:24Z</time>
      </trkpt>
      <trkpt lat="41.5454" lon="9.19289">
        <ele>94.83</ele>
        <time>2014-06-06T12:06:28Z</time>
      </trkpt>
      <trkpt lat="41.54542" lon="9.19265">
        <ele>95.79</ele>
        <time>2014-06-06T12:06:30Z</time>
      </trkpt>
      <trkpt lat="41.54542" lon="9.19253">
        <ele>96.27</ele>
        <time>2014-06-06T12:06:31Z</time>
      </trkpt>
      <trkpt lat="41.54541" lon="9.19242">
        <ele>96.75</ele>
        <time>2014-06-06T12:06:32Z</time>
      </trkpt>
      <trkpt lat="41.54535" lon="9.19231">
        <ele>96.27</ele>
        <time>2014-06-06T12:06:33Z</time>
      </trkpt>
      <trkpt lat="41.5453" lon="9.19219">
        <ele>96.75</ele>
        <time>2014-06-06T12:06:34Z</time>
      </trkpt>
      <trkpt lat="41.54452" lon="9.19061">
        <ele>99.15</ele>
        <time>2014-06-06T12:06:46Z</time>
      </trkpt>
      <trkpt lat="41.54434" lon="9.19037">
        <ele>98.67</ele>
        <time>2014-06-06T12:06:48Z</time>
      </trkpt>
      <trkpt lat="41.54425" lon="9.19025">
        <ele>99.63</ele>
        <time>2014-06-06T12:06:49Z</time>
      </trkpt>
      <trkpt lat="41.54414" lon="9.19015">
        <ele>100.11</ele>
        <time>2014-06-06T12:06:50Z</time>
      </trkpt>
      <trkpt lat="41.54402" lon="9.19007">
        <ele>101.08</ele>
        <time>2014-06-06T12:06:51Z</time>
      </trkpt>
      <trkpt lat="41.54389" lon="9.19001">
        <ele>101.56</ele>
        <time>2014-06-06T12:06:52Z</time>
      </trkpt>
      <trkpt lat="41.54376" lon="9.18998">
        <ele>102.52</ele>
        <time>2014-06-06T12:06:53Z</time>
      </trkpt>
      <trkpt lat="41.54361" lon="9.18996">
        <ele>103.48</ele>
        <time>2014-06-06T12:06:54Z</time>
      </trkpt>
      <trkpt lat="41.54346" lon="9.18993">
        <ele>104.44</ele>
        <time>2014-06-06T12:06:55Z</time>
      </trkpt>
      <trkpt lat="41.54333" lon="9.18987">
        <ele>104.92</ele>
        <time>2014-06-06T12:06:56Z</time>
      </trkpt>
      <trkpt lat="41.5432" lon="9.18979">
        <ele>105.4</ele>
        <time>2014-06-06T12:06:57Z</time>
      </trkpt>
      <trkpt lat="41.5431" lon="9.18966">
        <ele>107.32</ele>
        <time>2014-06-06T12:06:58Z</time>
      </trkpt>
      <trkpt lat="41.54303" lon="9.1895">
        <ele>108.77</ele>
        <time>2014-06-06T12:06:59Z</time>
      </trkpt>
      <trkpt lat="41.54298" lon="9.18933">
        <ele>109.25</ele>
        <time>2014-06-06T12:07:00Z</time>
      </trkpt>
      <trkpt lat="41.54295" lon="9.18914">
        <ele>110.69</ele>
        <time>2014-06-06T12:07:01Z</time>
      </trkpt>
      <trkpt lat="41.54297" lon="9.18895">
        <ele>112.13</ele>
        <time>2014-06-06T12:07:02Z</time>
      </trkpt>
      <trkpt lat="41.54301" lon="9.18877">
        <ele>113.09</ele>
        <time>2014-06-06T12:07:03Z</time>
      </trkpt>
      <trkpt lat="41.54309" lon="9.18861">
        <ele>114.53</ele>
        <time>2014-06-06T12:07:04Z</time>
      </trkpt>
      <trkpt lat="41.54319" lon="9.18847">
        <ele>115.5</ele>
        <time>2014-06-06T12:07:05Z</time>
      </trkpt>
      <trkpt lat="41.54332" lon="9.18833">
        <ele>116.94</ele>
        <time>2014-06-06T12:07:06Z</time>
      </trkpt>
      <trkpt lat="41.54346" lon="9.18819">
        <ele>117.42</ele>
        <time>2014-06-06T12:07:07Z</time>
      </trkpt>
      <trkpt lat="41.54374" lon="9.18788">
        <ele>118.86</ele>
        <time>2014-06-06T12:07:09Z</time>
      </trkpt>
      <trkpt lat="41.54385" lon="9.1877">
        <ele>118.86</ele>
        <time>2014-06-06T12:07:10Z</time>
      </trkpt>
      <trkpt lat="41.54392" lon="9.1875">
        <ele>119.34</ele>
        <time>2014-06-06T12:07:11Z</time>
      </trkpt>
      <trkpt lat="41.54398" lon="9.18728">
        <ele>119.82</ele>
        <time>2014-06-06T12:07:12Z</time>
      </trkpt>
      <trkpt lat="41.544" lon="9.18705">
        <ele>120.78</ele>
        <time>2014-06-06T12:07:13Z</time>
      </trkpt>
      <trkpt lat="41.54399" lon="9.18682">
        <ele>121.26</ele>
        <time>2014-06-06T12:07:14Z</time>
      </trkpt>
      <trkpt lat="41.54395" lon="9.18659">
        <ele>122.22</ele>
        <time>2014-06-06T12:07:15Z</time>
      </trkpt>
      <trkpt lat="41.54388" lon="9.18638">
        <ele>122.71</ele>
        <time>2014-06-06T12:07:16Z</time>
      </trkpt>
      <trkpt lat="41.54379" lon="9.18617">
        <ele>123.19</ele>
        <time>2014-06-06T12:07:17Z</time>
      </trkpt>
      <trkpt lat="41.54331" lon="9.18514">
        <ele>124.15</ele>
        <time>2014-06-06T12:07:22Z</time>
      </trkpt>
      <trkpt lat="41.54319" lon="9.18497">
        <ele>125.59</ele>
        <time>2014-06-06T12:07:23Z</time>
      </trkpt>
      <trkpt lat="41.54307" lon="9.18485">
        <ele>125.11</ele>
        <time>2014-06-06T12:07:24Z</time>
      </trkpt>
      <trkpt lat="41.54293" lon="9.18477">
        <ele>125.11</ele>
        <time>2014-06-06T12:07:25Z</time>
      </trkpt>
      <trkpt lat="41.54277" lon="9.18472">
        <ele>125.59</ele>
        <time>2014-06-06T12:07:26Z</time>
      </trkpt>
      <trkpt lat="41.5426" lon="9.18468">
        <ele>125.59</ele>
        <time>2014-06-06T12:07:27Z</time>
      </trkpt>
      <trkpt lat="41.54142" lon="9.18451">
        <ele>122.71</ele>
        <time>2014-06-06T12:07:33Z</time>
      </trkpt>
      <trkpt lat="41.54123" lon="9.18452">
        <ele>121.26</ele>
        <time>2014-06-06T12:07:34Z</time>
      </trkpt>
      <trkpt lat="41.53985" lon="9.18451">
        <ele>114.53</ele>
        <time>2014-06-06T12:07:41Z</time>
      </trkpt>
      <trkpt lat="41.53966" lon="9.18442">
        <ele>113.09</ele>
        <time>2014-06-06T12:07:42Z</time>
      </trkpt>
      <trkpt lat="41.53947" lon="9.18431">
        <ele>112.61</ele>
        <time>2014-06-06T12:07:43Z</time>
      </trkpt>
      <trkpt lat="41.5393" lon="9.18415">
        <ele>112.13</ele>
        <time>2014-06-06T12:07:44Z</time>
      </trkpt>
      <trkpt lat="41.53913" lon="9.18397">
        <ele>111.65</ele>
        <time>2014-06-06T12:07:45Z</time>
      </trkpt>
      <trkpt lat="41.53899" lon="9.18376">
        <ele>110.69</ele>
        <time>2014-06-06T12:07:46Z</time>
      </trkpt>
      <trkpt lat="41.53887" lon="9.18353">
        <ele>109.73</ele>
        <time>2014-06-06T12:07:47Z</time>
      </trkpt>
      <trkpt lat="41.53877" lon="9.18329">
        <ele>109.25</ele>
        <time>2014-06-06T12:07:48Z</time>
      </trkpt>
      <trkpt lat="41.53869" lon="9.18303">
        <ele>108.29</ele>
        <time>2014-06-06T12:07:49Z</time>
      </trkpt>
      <trkpt lat="41.53864" lon="9.18275">
        <ele>107.32</ele>
        <time>2014-06-06T12:07:50Z</time>
      </trkpt>
      <trkpt lat="41.5386" lon="9.18246">
        <ele>106.84</ele>
        <time>2014-06-06T12:07:51Z</time>
      </trkpt>
      <trkpt lat="41.53858" lon="9.18217">
        <ele>105.4</ele>
        <time>2014-06-06T12:07:52Z</time>
      </trkpt>
      <trkpt lat="41.53858" lon="9.18188">
        <ele>103.96</ele>
        <time>2014-06-06T12:07:53Z</time>
      </trkpt>
      <trkpt lat="41.53861" lon="9.18159">
        <ele>102.52</ele>
        <time>2014-06-06T12:07:54Z</time>
      </trkpt>
      <trkpt lat="41.53866" lon="9.1813">
        <ele>101.56</ele>
        <time>2014-06-06T12:07:55Z</time>
      </trkpt>
      <trkpt lat="41.53873" lon="9.18101">
        <ele>100.6</ele>
        <time>2014-06-06T12:07:56Z</time>
      </trkpt>
      <trkpt lat="41.53886" lon="9.17917">
        <ele>94.35</ele>
        <time>2014-06-06T12:08:02Z</time>
      </trkpt>
      <trkpt lat="41.53889" lon="9.17796">
        <ele>90.98</ele>
        <time>2014-06-06T12:08:06Z</time>
      </trkpt>
      <trkpt lat="41.53887" lon="9.17769">
        <ele>90.02</ele>
        <time>2014-06-06T12:08:07Z</time>
      </trkpt>
      <trkpt lat="41.53881" lon="9.17743">
        <ele>89.54</ele>
        <time>2014-06-06T12:08:08Z</time>
      </trkpt>
      <trkpt lat="41.53872" lon="9.17719">
        <ele>88.1</ele>
        <time>2014-06-06T12:08:09Z</time>
      </trkpt>
      <trkpt lat="41.53863" lon="9.17696">
        <ele>87.14</ele>
        <time>2014-06-06T12:08:10Z</time>
      </trkpt>
      <trkpt lat="41.53851" lon="9.17676">
        <ele>85.21</ele>
        <time>2014-06-06T12:08:11Z</time>
      </trkpt>
      <trkpt lat="41.53838" lon="9.17656">
        <ele>83.77</ele>
        <time>2014-06-06T12:08:12Z</time>
      </trkpt>
      <trkpt lat="41.53823" lon="9.17637">
        <ele>82.33</ele>
        <time>2014-06-06T12:08:13Z</time>
      </trkpt>
      <trkpt lat="41.53808" lon="9.17618">
        <ele>80.89</ele>
        <time>2014-06-06T12:08:14Z</time>
      </trkpt>
      <trkpt lat="41.53729" lon="9.17522">
        <ele>76.56</ele>
        <time>2014-06-06T12:08:19Z</time>
      </trkpt>
      <trkpt lat="41.53717" lon="9.17498">
        <ele>77.04</ele>
        <time>2014-06-06T12:08:20Z</time>
      </trkpt>
      <trkpt lat="41.53631" lon="9.17264">
        <ele>81.85</ele>
        <time>2014-06-06T12:08:29Z</time>
      </trkpt>
      <trkpt lat="41.53509" lon="9.16942">
        <ele>87.14</ele>
        <time>2014-06-06T12:08:41Z</time>
      </trkpt>
      <trkpt lat="41.53404" lon="9.16753">
        <ele>87.62</ele>
        <time>2014-06-06T12:08:49Z</time>
      </trkpt>
      <trkpt lat="41.53228" lon="9.16565">
        <ele>91.94</ele>
        <time>2014-06-06T12:08:58Z</time>
      </trkpt>
      <trkpt lat="41.53016" lon="9.1636">
        <ele>98.19</ele>
        <time>2014-06-06T12:09:09Z</time>
      </trkpt>
      <trkpt lat="41.52725" lon="9.16089">
        <ele>102.52</ele>
        <time>2014-06-06T12:09:23Z</time>
      </trkpt>
      <trkpt lat="41.5255" lon="9.15951">
        <ele>103.96</ele>
        <time>2014-06-06T12:09:32Z</time>
      </trkpt>
      <trkpt lat="41.52415" lon="9.15842">
        <ele>97.23</ele>
        <time>2014-06-06T12:09:39Z</time>
      </trkpt>
      <trkpt lat="41.52304" lon="9.15778">
        <ele>87.14</ele>
        <time>2014-06-06T12:09:45Z</time>
      </trkpt>
      <trkpt lat="41.52285" lon="9.15775">
        <ele>85.69</ele>
        <time>2014-06-06T12:09:46Z</time>
      </trkpt>
      <trkpt lat="41.52264" lon="9.15775">
        <ele>84.25</ele>
        <time>2014-06-06T12:09:47Z</time>
      </trkpt>
      <trkpt lat="41.52089" lon="9.15785">
        <ele>79.45</ele>
        <time>2014-06-06T12:09:55Z</time>
      </trkpt>
      <trkpt lat="41.51921" lon="9.15728">
        <ele>73.68</ele>
        <time>2014-06-06T12:10:03Z</time>
      </trkpt>
      <trkpt lat="41.51752" lon="9.15591">
        <ele>69.83</ele>
        <time>2014-06-06T12:10:11Z</time>
      </trkpt>
      <trkpt lat="41.51519" lon="9.15393">
        <ele>68.87</ele>
        <time>2014-06-06T12:10:22Z</time>
      </trkpt>
      <trkpt lat="41.51152" lon="9.15088">
        <ele>53.49</ele>
        <time>2014-06-06T12:10:40Z</time>
      </trkpt>
      <trkpt lat="41.50925" lon="9.14898">
        <ele>48.2</ele>
        <time>2014-06-06T12:10:52Z</time>
      </trkpt>
      <trkpt lat="41.50757" lon="9.14733">
        <ele>49.16</ele>
        <time>2014-06-06T12:11:01Z</time>
      </trkpt>
      <trkpt lat="41.50646" lon="9.14539">
        <ele>49.16</ele>
        <time>2014-06-06T12:11:09Z</time>
      </trkpt>
      <trkpt lat="41.50463" lon="9.1412">
        <ele>44.84</ele>
        <time>2014-06-06T12:11:24Z</time>
      </trkpt>
      <trkpt lat="41.50355" lon="9.13941">
        <ele>45.32</ele>
        <time>2014-06-06T12:11:32Z</time>
      </trkpt>
      <trkpt lat="41.50255" lon="9.13814">
        <ele>43.4</ele>
        <time>2014-06-06T12:11:39Z</time>
      </trkpt>
      <trkpt lat="41.50111" lon="9.1373">
        <ele>37.63</ele>
        <time>2014-06-06T12:11:46Z</time>
      </trkpt>
      <trkpt lat="41.49931" lon="9.13666">
        <ele>38.59</ele>
        <time>2014-06-06T12:11:54Z</time>
      </trkpt>
      <trkpt lat="41.4982" lon="9.13589">
        <ele>39.55</ele>
        <time>2014-06-06T12:12:00Z</time>
      </trkpt>
      <trkpt lat="41.4967" lon="9.1345">
        <ele>38.59</ele>
        <time>2014-06-06T12:12:08Z</time>
      </trkpt>
      <trkpt lat="41.49649" lon="9.13438">
        <ele>38.59</ele>
        <time>2014-06-06T12:12:09Z</time>
      </trkpt>
      <trkpt lat="41.49627" lon="9.13429">
        <ele>38.59</ele>
        <time>2014-06-06T12:12:10Z</time>
      </trkpt>
      <trkpt lat="41.49403" lon="9.13366">
        <ele>50.13</ele>
        <time>2014-06-06T12:12:20Z</time>
      </trkpt>
      <trkpt lat="41.49237" lon="9.13282">
        <ele>59.74</ele>
        <time>2014-06-06T12:12:28Z</time>
      </trkpt>
      <trkpt lat="41.49116" lon="9.13223">
        <ele>65.03</ele>
        <time>2014-06-06T12:12:34Z</time>
      </trkpt>
      <trkpt lat="41.49099" lon="9.1321">
        <ele>66.47</ele>
        <time>2014-06-06T12:12:35Z</time>
      </trkpt>
      <trkpt lat="41.49084" lon="9.13196">
        <ele>67.43</ele>
        <time>2014-06-06T12:12:36Z</time>
      </trkpt>
      <trkpt lat="41.49071" lon="9.13181">
        <ele>68.39</ele>
        <time>2014-06-06T12:12:37Z</time>
      </trkpt>
      <trkpt lat="41.49059" lon="9.13167">
        <ele>68.87</ele>
        <time>2014-06-06T12:12:38Z</time>
      </trkpt>
      <trkpt lat="41.49018" lon="9.1312">
        <ele>71.76</ele>
        <time>2014-06-06T12:12:42Z</time>
      </trkpt>
      <trkpt lat="41.49009" lon="9.13116">
        <ele>71.76</ele>
        <time>2014-06-06T12:12:43Z</time>
      </trkpt>
      <trkpt lat="41.49" lon="9.13114">
        <ele>72.24</ele>
        <time>2014-06-06T12:12:44Z</time>
      </trkpt>
      <trkpt lat="41.48991" lon="9.13118">
        <ele>72.24</ele>
        <time>2014-06-06T12:12:45Z</time>
      </trkpt>
      <trkpt lat="41.48981" lon="9.13122">
        <ele>72.72</ele>
        <time>2014-06-06T12:12:46Z</time>
      </trkpt>
      <trkpt lat="41.48942" lon="9.13146">
        <ele>73.68</ele>
        <time>2014-06-06T12:12:50Z</time>
      </trkpt>
      <trkpt lat="41.48931" lon="9.13149">
        <ele>73.68</ele>
        <time>2014-06-06T12:12:51Z</time>
      </trkpt>
      <trkpt lat="41.4892" lon="9.1315">
        <ele>73.68</ele>
        <time>2014-06-06T12:12:52Z</time>
      </trkpt>
      <trkpt lat="41.4891" lon="9.13148">
        <ele>73.2</ele>
        <time>2014-06-06T12:12:53Z</time>
      </trkpt>
      <trkpt lat="41.48902" lon="9.13144">
        <ele>72.72</ele>
        <time>2014-06-06T12:12:54Z</time>
      </trkpt>
      <trkpt lat="41.48895" lon="9.13135">
        <ele>73.2</ele>
        <time>2014-06-06T12:12:55Z</time>
      </trkpt>
      <trkpt lat="41.4889" lon="9.13126">
        <ele>73.2</ele>
        <time>2014-06-06T12:12:56Z</time>
      </trkpt>
      <trkpt lat="41.48884" lon="9.13115">
        <ele>72.72</ele>
        <time>2014-06-06T12:12:57Z</time>
      </trkpt>
      <trkpt lat="41.48877" lon="9.13105">
        <ele>71.27</ele>
        <time>2014-06-06T12:12:58Z</time>
      </trkpt>
      <trkpt lat="41.48833" lon="9.13015">
        <ele>67.91</ele>
        <time>2014-06-06T12:13:08Z</time>
      </trkpt>
      <trkpt lat="41.4883" lon="9.13006">
        <ele>68.39</ele>
        <time>2014-06-06T12:13:09Z</time>
      </trkpt>
      <trkpt lat="41.48817" lon="9.12956">
        <ele>66.47</ele>
        <time>2014-06-06T12:13:14Z</time>
      </trkpt>
      <trkpt lat="41.48812" lon="9.1295">
        <ele>66.47</ele>
        <time>2014-06-06T12:13:15Z</time>
      </trkpt>
      <trkpt lat="41.48805" lon="9.12946">
        <ele>66.47</ele>
        <time>2014-06-06T12:13:16Z</time>
      </trkpt>
      <trkpt lat="41.48799" lon="9.12947">
        <ele>65.99</ele>
        <time>2014-06-06T12:13:17Z</time>
      </trkpt>
      <trkpt lat="41.48791" lon="9.12949">
        <ele>65.99</ele>
        <time>2014-06-06T12:13:18Z</time>
      </trkpt>
      <trkpt lat="41.48784" lon="9.12953">
        <ele>65.99</ele>
        <time>2014-06-06T12:13:19Z</time>
      </trkpt>
      <trkpt lat="41.48751" lon="9.12965">
        <ele>65.99</ele>
        <time>2014-06-06T12:13:24Z</time>
      </trkpt>
      <trkpt lat="41.48745" lon="9.12964">
        <ele>65.99</ele>
        <time>2014-06-06T12:13:25Z</time>
      </trkpt>
      <trkpt lat="41.48741" lon="9.1296">
        <ele>65.99</ele>
        <time>2014-06-06T12:13:26Z</time>
      </trkpt>
      <trkpt lat="41.48736" lon="9.12955">
        <ele>65.51</ele>
        <time>2014-06-06T12:13:27Z</time>
      </trkpt>
      <trkpt lat="41.48734" lon="9.12948">
        <ele>65.51</ele>
        <time>2014-06-06T12:13:28Z</time>
      </trkpt>
      <trkpt lat="41.48733" lon="9.12938">
        <ele>65.51</ele>
        <time>2014-06-06T12:13:29Z</time>
      </trkpt>
      <trkpt lat="41.48734" lon="9.12929">
        <ele>65.51</ele>
        <time>2014-06-06T12:13:30Z</time>
      </trkpt>
      <trkpt lat="41.48735" lon="9.12917">
        <ele>65.99</ele>
        <time>2014-06-06T12:13:31Z</time>
      </trkpt>
      <trkpt lat="41.48737" lon="9.12906">
        <ele>65.51</ele>
        <time>2014-06-06T12:13:32Z</time>
      </trkpt>
      <trkpt lat="41.48741" lon="9.12883">
        <ele>64.55</ele>
        <time>2014-06-06T12:13:34Z</time>
      </trkpt>
      <trkpt lat="41.4874" lon="9.12873">
        <ele>64.55</ele>
        <time>2014-06-06T12:13:35Z</time>
      </trkpt>
      <trkpt lat="41.48739" lon="9.12862">
        <ele>64.55</ele>
        <time>2014-06-06T12:13:36Z</time>
      </trkpt>
      <trkpt lat="41.48726" lon="9.12771">
        <ele>70.31</ele>
        <time>2014-06-06T12:13:46Z</time>
      </trkpt>
      <trkpt lat="41.48726" lon="9.12762">
        <ele>70.31</ele>
        <time>2014-06-06T12:13:47Z</time>
      </trkpt>
      <trkpt lat="41.48726" lon="9.12752">
        <ele>70.31</ele>
        <time>2014-06-06T12:13:48Z</time>
      </trkpt>
      <trkpt lat="41.48728" lon="9.12743">
        <ele>70.79</ele>
        <time>2014-06-06T12:13:49Z</time>
      </trkpt>
      <trkpt lat="41.4873" lon="9.12735">
        <ele>70.79</ele>
        <time>2014-06-06T12:13:50Z</time>
      </trkpt>
      <trkpt lat="41.48736" lon="9.12687">
        <ele>69.35</ele>
        <time>2014-06-06T12:13:57Z</time>
      </trkpt>
      <trkpt lat="41.48732" lon="9.12675">
        <ele>68.39</ele>
        <time>2014-06-06T12:13:58Z</time>
      </trkpt>
      <trkpt lat="41.48674" lon="9.12513">
        <ele>62.62</ele>
        <time>2014-06-06T12:14:09Z</time>
      </trkpt>
      <trkpt lat="41.48667" lon="9.12499">
        <ele>62.14</ele>
        <time>2014-06-06T12:14:10Z</time>
      </trkpt>
      <trkpt lat="41.48659" lon="9.12486">
        <ele>61.18</ele>
        <time>2014-06-06T12:14:11Z</time>
      </trkpt>
      <trkpt lat="41.4865" lon="9.12474">
        <ele>60.7</ele>
        <time>2014-06-06T12:14:12Z</time>
      </trkpt>
      <trkpt lat="41.4864" lon="9.12462">
        <ele>60.22</ele>
        <time>2014-06-06T12:14:13Z</time>
      </trkpt>
      <trkpt lat="41.48623" lon="9.12436">
        <ele>59.74</ele>
        <time>2014-06-06T12:14:15Z</time>
      </trkpt>
      <trkpt lat="41.48616" lon="9.1242">
        <ele>58.78</ele>
        <time>2014-06-06T12:14:16Z</time>
      </trkpt>
      <trkpt lat="41.48611" lon="9.12404">
        <ele>58.78</ele>
        <time>2014-06-06T12:14:17Z</time>
      </trkpt>
      <trkpt lat="41.48598" lon="9.12263">
        <ele>57.82</ele>
        <time>2014-06-06T12:14:24Z</time>
      </trkpt>
      <trkpt lat="41.48595" lon="9.12223">
        <ele>56.86</ele>
        <time>2014-06-06T12:14:26Z</time>
      </trkpt>
      <trkpt lat="41.48582" lon="9.12162">
        <ele>53.97</ele>
        <time>2014-06-06T12:14:29Z</time>
      </trkpt>
      <trkpt lat="41.48575" lon="9.12143">
        <ele>53.01</ele>
        <time>2014-06-06T12:14:30Z</time>
      </trkpt>
      <trkpt lat="41.48565" lon="9.12126">
        <ele>52.05</ele>
        <time>2014-06-06T12:14:31Z</time>
      </trkpt>
      <trkpt lat="41.48555" lon="9.1211">
        <ele>52.05</ele>
        <time>2014-06-06T12:14:32Z</time>
      </trkpt>
      <trkpt lat="41.48543" lon="9.12095">
        <ele>51.57</ele>
        <time>2014-06-06T12:14:33Z</time>
      </trkpt>
      <trkpt lat="41.48375" lon="9.11873">
        <ele>42.92</ele>
        <time>2014-06-06T12:14:47Z</time>
      </trkpt>
      <trkpt lat="41.48243" lon="9.11739">
        <ele>38.11</ele>
        <time>2014-06-06T12:14:56Z</time>
      </trkpt>
      <trkpt lat="41.48181" lon="9.11684">
        <ele>36.19</ele>
        <time>2014-06-06T12:15:00Z</time>
      </trkpt>
      <trkpt lat="41.48169" lon="9.11666">
        <ele>36.19</ele>
        <time>2014-06-06T12:15:01Z</time>
      </trkpt>
      <trkpt lat="41.48158" lon="9.11647">
        <ele>35.71</ele>
        <time>2014-06-06T12:15:02Z</time>
      </trkpt>
      <trkpt lat="41.48099" lon="9.11525">
        <ele>34.26</ele>
        <time>2014-06-06T12:15:09Z</time>
      </trkpt>
      <trkpt lat="41.48073" lon="9.11476">
        <ele>35.71</ele>
        <time>2014-06-06T12:15:12Z</time>
      </trkpt>
      <trkpt lat="41.48062" lon="9.11462">
        <ele>35.71</ele>
        <time>2014-06-06T12:15:13Z</time>
      </trkpt>
      <trkpt lat="41.48049" lon="9.1145">
        <ele>36.19</ele>
        <time>2014-06-06T12:15:14Z</time>
      </trkpt>
      <trkpt lat="41.47895" lon="9.11336">
        <ele>35.71</ele>
        <time>2014-06-06T12:15:24Z</time>
      </trkpt>
      <trkpt lat="41.47699" lon="9.112">
        <ele>37.63</ele>
        <time>2014-06-06T12:15:34Z</time>
      </trkpt>
      <trkpt lat="41.47622" lon="9.11133">
        <ele>38.11</ele>
        <time>2014-06-06T12:15:38Z</time>
      </trkpt>
      <trkpt lat="41.47606" lon="9.11113">
        <ele>37.63</ele>
        <time>2014-06-06T12:15:39Z</time>
      </trkpt>
      <trkpt lat="41.47462" lon="9.10893">
        <ele>42.92</ele>
        <time>2014-06-06T12:15:48Z</time>
      </trkpt>
      <trkpt lat="41.47423" lon="9.10824">
        <ele>44.36</ele>
        <time>2014-06-06T12:15:51Z</time>
      </trkpt>
      <trkpt lat="41.47414" lon="9.108">
        <ele>44.36</ele>
        <time>2014-06-06T12:15:52Z</time>
      </trkpt>
      <trkpt lat="41.47409" lon="9.10774">
        <ele>45.32</ele>
        <time>2014-06-06T12:15:53Z</time>
      </trkpt>
      <trkpt lat="41.47405" lon="9.10748">
        <ele>45.32</ele>
        <time>2014-06-06T12:15:54Z</time>
      </trkpt>
      <trkpt lat="41.47403" lon="9.10721">
        <ele>45.8</ele>
        <time>2014-06-06T12:15:55Z</time>
      </trkpt>
      <trkpt lat="41.47402" lon="9.10694">
        <ele>46.28</ele>
        <time>2014-06-06T12:15:56Z</time>
      </trkpt>
      <trkpt lat="41.47403" lon="9.10667">
        <ele>46.76</ele>
        <time>2014-06-06T12:15:57Z</time>
      </trkpt>
      <trkpt lat="41.47407" lon="9.1064">
        <ele>47.72</ele>
        <time>2014-06-06T12:15:58Z</time>
      </trkpt>
      <trkpt lat="41.47411" lon="9.10613">
        <ele>49.16</ele>
        <time>2014-06-06T12:15:59Z</time>
      </trkpt>
      <trkpt lat="41.47428" lon="9.10472">
        <ele>51.57</ele>
        <time>2014-06-06T12:16:04Z</time>
      </trkpt>
      <trkpt lat="41.47426" lon="9.10441">
        <ele>51.09</ele>
        <time>2014-06-06T12:16:05Z</time>
      </trkpt>
      <trkpt lat="41.47422" lon="9.1041">
        <ele>51.09</ele>
        <time>2014-06-06T12:16:06Z</time>
      </trkpt>
      <trkpt lat="41.47416" lon="9.1038">
        <ele>50.13</ele>
        <time>2014-06-06T12:16:07Z</time>
      </trkpt>
      <trkpt lat="41.47408" lon="9.10351">
        <ele>49.65</ele>
        <time>2014-06-06T12:16:08Z</time>
      </trkpt>
      <trkpt lat="41.47399" lon="9.10323">
        <ele>49.65</ele>
        <time>2014-06-06T12:16:09Z</time>
      </trkpt>
      <trkpt lat="41.47388" lon="9.10296">
        <ele>49.65</ele>
        <time>2014-06-06T12:16:10Z</time>
      </trkpt>
      <trkpt lat="41.47374" lon="9.10269">
        <ele>49.65</ele>
        <time>2014-06-06T12:16:11Z</time>
      </trkpt>
      <trkpt lat="41.47359" lon="9.10243">
        <ele>50.13</ele>
        <time>2014-06-06T12:16:12Z</time>
      </trkpt>
      <trkpt lat="41.47259" lon="9.1008">
        <ele>53.49</ele>
        <time>2014-06-06T12:16:19Z</time>
      </trkpt>
      <trkpt lat="41.47127" lon="9.09895">
        <ele>55.41</ele>
        <time>2014-06-06T12:16:29Z</time>
      </trkpt>
      <trkpt lat="41.4702" lon="9.09754">
        <ele>55.89</ele>
        <time>2014-06-06T12:16:39Z</time>
      </trkpt>
      <trkpt lat="41.46973" lon="9.09686">
        <ele>57.82</ele>
        <time>2014-06-06T12:16:47Z</time>
      </trkpt>
      <trkpt lat="41.46966" lon="9.09676">
        <ele>58.78</ele>
        <time>2014-06-06T12:16:51Z</time>
      </trkpt>
      <trkpt lat="41.46962" lon="9.09675">
        <ele>59.26</ele>
        <time>2014-06-06T12:16:52Z</time>
      </trkpt>
      <trkpt lat="41.46957" lon="9.09679">
        <ele>59.26</ele>
        <time>2014-06-06T12:16:53Z</time>
      </trkpt>
      <trkpt lat="41.46952" lon="9.09686">
        <ele>59.26</ele>
        <time>2014-06-06T12:16:54Z</time>
      </trkpt>
      <trkpt lat="41.46945" lon="9.09696">
        <ele>58.78</ele>
        <time>2014-06-06T12:16:55Z</time>
      </trkpt>
      <trkpt lat="41.46882" lon="9.09797">
        <ele>56.37</ele>
        <time>2014-06-06T12:17:01Z</time>
      </trkpt>
      <trkpt lat="41.46808" lon="9.09904">
        <ele>53.49</ele>
        <time>2014-06-06T12:17:07Z</time>
      </trkpt>
      <trkpt lat="41.46793" lon="9.09918">
        <ele>53.01</ele>
        <time>2014-06-06T12:17:08Z</time>
      </trkpt>
      <trkpt lat="41.46777" lon="9.0993">
        <ele>52.53</ele>
        <time>2014-06-06T12:17:09Z</time>
      </trkpt>
      <trkpt lat="41.46658" lon="9.09975">
        <ele>45.8</ele>
        <time>2014-06-06T12:17:15Z</time>
      </trkpt>
      <trkpt lat="41.46427" lon="9.10079">
        <ele>19.36</ele>
        <time>2014-06-06T12:17:25Z</time>
      </trkpt>
      <trkpt lat="41.462" lon="9.10194">
        <ele>11.67</ele>
        <time>2014-06-06T12:17:34Z</time>
      </trkpt>
      <trkpt lat="41.45936" lon="9.10307">
        <ele>15.04</ele>
        <time>2014-06-06T12:17:45Z</time>
      </trkpt>
      <trkpt lat="41.45849" lon="9.10322">
        <ele>19.84</ele>
        <time>2014-06-06T12:17:49Z</time>
      </trkpt>
      <trkpt lat="41.45829" lon="9.10329">
        <ele>21.77</ele>
        <time>2014-06-06T12:17:50Z</time>
      </trkpt>
      <trkpt lat="41.45811" lon="9.10338">
        <ele>23.21</ele>
        <time>2014-06-06T12:17:51Z</time>
      </trkpt>
      <trkpt lat="41.45795" lon="9.10351">
        <ele>24.65</ele>
        <time>2014-06-06T12:17:52Z</time>
      </trkpt>
      <trkpt lat="41.4578" lon="9.10365">
        <ele>26.09</ele>
        <time>2014-06-06T12:17:53Z</time>
      </trkpt>
      <trkpt lat="41.45768" lon="9.10382">
        <ele>27.53</ele>
        <time>2014-06-06T12:17:54Z</time>
      </trkpt>
      <trkpt lat="41.45755" lon="9.10401">
        <ele>28.5</ele>
        <time>2014-06-06T12:17:55Z</time>
      </trkpt>
      <trkpt lat="41.45745" lon="9.10423">
        <ele>28.98</ele>
        <time>2014-06-06T12:17:56Z</time>
      </trkpt>
      <trkpt lat="41.45737" lon="9.10448">
        <ele>29.46</ele>
        <time>2014-06-06T12:17:57Z</time>
      </trkpt>
      <trkpt lat="41.45729" lon="9.10474">
        <ele>30.42</ele>
        <time>2014-06-06T12:17:58Z</time>
      </trkpt>
      <trkpt lat="41.45723" lon="9.10501">
        <ele>31.38</ele>
        <time>2014-06-06T12:17:59Z</time>
      </trkpt>
      <trkpt lat="41.45651" lon="9.10834">
        <ele>31.38</ele>
        <time>2014-06-06T12:18:11Z</time>
      </trkpt>
      <trkpt lat="41.45622" lon="9.1095">
        <ele>26.57</ele>
        <time>2014-06-06T12:18:15Z</time>
      </trkpt>
      <trkpt lat="41.45611" lon="9.10975">
        <ele>25.61</ele>
        <time>2014-06-06T12:18:16Z</time>
      </trkpt>
      <trkpt lat="41.45598" lon="9.10996">
        <ele>25.13</ele>
        <time>2014-06-06T12:18:17Z</time>
      </trkpt>
      <trkpt lat="41.45583" lon="9.11015">
        <ele>24.17</ele>
        <time>2014-06-06T12:18:18Z</time>
      </trkpt>
      <trkpt lat="41.45566" lon="9.11032">
        <ele>23.21</ele>
        <time>2014-06-06T12:18:19Z</time>
      </trkpt>
      <trkpt lat="41.45547" lon="9.11046">
        <ele>22.73</ele>
        <time>2014-06-06T12:18:20Z</time>
      </trkpt>
      <trkpt lat="41.45527" lon="9.11058">
        <ele>22.73</ele>
        <time>2014-06-06T12:18:21Z</time>
      </trkpt>
      <trkpt lat="41.45507" lon="9.11069">
        <ele>22.73</ele>
        <time>2014-06-06T12:18:22Z</time>
      </trkpt>
      <trkpt lat="41.45445" lon="9.11099">
        <ele>23.69</ele>
        <time>2014-06-06T12:18:25Z</time>
      </trkpt>
      <trkpt lat="41.45427" lon="9.11113">
        <ele>24.17</ele>
        <time>2014-06-06T12:18:26Z</time>
      </trkpt>
      <trkpt lat="41.45409" lon="9.11129">
        <ele>24.17</ele>
        <time>2014-06-06T12:18:27Z</time>
      </trkpt>
      <trkpt lat="41.45229" lon="9.11331">
        <ele>26.09</ele>
        <time>2014-06-06T12:18:38Z</time>
      </trkpt>
      <trkpt lat="41.45101" lon="9.11534">
        <ele>20.81</ele>
        <time>2014-06-06T12:18:46Z</time>
      </trkpt>
      <trkpt lat="41.44973" lon="9.11731">
        <ele>19.84</ele>
        <time>2014-06-06T12:18:54Z</time>
      </trkpt>
      <trkpt lat="41.44955" lon="9.1175">
        <ele>20.81</ele>
        <time>2014-06-06T12:18:55Z</time>
      </trkpt>
      <trkpt lat="41.44937" lon="9.11766">
        <ele>20.81</ele>
        <time>2014-06-06T12:18:56Z</time>
      </trkpt>
      <trkpt lat="41.44917" lon="9.11781">
        <ele>20.81</ele>
        <time>2014-06-06T12:18:57Z</time>
      </trkpt>
      <trkpt lat="41.44896" lon="9.11795">
        <ele>21.29</ele>
        <time>2014-06-06T12:18:58Z</time>
      </trkpt>
      <trkpt lat="41.44594" lon="9.11998">
        <ele>22.73</ele>
        <time>2014-06-06T12:19:12Z</time>
      </trkpt>
      <trkpt lat="41.44363" lon="9.12173">
        <ele>3.98</ele>
        <time>2014-06-06T12:19:23Z</time>
      </trkpt>
      <trkpt lat="41.44173" lon="9.1226">
        <ele>1.58</ele>
        <time>2014-06-06T12:19:32Z</time>
      </trkpt>
      <trkpt lat="41.43973" lon="9.12304">
        <ele>1.1</ele>
        <time>2014-06-06T12:19:41Z</time>
      </trkpt>
      <trkpt lat="41.43639" lon="9.12317">
        <ele>4.94</ele>
        <time>2014-06-06T12:19:54Z</time>
      </trkpt>
      <trkpt lat="41.43294" lon="9.12329">
        <ele>13.6</ele>
        <time>2014-06-06T12:20:08Z</time>
      </trkpt>
      <trkpt lat="41.43082" lon="9.12329">
        <ele>16.96</ele>
        <time>2014-06-06T12:20:17Z</time>
      </trkpt>
      <trkpt lat="41.43061" lon="9.12323">
        <ele>17.44</ele>
        <time>2014-06-06T12:20:18Z</time>
      </trkpt>
      <trkpt lat="41.43041" lon="9.12313">
        <ele>18.88</ele>
        <time>2014-06-06T12:20:19Z</time>
      </trkpt>
      <trkpt lat="41.43022" lon="9.12298">
        <ele>20.32</ele>
        <time>2014-06-06T12:20:20Z</time>
      </trkpt>
      <trkpt lat="41.43006" lon="9.1228">
        <ele>22.25</ele>
        <time>2014-06-06T12:20:21Z</time>
      </trkpt>
      <trkpt lat="41.42991" lon="9.12258">
        <ele>24.17</ele>
        <time>2014-06-06T12:20:22Z</time>
      </trkpt>
      <trkpt lat="41.42977" lon="9.12235">
        <ele>25.13</ele>
        <time>2014-06-06T12:20:23Z</time>
      </trkpt>
      <trkpt lat="41.42964" lon="9.1221">
        <ele>26.57</ele>
        <time>2014-06-06T12:20:24Z</time>
      </trkpt>
      <trkpt lat="41.42874" lon="9.12049">
        <ele>33.78</ele>
        <time>2014-06-06T12:20:31Z</time>
      </trkpt>
      <trkpt lat="41.4286" lon="9.12033">
        <ele>35.71</ele>
        <time>2014-06-06T12:20:32Z</time>
      </trkpt>
      <trkpt lat="41.42847" lon="9.12018">
        <ele>36.67</ele>
        <time>2014-06-06T12:20:33Z</time>
      </trkpt>
      <trkpt lat="41.42833" lon="9.12007">
        <ele>38.11</ele>
        <time>2014-06-06T12:20:34Z</time>
      </trkpt>
      <trkpt lat="41.42818" lon="9.12">
        <ele>39.07</ele>
        <time>2014-06-06T12:20:35Z</time>
      </trkpt>
      <trkpt lat="41.42803" lon="9.11998">
        <ele>40.03</ele>
        <time>2014-06-06T12:20:36Z</time>
      </trkpt>
      <trkpt lat="41.42788" lon="9.12">
        <ele>40.51</ele>
        <time>2014-06-06T12:20:37Z</time>
      </trkpt>
      <trkpt lat="41.42772" lon="9.12005">
        <ele>41.95</ele>
        <time>2014-06-06T12:20:38Z</time>
      </trkpt>
      <trkpt lat="41.42757" lon="9.12015">
        <ele>42.92</ele>
        <time>2014-06-06T12:20:39Z</time>
      </trkpt>
      <trkpt lat="41.42743" lon="9.12028">
        <ele>43.4</ele>
        <time>2014-06-06T12:20:40Z</time>
      </trkpt>
      <trkpt lat="41.42731" lon="9.12044">
        <ele>44.36</ele>
        <time>2014-06-06T12:20:41Z</time>
      </trkpt>
      <trkpt lat="41.4272" lon="9.12063">
        <ele>45.8</ele>
        <time>2014-06-06T12:20:42Z</time>
      </trkpt>
      <trkpt lat="41.4271" lon="9.12082">
        <ele>47.24</ele>
        <time>2014-06-06T12:20:43Z</time>
      </trkpt>
      <trkpt lat="41.42646" lon="9.12189">
        <ele>53.01</ele>
        <time>2014-06-06T12:20:49Z</time>
      </trkpt>
      <trkpt lat="41.42633" lon="9.122">
        <ele>53.97</ele>
        <time>2014-06-06T12:20:50Z</time>
      </trkpt>
      <trkpt lat="41.4262" lon="9.12208">
        <ele>54.45</ele>
        <time>2014-06-06T12:20:51Z</time>
      </trkpt>
      <trkpt lat="41.42605" lon="9.12211">
        <ele>54.93</ele>
        <time>2014-06-06T12:20:52Z</time>
      </trkpt>
      <trkpt lat="41.42589" lon="9.12208">
        <ele>56.37</ele>
        <time>2014-06-06T12:20:53Z</time>
      </trkpt>
      <trkpt lat="41.42573" lon="9.12203">
        <ele>56.37</ele>
        <time>2014-06-06T12:20:54Z</time>
      </trkpt>
      <trkpt lat="41.42557" lon="9.12194">
        <ele>56.86</ele>
        <time>2014-06-06T12:20:55Z</time>
      </trkpt>
      <trkpt lat="41.42541" lon="9.12184">
        <ele>57.34</ele>
        <time>2014-06-06T12:20:56Z</time>
      </trkpt>
      <trkpt lat="41.42457" lon="9.12133">
        <ele>61.66</ele>
        <time>2014-06-06T12:21:01Z</time>
      </trkpt>
      <trkpt lat="41.4244" lon="9.12129">
        <ele>63.1</ele>
        <time>2014-06-06T12:21:02Z</time>
      </trkpt>
      <trkpt lat="41.42422" lon="9.12129">
        <ele>64.55</ele>
        <time>2014-06-06T12:21:03Z</time>
      </trkpt>
      <trkpt lat="41.42404" lon="9.12131">
        <ele>65.51</ele>
        <time>2014-06-06T12:21:04Z</time>
      </trkpt>
      <trkpt lat="41.42385" lon="9.12134">
        <ele>66.47</ele>
        <time>2014-06-06T12:21:05Z</time>
      </trkpt>
      <trkpt lat="41.42268" lon="9.12158">
        <ele>72.72</ele>
        <time>2014-06-06T12:21:11Z</time>
      </trkpt>
      <trkpt lat="41.42253" lon="9.12166">
        <ele>73.2</ele>
        <time>2014-06-06T12:21:12Z</time>
      </trkpt>
      <trkpt lat="41.42239" lon="9.12179">
        <ele>73.2</ele>
        <time>2014-06-06T12:21:13Z</time>
      </trkpt>
      <trkpt lat="41.42228" lon="9.12196">
        <ele>74.16</ele>
        <time>2014-06-06T12:21:14Z</time>
      </trkpt>
      <trkpt lat="41.42216" lon="9.12215">
        <ele>74.64</ele>
        <time>2014-06-06T12:21:15Z</time>
      </trkpt>
      <trkpt lat="41.42117" lon="9.12381">
        <ele>73.68</ele>
        <time>2014-06-06T12:21:22Z</time>
      </trkpt>
      <trkpt lat="41.42018" lon="9.12499">
        <ele>80.89</ele>
        <time>2014-06-06T12:21:28Z</time>
      </trkpt>
      <trkpt lat="41.41998" lon="9.12512">
        <ele>82.81</ele>
        <time>2014-06-06T12:21:29Z</time>
      </trkpt>
      <trkpt lat="41.41977" lon="9.12521">
        <ele>84.25</ele>
        <time>2014-06-06T12:21:30Z</time>
      </trkpt>
      <trkpt lat="41.41956" lon="9.12529">
        <ele>86.18</ele>
        <time>2014-06-06T12:21:31Z</time>
      </trkpt>
      <trkpt lat="41.41935" lon="9.12536">
        <ele>87.14</ele>
        <time>2014-06-06T12:21:32Z</time>
      </trkpt>
      <trkpt lat="41.418" lon="9.1254">
        <ele>96.75</ele>
        <time>2014-06-06T12:21:38Z</time>
      </trkpt>
      <trkpt lat="41.41778" lon="9.12535">
        <ele>98.19</ele>
        <time>2014-06-06T12:21:39Z</time>
      </trkpt>
      <trkpt lat="41.41757" lon="9.12527">
        <ele>99.63</ele>
        <time>2014-06-06T12:21:40Z</time>
      </trkpt>
      <trkpt lat="41.41737" lon="9.12517">
        <ele>101.08</ele>
        <time>2014-06-06T12:21:41Z</time>
      </trkpt>
      <trkpt lat="41.41718" lon="9.12505">
        <ele>102.52</ele>
        <time>2014-06-06T12:21:42Z</time>
      </trkpt>
      <trkpt lat="41.41699" lon="9.12491">
        <ele>103.96</ele>
        <time>2014-06-06T12:21:43Z</time>
      </trkpt>
      <trkpt lat="41.41682" lon="9.12476">
        <ele>105.4</ele>
        <time>2014-06-06T12:21:44Z</time>
      </trkpt>
      <trkpt lat="41.41666" lon="9.12458">
        <ele>106.36</ele>
        <time>2014-06-06T12:21:45Z</time>
      </trkpt>
      <trkpt lat="41.41652" lon="9.12438">
        <ele>107.81</ele>
        <time>2014-06-06T12:21:46Z</time>
      </trkpt>
      <trkpt lat="41.41638" lon="9.12415">
        <ele>108.77</ele>
        <time>2014-06-06T12:21:47Z</time>
      </trkpt>
      <trkpt lat="41.41536" lon="9.12236">
        <ele>118.38</ele>
        <time>2014-06-06T12:21:56Z</time>
      </trkpt>
      <trkpt lat="41.41489" lon="9.12156">
        <ele>119.82</ele>
        <time>2014-06-06T12:22:01Z</time>
      </trkpt>
      <trkpt lat="41.41478" lon="9.12145">
        <ele>120.3</ele>
        <time>2014-06-06T12:22:02Z</time>
      </trkpt>
      <trkpt lat="41.41466" lon="9.12136">
        <ele>120.78</ele>
        <time>2014-06-06T12:22:03Z</time>
      </trkpt>
      <trkpt lat="41.41453" lon="9.12129">
        <ele>121.74</ele>
        <time>2014-06-06T12:22:04Z</time>
      </trkpt>
      <trkpt lat="41.4144" lon="9.12124">
        <ele>121.74</ele>
        <time>2014-06-06T12:22:05Z</time>
      </trkpt>
      <trkpt lat="41.41426" lon="9.12122">
        <ele>122.71</ele>
        <time>2014-06-06T12:22:06Z</time>
      </trkpt>
      <trkpt lat="41.41413" lon="9.12123">
        <ele>123.19</ele>
        <time>2014-06-06T12:22:07Z</time>
      </trkpt>
      <trkpt lat="41.41399" lon="9.12127">
        <ele>124.15</ele>
        <time>2014-06-06T12:22:08Z</time>
      </trkpt>
      <trkpt lat="41.41385" lon="9.12133">
        <ele>124.15</ele>
        <time>2014-06-06T12:22:09Z</time>
      </trkpt>
      <trkpt lat="41.41371" lon="9.12141">
        <ele>123.67</ele>
        <time>2014-06-06T12:22:10Z</time>
      </trkpt>
      <trkpt lat="41.41358" lon="9.12151">
        <ele>123.67</ele>
        <time>2014-06-06T12:22:11Z</time>
      </trkpt>
      <trkpt lat="41.41345" lon="9.12163">
        <ele>123.19</ele>
        <time>2014-06-06T12:22:12Z</time>
      </trkpt>
      <trkpt lat="41.41335" lon="9.12178">
        <ele>123.19</ele>
        <time>2014-06-06T12:22:13Z</time>
      </trkpt>
      <trkpt lat="41.41325" lon="9.12195">
        <ele>122.71</ele>
        <time>2014-06-06T12:22:14Z</time>
      </trkpt>
      <trkpt lat="41.41317" lon="9.12215">
        <ele>122.22</ele>
        <time>2014-06-06T12:22:15Z</time>
      </trkpt>
      <trkpt lat="41.41309" lon="9.12237">
        <ele>122.22</ele>
        <time>2014-06-06T12:22:16Z</time>
      </trkpt>
      <trkpt lat="41.41278" lon="9.12326">
        <ele>121.74</ele>
        <time>2014-06-06T12:22:20Z</time>
      </trkpt>
      <trkpt lat="41.41266" lon="9.12347">
        <ele>122.22</ele>
        <time>2014-06-06T12:22:21Z</time>
      </trkpt>
      <trkpt lat="41.41252" lon="9.12368">
        <ele>122.71</ele>
        <time>2014-06-06T12:22:22Z</time>
      </trkpt>
      <trkpt lat="41.41098" lon="9.12575">
        <ele>118.38</ele>
        <time>2014-06-06T12:22:33Z</time>
      </trkpt>
      <trkpt lat="41.41013" lon="9.12737">
        <ele>113.09</ele>
        <time>2014-06-06T12:22:41Z</time>
      </trkpt>
      <trkpt lat="41.4098" lon="9.12824">
        <ele>109.25</ele>
        <time>2014-06-06T12:22:45Z</time>
      </trkpt>
      <trkpt lat="41.40975" lon="9.12847">
        <ele>108.29</ele>
        <time>2014-06-06T12:22:46Z</time>
      </trkpt>
      <trkpt lat="41.40961" lon="9.13066">
        <ele>100.11</ele>
        <time>2014-06-06T12:22:54Z</time>
      </trkpt>
      <trkpt lat="41.40944" lon="9.1337">
        <ele>88.1</ele>
        <time>2014-06-06T12:23:05Z</time>
      </trkpt>
      <trkpt lat="41.40936" lon="9.13395">
        <ele>87.62</ele>
        <time>2014-06-06T12:23:06Z</time>
      </trkpt>
      <trkpt lat="41.40862" lon="9.13576">
        <ele>83.29</ele>
        <time>2014-06-06T12:23:13Z</time>
      </trkpt>
      <trkpt lat="41.40752" lon="9.13772">
        <ele>82.33</ele>
        <time>2014-06-06T12:23:22Z</time>
      </trkpt>
      <trkpt lat="41.40743" lon="9.13795">
        <ele>81.85</ele>
        <time>2014-06-06T12:23:23Z</time>
      </trkpt>
      <trkpt lat="41.40735" lon="9.1382">
        <ele>81.37</ele>
        <time>2014-06-06T12:23:24Z</time>
      </trkpt>
      <trkpt lat="41.40682" lon="9.14083">
        <ele>74.64</ele>
        <time>2014-06-06T12:23:33Z</time>
      </trkpt>
      <trkpt lat="41.40586" lon="9.1455">
        <ele>67.91</ele>
        <time>2014-06-06T12:23:48Z</time>
      </trkpt>
      <trkpt lat="41.40513" lon="9.14912">
        <ele>67.91</ele>
        <time>2014-06-06T12:24:02Z</time>
      </trkpt>
      <trkpt lat="41.40452" lon="9.15207">
        <ele>75.12</ele>
        <time>2014-06-06T12:24:15Z</time>
      </trkpt>
      <trkpt lat="41.40382" lon="9.15553">
        <ele>82.33</ele>
        <time>2014-06-06T12:24:30Z</time>
      </trkpt>
      <trkpt lat="41.40323" lon="9.15834">
        <ele>82.33</ele>
        <time>2014-06-06T12:24:41Z</time>
      </trkpt>
      <trkpt lat="41.40268" lon="9.16113">
        <ele>75.6</ele>
        <time>2014-06-06T12:24:52Z</time>
      </trkpt>
      <trkpt lat="41.40243" lon="9.1632">
        <ele>71.27</ele>
        <time>2014-06-06T12:25:01Z</time>
      </trkpt>
      <trkpt lat="41.40229" lon="9.16408">
        <ele>66.95</ele>
        <time>2014-06-06T12:25:06Z</time>
      </trkpt>
      <trkpt lat="41.40224" lon="9.16421">
        <ele>66.47</ele>
        <time>2014-06-06T12:25:07Z</time>
      </trkpt>
      <trkpt lat="41.40215" lon="9.1643">
        <ele>65.99</ele>
        <time>2014-06-06T12:25:08Z</time>
      </trkpt>
      <trkpt lat="41.40202" lon="9.16437">
        <ele>65.51</ele>
        <time>2014-06-06T12:25:09Z</time>
      </trkpt>
      <trkpt lat="41.4019" lon="9.16445">
        <ele>65.03</ele>
        <time>2014-06-06T12:25:10Z</time>
      </trkpt>
      <trkpt lat="41.40104" lon="9.16509">
        <ele>58.78</ele>
        <time>2014-06-06T12:25:17Z</time>
      </trkpt>
      <trkpt lat="41.40094" lon="9.1652">
        <ele>57.82</ele>
        <time>2014-06-06T12:25:18Z</time>
      </trkpt>
      <trkpt lat="41.40064" lon="9.16555">
        <ele>54.93</ele>
        <time>2014-06-06T12:25:21Z</time>
      </trkpt>
      <trkpt lat="41.40053" lon="9.1656">
        <ele>53.97</ele>
        <time>2014-06-06T12:25:22Z</time>
      </trkpt>
      <trkpt lat="41.4004" lon="9.16561">
        <ele>52.53</ele>
        <time>2014-06-06T12:25:23Z</time>
      </trkpt>
      <trkpt lat="41.40029" lon="9.16558">
        <ele>52.53</ele>
        <time>2014-06-06T12:25:24Z</time>
      </trkpt>
      <trkpt lat="41.40018" lon="9.16554">
        <ele>52.05</ele>
        <time>2014-06-06T12:25:25Z</time>
      </trkpt>
      <trkpt lat="41.40008" lon="9.16548">
        <ele>52.53</ele>
        <time>2014-06-06T12:25:26Z</time>
      </trkpt>
      <trkpt lat="41.39999" lon="9.16541">
        <ele>52.05</ele>
        <time>2014-06-06T12:25:27Z</time>
      </trkpt>
      <trkpt lat="41.39992" lon="9.16532">
        <ele>52.05</ele>
        <time>2014-06-06T12:25:28Z</time>
      </trkpt>
      <trkpt lat="41.39985" lon="9.16523">
        <ele>52.05</ele>
        <time>2014-06-06T12:25:29Z</time>
      </trkpt>
      <trkpt lat="41.39972" lon="9.16514">
        <ele>52.05</ele>
        <time>2014-06-06T12:25:31Z</time>
      </trkpt>
      <trkpt lat="41.39964" lon="9.16514">
        <ele>51.09</ele>
        <time>2014-06-06T12:25:32Z</time>
      </trkpt>
      <trkpt lat="41.39936" lon="9.16513">
        <ele>49.16</ele>
        <time>2014-06-06T12:25:35Z</time>
      </trkpt>
      <trkpt lat="41.39925" lon="9.16507">
        <ele>49.16</ele>
        <time>2014-06-06T12:25:36Z</time>
      </trkpt>
      <trkpt lat="41.39913" lon="9.16499">
        <ele>48.68</ele>
        <time>2014-06-06T12:25:37Z</time>
      </trkpt>
      <trkpt lat="41.399" lon="9.16488">
        <ele>47.24</ele>
        <time>2014-06-06T12:25:38Z</time>
      </trkpt>
      <trkpt lat="41.39887" lon="9.16476">
        <ele>46.28</ele>
        <time>2014-06-06T12:25:39Z</time>
      </trkpt>
      <trkpt lat="41.39799" lon="9.16373">
        <ele>35.71</ele>
        <time>2014-06-06T12:25:47Z</time>
      </trkpt>
      <trkpt lat="41.39787" lon="9.16364">
        <ele>34.26</ele>
        <time>2014-06-06T12:25:48Z</time>
      </trkpt>
      <trkpt lat="41.39775" lon="9.16358">
        <ele>32.82</ele>
        <time>2014-06-06T12:25:49Z</time>
      </trkpt>
      <trkpt lat="41.39761" lon="9.16354">
        <ele>31.86</ele>
        <time>2014-06-06T12:25:50Z</time>
      </trkpt>
      <trkpt lat="41.39746" lon="9.16352">
        <ele>30.42</ele>
        <time>2014-06-06T12:25:51Z</time>
      </trkpt>
      <trkpt lat="41.39731" lon="9.1635">
        <ele>29.46</ele>
        <time>2014-06-06T12:25:52Z</time>
      </trkpt>
      <trkpt lat="41.39687" lon="9.16343">
        <ele>26.57</ele>
        <time>2014-06-06T12:25:55Z</time>
      </trkpt>
      <trkpt lat="41.39672" lon="9.16335">
        <ele>26.09</ele>
        <time>2014-06-06T12:25:56Z</time>
      </trkpt>
      <trkpt lat="41.39661" lon="9.16326">
        <ele>25.61</ele>
        <time>2014-06-06T12:25:57Z</time>
      </trkpt>
      <trkpt lat="41.39654" lon="9.16314">
        <ele>24.65</ele>
        <time>2014-06-06T12:25:58Z</time>
      </trkpt>
      <trkpt lat="41.39648" lon="9.163">
        <ele>23.69</ele>
        <time>2014-06-06T12:25:59Z</time>
      </trkpt>
      <trkpt lat="41.39645" lon="9.16283">
        <ele>22.25</ele>
        <time>2014-06-06T12:26:00Z</time>
      </trkpt>
      <trkpt lat="41.39642" lon="9.16269">
        <ele>22.25</ele>
        <time>2014-06-06T12:26:01Z</time>
      </trkpt>
      <trkpt lat="41.39636" lon="9.16253">
        <ele>21.77</ele>
        <time>2014-06-06T12:26:02Z</time>
      </trkpt>
      <trkpt lat="41.39625" lon="9.1624">
        <ele>20.32</ele>
        <time>2014-06-06T12:26:03Z</time>
      </trkpt>
      <trkpt lat="41.39612" lon="9.1623">
        <ele>18.88</ele>
        <time>2014-06-06T12:26:04Z</time>
      </trkpt>
      <trkpt lat="41.396" lon="9.16223">
        <ele>17.92</ele>
        <time>2014-06-06T12:26:05Z</time>
      </trkpt>
      <trkpt lat="41.39588" lon="9.16221">
        <ele>16.96</ele>
        <time>2014-06-06T12:26:06Z</time>
      </trkpt>
      <trkpt lat="41.39574" lon="9.16222">
        <ele>15.52</ele>
        <time>2014-06-06T12:26:07Z</time>
      </trkpt>
      <trkpt lat="41.39558" lon="9.16224">
        <ele>14.56</ele>
        <time>2014-06-06T12:26:08Z</time>
      </trkpt>
      <trkpt lat="41.39541" lon="9.16228">
        <ele>13.6</ele>
        <time>2014-06-06T12:26:09Z</time>
      </trkpt>
      <trkpt lat="41.39466" lon="9.16264">
        <ele>7.83</ele>
        <time>2014-06-06T12:26:14Z</time>
      </trkpt>
      <trkpt lat="41.39457" lon="9.16277">
        <ele>5.91</ele>
        <time>2014-06-06T12:26:15Z</time>
      </trkpt>
      <trkpt lat="41.39449" lon="9.16292">
        <ele>4.94</ele>
        <time>2014-06-06T12:26:16Z</time>
      </trkpt>
      <trkpt lat="41.39401" lon="9.16412">
        <ele>-2.75</ele>
        <time>2014-06-06T12:26:24Z</time>
      </trkpt>
      <trkpt lat="41.39387" lon="9.16435">
        <ele>-4.67</ele>
        <time>2014-06-06T12:26:26Z</time>
      </trkpt>
      <trkpt lat="41.39358" lon="9.16488">
        <ele>-8.51</ele>
        <time>2014-06-06T12:26:31Z</time>
      </trkpt>
      <trkpt lat="41.39354" lon="9.16497">
        <ele>-9</ele>
        <time>2014-06-06T12:26:32Z</time>
      </trkpt>
      <trkpt lat="41.39348" lon="9.16502">
        <ele>-9</ele>
        <time>2014-06-06T12:26:33Z</time>
      </trkpt>
      <trkpt lat="41.3934" lon="9.16505">
        <ele>-9.96</ele>
        <time>2014-06-06T12:26:34Z</time>
      </trkpt>
      <trkpt lat="41.39332" lon="9.16507">
        <ele>-9.96</ele>
        <time>2014-06-06T12:26:35Z</time>
      </trkpt>
      <trkpt lat="41.39325" lon="9.16508">
        <ele>-10.44</ele>
        <time>2014-06-06T12:26:36Z</time>
      </trkpt>
      <trkpt lat="41.3932" lon="9.16512">
        <ele>-10.92</ele>
        <time>2014-06-06T12:26:37Z</time>
      </trkpt>
      <trkpt lat="41.39313" lon="9.16516">
        <ele>-11.88</ele>
        <time>2014-06-06T12:26:38Z</time>
      </trkpt>
      <trkpt lat="41.39305" lon="9.16521">
        <ele>-12.84</ele>
        <time>2014-06-06T12:26:39Z</time>
      </trkpt>
      <trkpt lat="41.39299" lon="9.16528">
        <ele>-13.32</ele>
        <time>2014-06-06T12:26:40Z</time>
      </trkpt>
      <trkpt lat="41.39291" lon="9.16539">
        <ele>-11.4</ele>
        <time>2014-06-06T12:26:41Z</time>
      </trkpt>
      <trkpt lat="41.39273" lon="9.16553">
        <ele>-10.44</ele>
        <time>2014-06-06T12:26:44Z</time>
      </trkpt>
      <trkpt lat="41.39268" lon="9.16554">
        <ele>-10.44</ele>
        <time>2014-06-06T12:26:45Z</time>
      </trkpt>
      <trkpt lat="41.39262" lon="9.16554">
        <ele>-10.92</ele>
        <time>2014-06-06T12:26:46Z</time>
      </trkpt>
      <trkpt lat="41.39255" lon="9.16548">
        <ele>-11.88</ele>
        <time>2014-06-06T12:26:47Z</time>
      </trkpt>
      <trkpt lat="41.39248" lon="9.16549">
        <ele>-10.44</ele>
        <time>2014-06-06T12:26:48Z</time>
      </trkpt>
      <trkpt lat="41.39239" lon="9.16548">
        <ele>-9.48</ele>
        <time>2014-06-06T12:26:49Z</time>
      </trkpt>
      <trkpt lat="41.39231" lon="9.16546">
        <ele>-8.03</ele>
        <time>2014-06-06T12:26:50Z</time>
      </trkpt>
      <trkpt lat="41.39142" lon="9.16509">
        <ele>-5.15</ele>
        <time>2014-06-06T12:27:00Z</time>
      </trkpt>
      <trkpt lat="41.39096" lon="9.16504">
        <ele>-6.59</ele>
        <time>2014-06-06T12:27:08Z</time>
      </trkpt>
      <trkpt lat="41.39078" lon="9.16496">
        <ele>-6.59</ele>
        <time>2014-06-06T12:27:14Z</time>
      </trkpt>
      <trkpt lat="41.39073" lon="9.16487">
        <ele>-5.63</ele>
        <time>2014-06-06T12:27:17Z</time>
      </trkpt>
      <trkpt lat="41.3907" lon="9.16486">
        <ele>-5.15</ele>
        <time>2014-06-06T12:27:18Z</time>
      </trkpt>
      <trkpt lat="41.39066" lon="9.16482">
        <ele>-5.15</ele>
        <time>2014-06-06T12:27:21Z</time>
      </trkpt>
      <trkpt lat="41.39063" lon="9.16479">
        <ele>-5.15</ele>
        <time>2014-06-06T12:27:37Z</time>
      </trkpt>
      <trkpt lat="41.39064" lon="9.16483">
        <ele>-5.15</ele>
        <time>2014-06-06T12:27:53Z</time>
      </trkpt>
      <trkpt lat="41.39062" lon="9.1648">
        <ele>-5.63</ele>
        <time>2014-06-06T12:28:23Z</time>
      </trkpt>
      <trkpt lat="41.39056" lon="9.1647">
        <ele>-5.15</ele>
        <time>2014-06-06T12:28:43Z</time>
      </trkpt>
      <trkpt lat="41.3906" lon="9.16472">
        <ele>-4.67</ele>
        <time>2014-06-06T12:29:10Z</time>
      </trkpt>
      <trkpt lat="41.3906" lon="9.16475">
        <ele>-4.67</ele>
        <time>2014-06-06T12:29:43Z</time>
      </trkpt>
      <trkpt lat="41.3906" lon="9.16475">
        <ele>-5.15</ele>
        <time>2014-06-06T12:30:17Z</time>
      </trkpt>
      <trkpt lat="41.39053" lon="9.16463">
        <ele>-5.63</ele>
        <time>2014-06-06T12:30:37Z</time>
      </trkpt>
      <trkpt lat="41.39053" lon="9.16462">
        <ele>-7.55</ele>
        <time>2014-06-06T12:31:05Z</time>
      </trkpt>
      <trkpt lat="41.39057" lon="9.16467">
        <ele>-7.07</ele>
        <time>2014-06-06T12:31:35Z</time>
      </trkpt>
      <trkpt lat="41.39057" lon="9.16469">
        <ele>-6.59</ele>
        <time>2014-06-06T12:32:10Z</time>
      </trkpt>
      <trkpt lat="41.39057" lon="9.16468">
        <ele>-6.59</ele>
        <time>2014-06-06T12:32:39Z</time>
      </trkpt>
      <trkpt lat="41.39054" lon="9.16464">
        <ele>-6.11</ele>
        <time>2014-06-06T12:33:06Z</time>
      </trkpt>
      <trkpt lat="41.3905" lon="9.16462">
        <ele>-5.15</ele>
        <time>2014-06-06T12:33:28Z</time>
      </trkpt>
      <trkpt lat="41.39061" lon="9.16476">
        <ele>-5.15</ele>
        <time>2014-06-06T12:33:43Z</time>
      </trkpt>
      <trkpt lat="41.39057" lon="9.16476">
        <ele>-4.19</ele>
        <time>2014-06-06T12:33:44Z</time>
      </trkpt>
      <trkpt lat="41.39053" lon="9.16479">
        <ele>-4.19</ele>
        <time>2014-06-06T12:33:45Z</time>
      </trkpt>
      <trkpt lat="41.3905" lon="9.16482">
        <ele>-4.67</ele>
        <time>2014-06-06T12:33:46Z</time>
      </trkpt>
      <trkpt lat="41.39047" lon="9.16486">
        <ele>-4.19</ele>
        <time>2014-06-06T12:33:47Z</time>
      </trkpt>
      <trkpt lat="41.39044" lon="9.1649">
        <ele>-4.67</ele>
        <time>2014-06-06T12:33:48Z</time>
      </trkpt>
      <trkpt lat="41.39042" lon="9.16494">
        <ele>-4.67</ele>
        <time>2014-06-06T12:33:49Z</time>
      </trkpt>
      <trkpt lat="41.39041" lon="9.16498">
        <ele>-4.67</ele>
        <time>2014-06-06T12:33:50Z</time>
      </trkpt>
      <trkpt lat="41.39037" lon="9.16506">
        <ele>-5.15</ele>
        <time>2014-06-06T12:33:52Z</time>
      </trkpt>
      <trkpt lat="41.39033" lon="9.1651">
        <ele>-5.15</ele>
        <time>2014-06-06T12:33:53Z</time>
      </trkpt>
      <trkpt lat="41.39028" lon="9.16513">
        <ele>-4.67</ele>
        <time>2014-06-06T12:33:54Z</time>
      </trkpt>
      <trkpt lat="41.3897" lon="9.16539">
        <ele>-5.15</ele>
        <time>2014-06-06T12:34:00Z</time>
      </trkpt>
      <trkpt lat="41.38911" lon="9.16562">
        <ele>-5.63</ele>
        <time>2014-06-06T12:34:08Z</time>
      </trkpt>
      <trkpt lat="41.38851" lon="9.16589">
        <ele>1.1</ele>
        <time>2014-06-06T12:34:15Z</time>
      </trkpt>
      <trkpt lat="41.38843" lon="9.16592">
        <ele>1.58</ele>
        <time>2014-06-06T12:34:16Z</time>
      </trkpt>
      <trkpt lat="41.38837" lon="9.16593">
        <ele>2.06</ele>
        <time>2014-06-06T12:34:17Z</time>
      </trkpt>
      <trkpt lat="41.38831" lon="9.16591">
        <ele>2.06</ele>
        <time>2014-06-06T12:34:18Z</time>
      </trkpt>
      <trkpt lat="41.38825" lon="9.16587">
        <ele>2.54</ele>
        <time>2014-06-06T12:34:19Z</time>
      </trkpt>
      <trkpt lat="41.38821" lon="9.1658">
        <ele>2.54</ele>
        <time>2014-06-06T12:34:20Z</time>
      </trkpt>
      <trkpt lat="41.38817" lon="9.16571">
        <ele>2.54</ele>
        <time>2014-06-06T12:34:21Z</time>
      </trkpt>
      <trkpt lat="41.38812" lon="9.16558">
        <ele>2.54</ele>
        <time>2014-06-06T12:34:22Z</time>
      </trkpt>
      <trkpt lat="41.38807" lon="9.16543">
        <ele>2.54</ele>
        <time>2014-06-06T12:34:23Z</time>
      </trkpt>
      <trkpt lat="41.38786" lon="9.16459">
        <ele>3.5</ele>
        <time>2014-06-06T12:34:29Z</time>
      </trkpt>
      <trkpt lat="41.38783" lon="9.16452">
        <ele>4.46</ele>
        <time>2014-06-06T12:34:30Z</time>
      </trkpt>
      <trkpt lat="41.3878" lon="9.16446">
        <ele>4.94</ele>
        <time>2014-06-06T12:34:31Z</time>
      </trkpt>
      <trkpt lat="41.38772" lon="9.16426">
        <ele>6.39</ele>
        <time>2014-06-06T12:34:34Z</time>
      </trkpt>
      <trkpt lat="41.3877" lon="9.16418">
        <ele>6.87</ele>
        <time>2014-06-06T12:34:35Z</time>
      </trkpt>
      <trkpt lat="41.38769" lon="9.16407">
        <ele>7.35</ele>
        <time>2014-06-06T12:34:36Z</time>
      </trkpt>
      <trkpt lat="41.3877" lon="9.16393">
        <ele>7.83</ele>
        <time>2014-06-06T12:34:37Z</time>
      </trkpt>
      <trkpt lat="41.38771" lon="9.16378">
        <ele>8.31</ele>
        <time>2014-06-06T12:34:38Z</time>
      </trkpt>
      <trkpt lat="41.38772" lon="9.16365">
        <ele>8.79</ele>
        <time>2014-06-06T12:34:39Z</time>
      </trkpt>
      <trkpt lat="41.38778" lon="9.16317">
        <ele>10.23</ele>
        <time>2014-06-06T12:34:43Z</time>
      </trkpt>
      <trkpt lat="41.38776" lon="9.16304">
        <ele>10.71</ele>
        <time>2014-06-06T12:34:44Z</time>
      </trkpt>
      <trkpt lat="41.38781" lon="9.16218">
        <ele>13.12</ele>
        <time>2014-06-06T12:34:50Z</time>
      </trkpt>
      <trkpt lat="41.38778" lon="9.16207">
        <ele>13.6</ele>
        <time>2014-06-06T12:34:51Z</time>
      </trkpt>
      <trkpt lat="41.38774" lon="9.16198">
        <ele>15.04</ele>
        <time>2014-06-06T12:34:52Z</time>
      </trkpt>
      <trkpt lat="41.38768" lon="9.16191">
        <ele>16</ele>
        <time>2014-06-06T12:34:53Z</time>
      </trkpt>
      <trkpt lat="41.38762" lon="9.16185">
        <ele>16.96</ele>
        <time>2014-06-06T12:34:54Z</time>
      </trkpt>
      <trkpt lat="41.38743" lon="9.1616">
        <ele>20.32</ele>
        <time>2014-06-06T12:34:57Z</time>
      </trkpt>
      <trkpt lat="41.38738" lon="9.1615">
        <ele>21.29</ele>
        <time>2014-06-06T12:34:58Z</time>
      </trkpt>
      <trkpt lat="41.38711" lon="9.16083">
        <ele>24.65</ele>
        <time>2014-06-06T12:35:06Z</time>
      </trkpt>
      <trkpt lat="41.38711" lon="9.16077">
        <ele>24.65</ele>
        <time>2014-06-06T12:35:07Z</time>
      </trkpt>
      <trkpt lat="41.38712" lon="9.16072">
        <ele>24.65</ele>
        <time>2014-06-06T12:35:08Z</time>
      </trkpt>
      <trkpt lat="41.38717" lon="9.16064">
        <ele>24.65</ele>
        <time>2014-06-06T12:35:10Z</time>
      </trkpt>
      <trkpt lat="41.38722" lon="9.16063">
        <ele>25.13</ele>
        <time>2014-06-06T12:35:11Z</time>
      </trkpt>
      <trkpt lat="41.38728" lon="9.16064">
        <ele>25.13</ele>
        <time>2014-06-06T12:35:12Z</time>
      </trkpt>
      <trkpt lat="41.38736" lon="9.16067">
        <ele>25.13</ele>
        <time>2014-06-06T12:35:13Z</time>
      </trkpt>
      <trkpt lat="41.38746" lon="9.16073">
        <ele>25.13</ele>
        <time>2014-06-06T12:35:14Z</time>
      </trkpt>
      <trkpt lat="41.38773" lon="9.16086">
        <ele>26.57</ele>
        <time>2014-06-06T12:35:17Z</time>
      </trkpt>
      <trkpt lat="41.38783" lon="9.16088">
        <ele>26.57</ele>
        <time>2014-06-06T12:35:18Z</time>
      </trkpt>
      <trkpt lat="41.38791" lon="9.16088">
        <ele>27.05</ele>
        <time>2014-06-06T12:35:19Z</time>
      </trkpt>
      <trkpt lat="41.38819" lon="9.16084">
        <ele>27.53</ele>
        <time>2014-06-06T12:35:23Z</time>
      </trkpt>
      <trkpt lat="41.38822" lon="9.16082">
        <ele>27.53</ele>
        <time>2014-06-06T12:35:24Z</time>
      </trkpt>
      <trkpt lat="41.38824" lon="9.16081">
        <ele>28.02</ele>
        <time>2014-06-06T12:35:25Z</time>
      </trkpt>
      <trkpt lat="41.38827" lon="9.16078">
        <ele>28.02</ele>
        <time>2014-06-06T12:35:26Z</time>
      </trkpt>
      <trkpt lat="41.38828" lon="9.16075">
        <ele>27.53</ele>
        <time>2014-06-06T12:35:27Z</time>
      </trkpt>
      <trkpt lat="41.38829" lon="9.16072">
        <ele>27.53</ele>
        <time>2014-06-06T12:35:28Z</time>
      </trkpt>
      <trkpt lat="41.38831" lon="9.16067">
        <ele>27.53</ele>
        <time>2014-06-06T12:35:29Z</time>
      </trkpt>
      <trkpt lat="41.38831" lon="9.16062">
        <ele>27.05</ele>
        <time>2014-06-06T12:35:30Z</time>
      </trkpt>
      <trkpt lat="41.38832" lon="9.16057">
        <ele>27.05</ele>
        <time>2014-06-06T12:35:31Z</time>
      </trkpt>
      <trkpt lat="41.38835" lon="9.16031">
        <ele>28.02</ele>
        <time>2014-06-06T12:35:37Z</time>
      </trkpt>
      <trkpt lat="41.38817" lon="9.15946">
        <ele>22.73</ele>
        <time>2014-06-06T12:35:48Z</time>
      </trkpt>
      <trkpt lat="41.38809" lon="9.15882">
        <ele>20.32</ele>
        <time>2014-06-06T12:35:55Z</time>
      </trkpt>
      <trkpt lat="41.38809" lon="9.15844">
        <ele>17.92</ele>
        <time>2014-06-06T12:36:00Z</time>
      </trkpt>
      <trkpt lat="41.38807" lon="9.15838">
        <ele>17.44</ele>
        <time>2014-06-06T12:36:01Z</time>
      </trkpt>
      <trkpt lat="41.38778" lon="9.15784">
        <ele>12.63</ele>
        <time>2014-06-06T12:36:10Z</time>
      </trkpt>
      <trkpt lat="41.38771" lon="9.15783">
        <ele>12.15</ele>
        <time>2014-06-06T12:36:11Z</time>
      </trkpt>
      <trkpt lat="41.38765" lon="9.15787">
        <ele>11.67</ele>
        <time>2014-06-06T12:36:12Z</time>
      </trkpt>
      <trkpt lat="41.38756" lon="9.15791">
        <ele>11.19</ele>
        <time>2014-06-06T12:36:13Z</time>
      </trkpt>
      <trkpt lat="41.38748" lon="9.15794">
        <ele>10.71</ele>
        <time>2014-06-06T12:36:14Z</time>
      </trkpt>
      <trkpt lat="41.38734" lon="9.15801">
        <ele>10.23</ele>
        <time>2014-06-06T12:36:16Z</time>
      </trkpt>
      <trkpt lat="41.3873" lon="9.15798">
        <ele>9.75</ele>
        <time>2014-06-06T12:36:17Z</time>
      </trkpt>
      <trkpt lat="41.3873" lon="9.15791">
        <ele>9.27</ele>
        <time>2014-06-06T12:36:18Z</time>
      </trkpt>
      <trkpt lat="41.3873" lon="9.15785">
        <ele>9.27</ele>
        <time>2014-06-06T12:36:19Z</time>
      </trkpt>
      <trkpt lat="41.3873" lon="9.15776">
        <ele>8.79</ele>
        <time>2014-06-06T12:36:20Z</time>
      </trkpt>
      <trkpt lat="41.38727" lon="9.15765">
        <ele>9.27</ele>
        <time>2014-06-06T12:36:21Z</time>
      </trkpt>
      <trkpt lat="41.38726" lon="9.1573">
        <ele>12.63</ele>
        <time>2014-06-06T12:36:24Z</time>
      </trkpt>
      <trkpt lat="41.38726" lon="9.15718">
        <ele>13.6</ele>
        <time>2014-06-06T12:36:25Z</time>
      </trkpt>
      <trkpt lat="41.38726" lon="9.15707">
        <ele>15.04</ele>
        <time>2014-06-06T12:36:26Z</time>
      </trkpt>
      <trkpt lat="41.38726" lon="9.15678">
        <ele>19.36</ele>
        <time>2014-06-06T12:36:29Z</time>
      </trkpt>
      <trkpt lat="41.3873" lon="9.15671">
        <ele>21.29</ele>
        <time>2014-06-06T12:36:30Z</time>
      </trkpt>
      <trkpt lat="41.38745" lon="9.15619">
        <ele>36.19</ele>
        <time>2014-06-06T12:36:40Z</time>
      </trkpt>
      <trkpt lat="41.38744" lon="9.15607">
        <ele>37.15</ele>
        <time>2014-06-06T12:36:42Z</time>
      </trkpt>
      <trkpt lat="41.38744" lon="9.156">
        <ele>37.63</ele>
        <time>2014-06-06T12:36:43Z</time>
      </trkpt>
      <trkpt lat="41.3875" lon="9.15541">
        <ele>40.51</ele>
        <time>2014-06-06T12:36:54Z</time>
      </trkpt>
      <trkpt lat="41.38756" lon="9.1547">
        <ele>42.44</ele>
        <time>2014-06-06T12:37:06Z</time>
      </trkpt>
      <trkpt lat="41.38759" lon="9.15425">
        <ele>44.84</ele>
        <time>2014-06-06T12:37:15Z</time>
      </trkpt>
      <trkpt lat="41.38761" lon="9.15415">
        <ele>46.28</ele>
        <time>2014-06-06T12:37:17Z</time>
      </trkpt>
      <trkpt lat="41.38762" lon="9.15409">
        <ele>46.76</ele>
        <time>2014-06-06T12:37:18Z</time>
      </trkpt>
      <trkpt lat="41.38764" lon="9.15403">
        <ele>47.24</ele>
        <time>2014-06-06T12:37:19Z</time>
      </trkpt>
      <trkpt lat="41.38768" lon="9.15397">
        <ele>47.24</ele>
        <time>2014-06-06T12:37:20Z</time>
      </trkpt>
      <trkpt lat="41.38773" lon="9.15392">
        <ele>47.72</ele>
        <time>2014-06-06T12:37:21Z</time>
      </trkpt>
      <trkpt lat="41.38779" lon="9.15384">
        <ele>47.24</ele>
        <time>2014-06-06T12:37:22Z</time>
      </trkpt>
      <trkpt lat="41.38801" lon="9.15356">
        <ele>48.2</ele>
        <time>2014-06-06T12:37:25Z</time>
      </trkpt>
      <trkpt lat="41.38806" lon="9.15345">
        <ele>48.2</ele>
        <time>2014-06-06T12:37:26Z</time>
      </trkpt>
      <trkpt lat="41.38809" lon="9.15331">
        <ele>48.68</ele>
        <time>2014-06-06T12:37:27Z</time>
      </trkpt>
      <trkpt lat="41.38808" lon="9.15316">
        <ele>49.65</ele>
        <time>2014-06-06T12:37:28Z</time>
      </trkpt>
      <trkpt lat="41.38804" lon="9.15303">
        <ele>49.65</ele>
        <time>2014-06-06T12:37:29Z</time>
      </trkpt>
      <trkpt lat="41.38801" lon="9.15291">
        <ele>50.13</ele>
        <time>2014-06-06T12:37:30Z</time>
      </trkpt>
      <trkpt lat="41.38796" lon="9.15267">
        <ele>50.13</ele>
        <time>2014-06-06T12:37:32Z</time>
      </trkpt>
      <trkpt lat="41.38796" lon="9.15254">
        <ele>50.13</ele>
        <time>2014-06-06T12:37:33Z</time>
      </trkpt>
      <trkpt lat="41.38792" lon="9.15187">
        <ele>49.65</ele>
        <time>2014-06-06T12:37:38Z</time>
      </trkpt>
      <trkpt lat="41.3879" lon="9.15177">
        <ele>49.16</ele>
        <time>2014-06-06T12:37:39Z</time>
      </trkpt>
      <trkpt lat="41.38786" lon="9.15169">
        <ele>49.65</ele>
        <time>2014-06-06T12:37:40Z</time>
      </trkpt>
      <trkpt lat="41.38783" lon="9.15165">
        <ele>50.13</ele>
        <time>2014-06-06T12:37:41Z</time>
      </trkpt>
      <trkpt lat="41.3878" lon="9.15162">
        <ele>49.65</ele>
        <time>2014-06-06T12:37:42Z</time>
      </trkpt>
      <trkpt lat="41.38777" lon="9.15161">
        <ele>49.16</ele>
        <time>2014-06-06T12:37:43Z</time>
      </trkpt>
      <trkpt lat="41.38774" lon="9.15161">
        <ele>49.16</ele>
        <time>2014-06-06T12:37:44Z</time>
      </trkpt>
      <trkpt lat="41.38772" lon="9.15164">
        <ele>48.68</ele>
        <time>2014-06-06T12:37:45Z</time>
      </trkpt>
      <trkpt lat="41.38773" lon="9.15167">
        <ele>48.68</ele>
        <time>2014-06-06T12:37:46Z</time>
      </trkpt>
      <trkpt lat="41.38775" lon="9.15169">
        <ele>48.68</ele>
        <time>2014-06-06T12:37:47Z</time>
      </trkpt>
      <trkpt lat="41.38779" lon="9.15172">
        <ele>48.2</ele>
        <time>2014-06-06T12:37:48Z</time>
      </trkpt>
      <trkpt lat="41.38788" lon="9.15183">
        <ele>48.2</ele>
        <time>2014-06-06T12:37:50Z</time>
      </trkpt>
      <trkpt lat="41.38791" lon="9.15193">
        <ele>48.2</ele>
        <time>2014-06-06T12:37:51Z</time>
      </trkpt>
      <trkpt lat="41.38793" lon="9.15207">
        <ele>48.2</ele>
        <time>2014-06-06T12:37:52Z</time>
      </trkpt>
      <trkpt lat="41.388" lon="9.15298">
        <ele>49.65</ele>
        <time>2014-06-06T12:37:58Z</time>
      </trkpt>
      <trkpt lat="41.38803" lon="9.15338">
        <ele>50.13</ele>
        <time>2014-06-06T12:38:01Z</time>
      </trkpt>
      <trkpt lat="41.38798" lon="9.15348">
        <ele>50.61</ele>
        <time>2014-06-06T12:38:02Z</time>
      </trkpt>
      <trkpt lat="41.38792" lon="9.1536">
        <ele>51.09</ele>
        <time>2014-06-06T12:38:03Z</time>
      </trkpt>
      <trkpt lat="41.38785" lon="9.1537">
        <ele>50.61</ele>
        <time>2014-06-06T12:38:04Z</time>
      </trkpt>
      <trkpt lat="41.38779" lon="9.15379">
        <ele>49.65</ele>
        <time>2014-06-06T12:38:05Z</time>
      </trkpt>
      <trkpt lat="41.38759" lon="9.15404">
        <ele>52.05</ele>
        <time>2014-06-06T12:38:09Z</time>
      </trkpt>
      <trkpt lat="41.38757" lon="9.15409">
        <ele>53.01</ele>
        <time>2014-06-06T12:38:10Z</time>
      </trkpt>
      <trkpt lat="41.38756" lon="9.15413">
        <ele>53.01</ele>
        <time>2014-06-06T12:38:11Z</time>
      </trkpt>
      <trkpt lat="41.38755" lon="9.15419">
        <ele>53.49</ele>
        <time>2014-06-06T12:38:12Z</time>
      </trkpt>
      <trkpt lat="41.38754" lon="9.15425">
        <ele>53.01</ele>
        <time>2014-06-06T12:38:13Z</time>
      </trkpt>
      <trkpt lat="41.3875" lon="9.15494">
        <ele>51.57</ele>
        <time>2014-06-06T12:38:23Z</time>
      </trkpt>
      <trkpt lat="41.38749" lon="9.15499">
        <ele>51.09</ele>
        <time>2014-06-06T12:38:36Z</time>
      </trkpt>
      <trkpt lat="41.38749" lon="9.155">
        <ele>50.61</ele>
        <time>2014-06-06T12:39:02Z</time>
      </trkpt>
      <trkpt lat="41.38748" lon="9.15498">
        <ele>51.09</ele>
        <time>2014-06-06T12:39:35Z</time>
      </trkpt>
      <trkpt lat="41.38749" lon="9.15497">
        <ele>51.57</ele>
        <time>2014-06-06T12:40:08Z</time>
      </trkpt>
      <trkpt lat="41.3875" lon="9.15499">
        <ele>51.57</ele>
        <time>2014-06-06T12:40:38Z</time>
      </trkpt>
      <trkpt lat="41.38748" lon="9.155">
        <ele>51.57</ele>
        <time>2014-06-06T12:41:16Z</time>
      </trkpt>
      <trkpt lat="41.3875" lon="9.15501">
        <ele>52.05</ele>
        <time>2014-06-06T12:42:42Z</time>
      </trkpt>
      <trkpt lat="41.38751" lon="9.15501">
        <ele>52.53</ele>
        <time>2014-06-06T12:43:57Z</time>
      </trkpt>
      <trkpt lat="41.38751" lon="9.155">
        <ele>53.01</ele>
        <time>2014-06-06T12:45:29Z</time>
      </trkpt>
      <trkpt lat="41.38751" lon="9.155">
        <ele>53.01</ele>
        <time>2014-06-06T12:46:53Z</time>
      </trkpt>
      <trkpt lat="41.38751" lon="9.155">
        <ele>53.01</ele>
        <time>2014-06-06T12:48:33Z</time>
      </trkpt>
      <trkpt lat="41.38751" lon="9.155">
        <ele>53.49</ele>
        <time>2014-06-06T12:49:55Z</time>
      </trkpt>
      <trkpt lat="41.38753" lon="9.15497">
        <ele>57.34</ele>
        <time>2014-06-06T12:51:19Z</time>
      </trkpt>
      <trkpt lat="41.38753" lon="9.15497">
        <ele>57.82</ele>
        <time>2014-06-06T12:52:30Z</time>
      </trkpt>
      <trkpt lat="41.38753" lon="9.15497">
        <ele>57.82</ele>
        <time>2014-06-06T12:53:55Z</time>
      </trkpt>
      <trkpt lat="41.38754" lon="9.15497">
        <ele>57.82</ele>
        <time>2014-06-06T12:55:29Z</time>
      </trkpt>
      <trkpt lat="41.38757" lon="9.15498">
        <ele>57.82</ele>
        <time>2014-06-06T12:56:36Z</time>
      </trkpt>
      <trkpt lat="41.38761" lon="9.15499">
        <ele>58.3</ele>
        <time>2014-06-06T12:57:37Z</time>
      </trkpt>
      <trkpt lat="41.38765" lon="9.15501">
        <ele>55.41</ele>
        <time>2014-06-06T12:58:34Z</time>
      </trkpt>
      <trkpt lat="41.38764" lon="9.15498">
        <ele>58.3</ele>
        <time>2014-06-06T12:59:20Z</time>
      </trkpt>
      <trkpt lat="41.38768" lon="9.15497">
        <ele>60.22</ele>
        <time>2014-06-06T13:00:12Z</time>
      </trkpt>
      <trkpt lat="41.38772" lon="9.15497">
        <ele>62.14</ele>
        <time>2014-06-06T13:00:57Z</time>
      </trkpt>
      <trkpt lat="41.38768" lon="9.15496">
        <ele>63.58</ele>
        <time>2014-06-06T13:01:37Z</time>
      </trkpt>
      <trkpt lat="41.38767" lon="9.15496">
        <ele>65.51</ele>
        <time>2014-06-06T13:02:17Z</time>
      </trkpt>
      <trkpt lat="41.38764" lon="9.15497">
        <ele>64.07</ele>
        <time>2014-06-06T13:02:50Z</time>
      </trkpt>
      <trkpt lat="41.38763" lon="9.15498">
        <ele>62.62</ele>
        <time>2014-06-06T13:03:37Z</time>
      </trkpt>
      <trkpt lat="41.38765" lon="9.15498">
        <ele>61.66</ele>
        <time>2014-06-06T13:04:19Z</time>
      </trkpt>
      <trkpt lat="41.38768" lon="9.15497">
        <ele>60.22</ele>
        <time>2014-06-06T13:05:11Z</time>
      </trkpt>
      <trkpt lat="41.38769" lon="9.15497">
        <ele>60.7</ele>
        <time>2014-06-06T13:06:09Z</time>
      </trkpt>
      <trkpt lat="41.3877" lon="9.15497">
        <ele>60.22</ele>
        <time>2014-06-06T13:07:08Z</time>
      </trkpt>
      <trkpt lat="41.38769" lon="9.15497">
        <ele>56.37</ele>
        <time>2014-06-06T13:08:40Z</time>
      </trkpt>
      <trkpt lat="41.38769" lon="9.15497">
        <ele>54.93</ele>
        <time>2014-06-06T13:09:30Z</time>
      </trkpt>
      <trkpt lat="41.38769" lon="9.15497">
        <ele>52.53</ele>
        <time>2014-06-06T13:10:36Z</time>
      </trkpt>
      <trkpt lat="41.38773" lon="9.15495">
        <ele>56.86</ele>
        <time>2014-06-06T13:11:52Z</time>
      </trkpt>
      <trkpt lat="41.38775" lon="9.15495">
        <ele>55.89</ele>
        <time>2014-06-06T13:13:07Z</time>
      </trkpt>
      <trkpt lat="41.38776" lon="9.15496">
        <ele>54.45</ele>
        <time>2014-06-06T13:14:27Z</time>
      </trkpt>
      <trkpt lat="41.3878" lon="9.15493">
        <ele>59.26</ele>
        <time>2014-06-06T13:15:27Z</time>
      </trkpt>
      <trkpt lat="41.38785" lon="9.15491">
        <ele>61.66</ele>
        <time>2014-06-06T13:16:39Z</time>
      </trkpt>
      <trkpt lat="41.38788" lon="9.1549">
        <ele>61.18</ele>
        <time>2014-06-06T13:17:51Z</time>
      </trkpt>
      <trkpt lat="41.38789" lon="9.15491">
        <ele>56.86</ele>
        <time>2014-06-06T13:19:12Z</time>
      </trkpt>
      <trkpt lat="41.38791" lon="9.15491">
        <ele>57.34</ele>
        <time>2014-06-06T13:20:13Z</time>
      </trkpt>
      <trkpt lat="41.38796" lon="9.15489">
        <ele>57.82</ele>
        <time>2014-06-06T13:21:23Z</time>
      </trkpt>
      <trkpt lat="41.38792" lon="9.1549">
        <ele>56.86</ele>
        <time>2014-06-06T13:22:40Z</time>
      </trkpt>
      <trkpt lat="41.38762" lon="9.15496">
        <ele>52.05</ele>
        <time>2014-06-06T13:23:49Z</time>
      </trkpt>
      <trkpt lat="41.38769" lon="9.15494">
        <ele>51.57</ele>
        <time>2014-06-06T13:24:33Z</time>
      </trkpt>
      <trkpt lat="41.38763" lon="9.15494">
        <ele>51.09</ele>
        <time>2014-06-06T13:25:29Z</time>
      </trkpt>
      <trkpt lat="41.38741" lon="9.15496">
        <ele>54.45</ele>
        <time>2014-06-06T13:26:34Z</time>
      </trkpt>
      <trkpt lat="41.38749" lon="9.15494">
        <ele>54.93</ele>
        <time>2014-06-06T13:27:18Z</time>
      </trkpt>
      <trkpt lat="41.38745" lon="9.15497">
        <ele>54.45</ele>
        <time>2014-06-06T13:27:41Z</time>
      </trkpt>
      <trkpt lat="41.38747" lon="9.15497">
        <ele>54.93</ele>
        <time>2014-06-06T13:28:14Z</time>
      </trkpt>
      <trkpt lat="41.38751" lon="9.15496">
        <ele>55.41</ele>
        <time>2014-06-06T13:29:03Z</time>
      </trkpt>
      <trkpt lat="41.38758" lon="9.15494">
        <ele>54.45</ele>
        <time>2014-06-06T13:29:53Z</time>
      </trkpt>
      <trkpt lat="41.38793" lon="9.15482">
        <ele>52.53</ele>
        <time>2014-06-06T13:30:50Z</time>
      </trkpt>
      <trkpt lat="41.38799" lon="9.15479">
        <ele>51.09</ele>
        <time>2014-06-06T13:31:47Z</time>
      </trkpt>
      <trkpt lat="41.38802" lon="9.15477">
        <ele>49.65</ele>
        <time>2014-06-06T13:32:33Z</time>
      </trkpt>
      <trkpt lat="41.38801" lon="9.15477">
        <ele>48.68</ele>
        <time>2014-06-06T13:33:07Z</time>
      </trkpt>
      <trkpt lat="41.38767" lon="9.15488">
        <ele>49.65</ele>
        <time>2014-06-06T13:33:54Z</time>
      </trkpt>
      <trkpt lat="41.38743" lon="9.15498">
        <ele>47.72</ele>
        <time>2014-06-06T13:34:46Z</time>
      </trkpt>
      <trkpt lat="41.38739" lon="9.15499">
        <ele>49.65</ele>
        <time>2014-06-06T13:35:44Z</time>
      </trkpt>
      <trkpt lat="41.38743" lon="9.15498">
        <ele>51.09</ele>
        <time>2014-06-06T13:36:32Z</time>
      </trkpt>
      <trkpt lat="41.38743" lon="9.15498">
        <ele>51.57</ele>
        <time>2014-06-06T13:38:08Z</time>
      </trkpt>
      <trkpt lat="41.38741" lon="9.15522">
        <ele>51.57</ele>
        <time>2014-06-06T13:38:38Z</time>
      </trkpt>
      <trkpt lat="41.38736" lon="9.15551">
        <ele>51.09</ele>
        <time>2014-06-06T13:38:41Z</time>
      </trkpt>
      <trkpt lat="41.38737" lon="9.15567">
        <ele>50.13</ele>
        <time>2014-06-06T13:38:43Z</time>
      </trkpt>
      <trkpt lat="41.38744" lon="9.15616">
        <ele>46.28</ele>
        <time>2014-06-06T13:38:55Z</time>
      </trkpt>
      <trkpt lat="41.38742" lon="9.15626">
        <ele>46.28</ele>
        <time>2014-06-06T13:39:06Z</time>
      </trkpt>
      <trkpt lat="41.38741" lon="9.15629">
        <ele>45.8</ele>
        <time>2014-06-06T13:39:07Z</time>
      </trkpt>
      <trkpt lat="41.38745" lon="9.15655">
        <ele>42.44</ele>
        <time>2014-06-06T13:39:14Z</time>
      </trkpt>
      <trkpt lat="41.38743" lon="9.1566">
        <ele>41.47</ele>
        <time>2014-06-06T13:39:15Z</time>
      </trkpt>
      <trkpt lat="41.38742" lon="9.15663">
        <ele>40.99</ele>
        <time>2014-06-06T13:39:16Z</time>
      </trkpt>
      <trkpt lat="41.3874" lon="9.15668">
        <ele>40.03</ele>
        <time>2014-06-06T13:39:17Z</time>
      </trkpt>
      <trkpt lat="41.38737" lon="9.15673">
        <ele>39.07</ele>
        <time>2014-06-06T13:39:18Z</time>
      </trkpt>
      <trkpt lat="41.38727" lon="9.15699">
        <ele>36.19</ele>
        <time>2014-06-06T13:39:23Z</time>
      </trkpt>
      <trkpt lat="41.38711" lon="9.15742">
        <ele>28.98</ele>
        <time>2014-06-06T13:39:35Z</time>
      </trkpt>
      <trkpt lat="41.38711" lon="9.15747">
        <ele>27.53</ele>
        <time>2014-06-06T13:39:37Z</time>
      </trkpt>
      <trkpt lat="41.3871" lon="9.1575">
        <ele>27.53</ele>
        <time>2014-06-06T13:39:38Z</time>
      </trkpt>
      <trkpt lat="41.38706" lon="9.1576">
        <ele>28.02</ele>
        <time>2014-06-06T13:39:43Z</time>
      </trkpt>
      <trkpt lat="41.38705" lon="9.15774">
        <ele>26.09</ele>
        <time>2014-06-06T13:39:49Z</time>
      </trkpt>
      <trkpt lat="41.38705" lon="9.15777">
        <ele>26.09</ele>
        <time>2014-06-06T13:39:50Z</time>
      </trkpt>
      <trkpt lat="41.38705" lon="9.1578">
        <ele>26.57</ele>
        <time>2014-06-06T13:39:51Z</time>
      </trkpt>
      <trkpt lat="41.38706" lon="9.15783">
        <ele>28.02</ele>
        <time>2014-06-06T13:39:52Z</time>
      </trkpt>
      <trkpt lat="41.38705" lon="9.15785">
        <ele>28.02</ele>
        <time>2014-06-06T13:39:53Z</time>
      </trkpt>
      <trkpt lat="41.38703" lon="9.15786">
        <ele>28.02</ele>
        <time>2014-06-06T13:39:54Z</time>
      </trkpt>
      <trkpt lat="41.38704" lon="9.15792">
        <ele>28.98</ele>
        <time>2014-06-06T13:39:59Z</time>
      </trkpt>
      <trkpt lat="41.387" lon="9.15796">
        <ele>28.02</ele>
        <time>2014-06-06T13:40:02Z</time>
      </trkpt>
      <trkpt lat="41.38698" lon="9.15797">
        <ele>27.53</ele>
        <time>2014-06-06T13:40:03Z</time>
      </trkpt>
      <trkpt lat="41.38711" lon="9.15823">
        <ele>28.02</ele>
        <time>2014-06-06T13:40:12Z</time>
      </trkpt>
      <trkpt lat="41.38714" lon="9.15825">
        <ele>27.53</ele>
        <time>2014-06-06T13:40:13Z</time>
      </trkpt>
      <trkpt lat="41.38716" lon="9.15825">
        <ele>27.05</ele>
        <time>2014-06-06T13:40:14Z</time>
      </trkpt>
      <trkpt lat="41.38735" lon="9.15824">
        <ele>19.84</ele>
        <time>2014-06-06T13:40:28Z</time>
      </trkpt>
      <trkpt lat="41.38735" lon="9.15824">
        <ele>17.44</ele>
        <time>2014-06-06T13:40:32Z</time>
      </trkpt>
      <trkpt lat="41.38736" lon="9.15823">
        <ele>17.44</ele>
        <time>2014-06-06T13:40:33Z</time>
      </trkpt>
      <trkpt lat="41.38737" lon="9.15822">
        <ele>16.96</ele>
        <time>2014-06-06T13:40:34Z</time>
      </trkpt>
      <trkpt lat="41.38745" lon="9.15822">
        <ele>16.48</ele>
        <time>2014-06-06T13:40:37Z</time>
      </trkpt>
      <trkpt lat="41.38749" lon="9.15824">
        <ele>15.52</ele>
        <time>2014-06-06T13:40:39Z</time>
      </trkpt>
      <trkpt lat="41.38751" lon="9.15822">
        <ele>15.52</ele>
        <time>2014-06-06T13:40:40Z</time>
      </trkpt>
      <trkpt lat="41.38767" lon="9.15813">
        <ele>15.04</ele>
        <time>2014-06-06T13:40:45Z</time>
      </trkpt>
      <trkpt lat="41.38771" lon="9.15815">
        <ele>15.52</ele>
        <time>2014-06-06T13:40:46Z</time>
      </trkpt>
      <trkpt lat="41.38773" lon="9.15819">
        <ele>23.21</ele>
        <time>2014-06-06T13:40:53Z</time>
      </trkpt>
      <trkpt lat="41.38774" lon="9.15821">
        <ele>23.69</ele>
        <time>2014-06-06T13:40:54Z</time>
      </trkpt>
      <trkpt lat="41.38775" lon="9.15823">
        <ele>24.65</ele>
        <time>2014-06-06T13:40:55Z</time>
      </trkpt>
      <trkpt lat="41.38775" lon="9.15826">
        <ele>26.09</ele>
        <time>2014-06-06T13:40:56Z</time>
      </trkpt>
      <trkpt lat="41.38776" lon="9.15833">
        <ele>26.09</ele>
        <time>2014-06-06T13:40:57Z</time>
      </trkpt>
      <trkpt lat="41.38777" lon="9.15839">
        <ele>27.05</ele>
        <time>2014-06-06T13:40:58Z</time>
      </trkpt>
      <trkpt lat="41.38783" lon="9.1589">
        <ele>31.86</ele>
        <time>2014-06-06T13:41:07Z</time>
      </trkpt>
      <trkpt lat="41.38795" lon="9.15957">
        <ele>29.94</ele>
        <time>2014-06-06T13:41:17Z</time>
      </trkpt>
      <trkpt lat="41.38824" lon="9.16035">
        <ele>29.46</ele>
        <time>2014-06-06T13:41:30Z</time>
      </trkpt>
      <trkpt lat="41.3883" lon="9.16051">
        <ele>29.46</ele>
        <time>2014-06-06T13:41:33Z</time>
      </trkpt>
      <trkpt lat="41.3883" lon="9.16058">
        <ele>29.46</ele>
        <time>2014-06-06T13:41:34Z</time>
      </trkpt>
      <trkpt lat="41.38828" lon="9.16066">
        <ele>29.46</ele>
        <time>2014-06-06T13:41:35Z</time>
      </trkpt>
      <trkpt lat="41.38825" lon="9.16074">
        <ele>28.98</ele>
        <time>2014-06-06T13:41:36Z</time>
      </trkpt>
      <trkpt lat="41.3882" lon="9.16081">
        <ele>28.98</ele>
        <time>2014-06-06T13:41:37Z</time>
      </trkpt>
      <trkpt lat="41.38813" lon="9.16084">
        <ele>28.5</ele>
        <time>2014-06-06T13:41:38Z</time>
      </trkpt>
      <trkpt lat="41.38805" lon="9.16086">
        <ele>27.53</ele>
        <time>2014-06-06T13:41:39Z</time>
      </trkpt>
      <trkpt lat="41.38796" lon="9.16087">
        <ele>27.53</ele>
        <time>2014-06-06T13:41:40Z</time>
      </trkpt>
      <trkpt lat="41.38762" lon="9.16084">
        <ele>27.53</ele>
        <time>2014-06-06T13:41:44Z</time>
      </trkpt>
      <trkpt lat="41.38755" lon="9.1608">
        <ele>27.05</ele>
        <time>2014-06-06T13:41:45Z</time>
      </trkpt>
      <trkpt lat="41.38727" lon="9.16066">
        <ele>27.53</ele>
        <time>2014-06-06T13:41:50Z</time>
      </trkpt>
      <trkpt lat="41.38721" lon="9.16065">
        <ele>27.05</ele>
        <time>2014-06-06T13:41:51Z</time>
      </trkpt>
      <trkpt lat="41.38716" lon="9.16065">
        <ele>27.05</ele>
        <time>2014-06-06T13:41:52Z</time>
      </trkpt>
      <trkpt lat="41.38711" lon="9.16067">
        <ele>25.13</ele>
        <time>2014-06-06T13:41:53Z</time>
      </trkpt>
      <trkpt lat="41.38707" lon="9.16071">
        <ele>25.13</ele>
        <time>2014-06-06T13:41:54Z</time>
      </trkpt>
      <trkpt lat="41.38705" lon="9.16076">
        <ele>23.69</ele>
        <time>2014-06-06T13:41:55Z</time>
      </trkpt>
      <trkpt lat="41.38705" lon="9.16082">
        <ele>24.17</ele>
        <time>2014-06-06T13:41:56Z</time>
      </trkpt>
      <trkpt lat="41.38707" lon="9.16089">
        <ele>23.69</ele>
        <time>2014-06-06T13:41:57Z</time>
      </trkpt>
      <trkpt lat="41.3871" lon="9.16096">
        <ele>22.73</ele>
        <time>2014-06-06T13:41:58Z</time>
      </trkpt>
      <trkpt lat="41.38712" lon="9.16104">
        <ele>21.77</ele>
        <time>2014-06-06T13:41:59Z</time>
      </trkpt>
      <trkpt lat="41.38754" lon="9.16188">
        <ele>17.92</ele>
        <time>2014-06-06T13:42:09Z</time>
      </trkpt>
      <trkpt lat="41.3876" lon="9.16192">
        <ele>17.92</ele>
        <time>2014-06-06T13:42:10Z</time>
      </trkpt>
      <trkpt lat="41.38776" lon="9.16209">
        <ele>16.96</ele>
        <time>2014-06-06T13:42:13Z</time>
      </trkpt>
      <trkpt lat="41.38779" lon="9.16217">
        <ele>16.48</ele>
        <time>2014-06-06T13:42:14Z</time>
      </trkpt>
      <trkpt lat="41.38782" lon="9.16224">
        <ele>16.48</ele>
        <time>2014-06-06T13:42:15Z</time>
      </trkpt>
      <trkpt lat="41.38783" lon="9.16233">
        <ele>16</ele>
        <time>2014-06-06T13:42:16Z</time>
      </trkpt>
      <trkpt lat="41.38784" lon="9.1624">
        <ele>16</ele>
        <time>2014-06-06T13:42:17Z</time>
      </trkpt>
      <trkpt lat="41.38783" lon="9.16248">
        <ele>15.04</ele>
        <time>2014-06-06T13:42:18Z</time>
      </trkpt>
      <trkpt lat="41.38782" lon="9.16256">
        <ele>14.08</ele>
        <time>2014-06-06T13:42:19Z</time>
      </trkpt>
      <trkpt lat="41.3878" lon="9.16263">
        <ele>14.08</ele>
        <time>2014-06-06T13:42:20Z</time>
      </trkpt>
      <trkpt lat="41.38778" lon="9.16272">
        <ele>13.6</ele>
        <time>2014-06-06T13:42:21Z</time>
      </trkpt>
      <trkpt lat="41.38775" lon="9.16289">
        <ele>12.63</ele>
        <time>2014-06-06T13:42:23Z</time>
      </trkpt>
      <trkpt lat="41.38775" lon="9.16298">
        <ele>12.15</ele>
        <time>2014-06-06T13:42:24Z</time>
      </trkpt>
      <trkpt lat="41.38775" lon="9.16307">
        <ele>12.15</ele>
        <time>2014-06-06T13:42:25Z</time>
      </trkpt>
      <trkpt lat="41.38776" lon="9.16315">
        <ele>12.15</ele>
        <time>2014-06-06T13:42:26Z</time>
      </trkpt>
      <trkpt lat="41.38777" lon="9.16322">
        <ele>11.19</ele>
        <time>2014-06-06T13:42:27Z</time>
      </trkpt>
      <trkpt lat="41.38776" lon="9.16339">
        <ele>10.71</ele>
        <time>2014-06-06T13:42:29Z</time>
      </trkpt>
      <trkpt lat="41.38774" lon="9.16348">
        <ele>9.75</ele>
        <time>2014-06-06T13:42:30Z</time>
      </trkpt>
      <trkpt lat="41.3877" lon="9.16376">
        <ele>8.79</ele>
        <time>2014-06-06T13:42:33Z</time>
      </trkpt>
      <trkpt lat="41.38772" lon="9.16428">
        <ele>6.87</ele>
        <time>2014-06-06T13:42:40Z</time>
      </trkpt>
      <trkpt lat="41.38774" lon="9.16434">
        <ele>6.87</ele>
        <time>2014-06-06T13:42:41Z</time>
      </trkpt>
      <trkpt lat="41.38776" lon="9.1644">
        <ele>6.87</ele>
        <time>2014-06-06T13:42:42Z</time>
      </trkpt>
      <trkpt lat="41.38779" lon="9.16444">
        <ele>7.35</ele>
        <time>2014-06-06T13:42:43Z</time>
      </trkpt>
      <trkpt lat="41.38781" lon="9.16449">
        <ele>6.87</ele>
        <time>2014-06-06T13:42:44Z</time>
      </trkpt>
      <trkpt lat="41.38784" lon="9.16454">
        <ele>6.39</ele>
        <time>2014-06-06T13:42:45Z</time>
      </trkpt>
      <trkpt lat="41.38793" lon="9.16465">
        <ele>5.42</ele>
        <time>2014-06-06T13:42:47Z</time>
      </trkpt>
      <trkpt lat="41.38805" lon="9.16489">
        <ele>4.46</ele>
        <time>2014-06-06T13:42:50Z</time>
      </trkpt>
      <trkpt lat="41.38807" lon="9.16498">
        <ele>3.98</ele>
        <time>2014-06-06T13:42:51Z</time>
      </trkpt>
      <trkpt lat="41.38818" lon="9.16567">
        <ele>1.58</ele>
        <time>2014-06-06T13:43:01Z</time>
      </trkpt>
      <trkpt lat="41.38821" lon="9.16583">
        <ele>-0.34</ele>
        <time>2014-06-06T13:43:05Z</time>
      </trkpt>
      <trkpt lat="41.38823" lon="9.16586">
        <ele>-0.34</ele>
        <time>2014-06-06T13:43:06Z</time>
      </trkpt>
      <trkpt lat="41.3884" lon="9.16593">
        <ele>-2.27</ele>
        <time>2014-06-06T13:43:11Z</time>
      </trkpt>
      <trkpt lat="41.38846" lon="9.16592">
        <ele>-2.27</ele>
        <time>2014-06-06T13:43:12Z</time>
      </trkpt>
      <trkpt lat="41.3886" lon="9.16596">
        <ele>-2.75</ele>
        <time>2014-06-06T13:43:15Z</time>
      </trkpt>
      <trkpt lat="41.38862" lon="9.16601">
        <ele>-3.23</ele>
        <time>2014-06-06T13:43:16Z</time>
      </trkpt>
      <trkpt lat="41.3886" lon="9.16608">
        <ele>-3.71</ele>
        <time>2014-06-06T13:43:17Z</time>
      </trkpt>
      <trkpt lat="41.38859" lon="9.16615">
        <ele>-3.71</ele>
        <time>2014-06-06T13:43:18Z</time>
      </trkpt>
      <trkpt lat="41.38856" lon="9.16622">
        <ele>-4.19</ele>
        <time>2014-06-06T13:43:19Z</time>
      </trkpt>
      <trkpt lat="41.38854" lon="9.16628">
        <ele>-3.71</ele>
        <time>2014-06-06T13:43:20Z</time>
      </trkpt>
      <trkpt lat="41.38827" lon="9.16681">
        <ele>-5.63</ele>
        <time>2014-06-06T13:43:31Z</time>
      </trkpt>
      <trkpt lat="41.38794" lon="9.16765">
        <ele>-9</ele>
        <time>2014-06-06T13:43:41Z</time>
      </trkpt>
      <trkpt lat="41.38791" lon="9.1678">
        <ele>-9</ele>
        <time>2014-06-06T13:43:43Z</time>
      </trkpt>
      <trkpt lat="41.38792" lon="9.16788">
        <ele>-9</ele>
        <time>2014-06-06T13:43:44Z</time>
      </trkpt>
      <trkpt lat="41.38794" lon="9.16794">
        <ele>-9</ele>
        <time>2014-06-06T13:43:45Z</time>
      </trkpt>
      <trkpt lat="41.38798" lon="9.16798">
        <ele>-8.51</ele>
        <time>2014-06-06T13:43:46Z</time>
      </trkpt>
      <trkpt lat="41.38805" lon="9.16802">
        <ele>-9</ele>
        <time>2014-06-06T13:43:47Z</time>
      </trkpt>
      <trkpt lat="41.38813" lon="9.16805">
        <ele>-9.96</ele>
        <time>2014-06-06T13:43:48Z</time>
      </trkpt>
      <trkpt lat="41.38838" lon="9.16811">
        <ele>-9</ele>
        <time>2014-06-06T13:43:51Z</time>
      </trkpt>
      <trkpt lat="41.38846" lon="9.1681">
        <ele>-9.48</ele>
        <time>2014-06-06T13:43:52Z</time>
      </trkpt>
      <trkpt lat="41.38854" lon="9.16806">
        <ele>-9</ele>
        <time>2014-06-06T13:43:53Z</time>
      </trkpt>
      <trkpt lat="41.38861" lon="9.16802">
        <ele>-8.51</ele>
        <time>2014-06-06T13:43:54Z</time>
      </trkpt>
      <trkpt lat="41.38868" lon="9.16796">
        <ele>-9</ele>
        <time>2014-06-06T13:43:55Z</time>
      </trkpt>
      <trkpt lat="41.38874" lon="9.16788">
        <ele>-9</ele>
        <time>2014-06-06T13:43:56Z</time>
      </trkpt>
      <trkpt lat="41.38881" lon="9.16781">
        <ele>-8.51</ele>
        <time>2014-06-06T13:43:57Z</time>
      </trkpt>
      <trkpt lat="41.38887" lon="9.16776">
        <ele>-8.51</ele>
        <time>2014-06-06T13:43:58Z</time>
      </trkpt>
      <trkpt lat="41.38894" lon="9.16773">
        <ele>-8.51</ele>
        <time>2014-06-06T13:43:59Z</time>
      </trkpt>
      <trkpt lat="41.38901" lon="9.16772">
        <ele>-8.03</ele>
        <time>2014-06-06T13:44:00Z</time>
      </trkpt>
      <trkpt lat="41.3893" lon="9.16761">
        <ele>-7.07</ele>
        <time>2014-06-06T13:44:04Z</time>
      </trkpt>
      <trkpt lat="41.38934" lon="9.16754">
        <ele>-7.07</ele>
        <time>2014-06-06T13:44:05Z</time>
      </trkpt>
      <trkpt lat="41.38935" lon="9.16745">
        <ele>-6.11</ele>
        <time>2014-06-06T13:44:06Z</time>
      </trkpt>
      <trkpt lat="41.38944" lon="9.16605">
        <ele>-1.79</ele>
        <time>2014-06-06T13:44:19Z</time>
      </trkpt>
      <trkpt lat="41.38949" lon="9.16556">
        <ele>-0.34</ele>
        <time>2014-06-06T13:44:25Z</time>
      </trkpt>
      <trkpt lat="41.38951" lon="9.16551">
        <ele>-0.34</ele>
        <time>2014-06-06T13:44:26Z</time>
      </trkpt>
      <trkpt lat="41.38956" lon="9.16546">
        <ele>0.14</ele>
        <time>2014-06-06T13:44:27Z</time>
      </trkpt>
      <trkpt lat="41.38962" lon="9.16541">
        <ele>0.14</ele>
        <time>2014-06-06T13:44:28Z</time>
      </trkpt>
      <trkpt lat="41.38969" lon="9.16538">
        <ele>0.14</ele>
        <time>2014-06-06T13:44:29Z</time>
      </trkpt>
      <trkpt lat="41.38977" lon="9.16535">
        <ele>-0.34</ele>
        <time>2014-06-06T13:44:30Z</time>
      </trkpt>
      <trkpt lat="41.39013" lon="9.16521">
        <ele>-0.34</ele>
        <time>2014-06-06T13:44:34Z</time>
      </trkpt>
      <trkpt lat="41.39133" lon="9.16508">
        <ele>-8.03</ele>
        <time>2014-06-06T13:44:47Z</time>
      </trkpt>
      <trkpt lat="41.39223" lon="9.16541">
        <ele>-11.4</ele>
        <time>2014-06-06T13:44:59Z</time>
      </trkpt>
      <trkpt lat="41.39257" lon="9.16558">
        <ele>-11.88</ele>
        <time>2014-06-06T13:45:03Z</time>
      </trkpt>
      <trkpt lat="41.39267" lon="9.1656">
        <ele>-11.88</ele>
        <time>2014-06-06T13:45:04Z</time>
      </trkpt>
      <trkpt lat="41.39275" lon="9.16559">
        <ele>-11.88</ele>
        <time>2014-06-06T13:45:05Z</time>
      </trkpt>
      <trkpt lat="41.39283" lon="9.16557">
        <ele>-11.88</ele>
        <time>2014-06-06T13:45:06Z</time>
      </trkpt>
      <trkpt lat="41.3929" lon="9.16551">
        <ele>-11.88</ele>
        <time>2014-06-06T13:45:07Z</time>
      </trkpt>
      <trkpt lat="41.39297" lon="9.16544">
        <ele>-12.84</ele>
        <time>2014-06-06T13:45:08Z</time>
      </trkpt>
      <trkpt lat="41.39319" lon="9.16523">
        <ele>-12.84</ele>
        <time>2014-06-06T13:45:11Z</time>
      </trkpt>
      <trkpt lat="41.39327" lon="9.16518">
        <ele>-13.32</ele>
        <time>2014-06-06T13:45:12Z</time>
      </trkpt>
      <trkpt lat="41.39336" lon="9.16514">
        <ele>-13.8</ele>
        <time>2014-06-06T13:45:13Z</time>
      </trkpt>
      <trkpt lat="41.39371" lon="9.16504">
        <ele>-13.8</ele>
        <time>2014-06-06T13:45:17Z</time>
      </trkpt>
      <trkpt lat="41.39379" lon="9.16499">
        <ele>-14.28</ele>
        <time>2014-06-06T13:45:18Z</time>
      </trkpt>
      <trkpt lat="41.39385" lon="9.16493">
        <ele>-14.76</ele>
        <time>2014-06-06T13:45:19Z</time>
      </trkpt>
      <trkpt lat="41.39391" lon="9.16484">
        <ele>-14.76</ele>
        <time>2014-06-06T13:45:20Z</time>
      </trkpt>
      <trkpt lat="41.39396" lon="9.16475">
        <ele>-15.24</ele>
        <time>2014-06-06T13:45:21Z</time>
      </trkpt>
      <trkpt lat="41.39402" lon="9.16466">
        <ele>-14.28</ele>
        <time>2014-06-06T13:45:22Z</time>
      </trkpt>
      <trkpt lat="41.39448" lon="9.16367">
        <ele>-10.92</ele>
        <time>2014-06-06T13:45:33Z</time>
      </trkpt>
      <trkpt lat="41.39466" lon="9.16296">
        <ele>-7.55</ele>
        <time>2014-06-06T13:45:39Z</time>
      </trkpt>
      <trkpt lat="41.39471" lon="9.16286">
        <ele>-7.07</ele>
        <time>2014-06-06T13:45:40Z</time>
      </trkpt>
      <trkpt lat="41.39477" lon="9.16276">
        <ele>-6.59</ele>
        <time>2014-06-06T13:45:41Z</time>
      </trkpt>
      <trkpt lat="41.39485" lon="9.16268">
        <ele>-6.11</ele>
        <time>2014-06-06T13:45:42Z</time>
      </trkpt>
      <trkpt lat="41.39493" lon="9.16261">
        <ele>-5.15</ele>
        <time>2014-06-06T13:45:43Z</time>
      </trkpt>
      <trkpt lat="41.39502" lon="9.16255">
        <ele>-4.19</ele>
        <time>2014-06-06T13:45:44Z</time>
      </trkpt>
      <trkpt lat="41.39514" lon="9.16249">
        <ele>-4.19</ele>
        <time>2014-06-06T13:45:45Z</time>
      </trkpt>
      <trkpt lat="41.39592" lon="9.16222">
        <ele>3.02</ele>
        <time>2014-06-06T13:45:52Z</time>
      </trkpt>
      <trkpt lat="41.39611" lon="9.16225">
        <ele>5.42</ele>
        <time>2014-06-06T13:45:54Z</time>
      </trkpt>
      <trkpt lat="41.39621" lon="9.16231">
        <ele>6.39</ele>
        <time>2014-06-06T13:45:55Z</time>
      </trkpt>
      <trkpt lat="41.3963" lon="9.16239">
        <ele>7.35</ele>
        <time>2014-06-06T13:45:56Z</time>
      </trkpt>
      <trkpt lat="41.39638" lon="9.16249">
        <ele>8.79</ele>
        <time>2014-06-06T13:45:57Z</time>
      </trkpt>
      <trkpt lat="41.39644" lon="9.1626">
        <ele>9.75</ele>
        <time>2014-06-06T13:45:58Z</time>
      </trkpt>
      <trkpt lat="41.39647" lon="9.16274">
        <ele>11.67</ele>
        <time>2014-06-06T13:45:59Z</time>
      </trkpt>
      <trkpt lat="41.39647" lon="9.16288">
        <ele>13.12</ele>
        <time>2014-06-06T13:46:00Z</time>
      </trkpt>
      <trkpt lat="41.39648" lon="9.16301">
        <ele>16.96</ele>
        <time>2014-06-06T13:46:01Z</time>
      </trkpt>
      <trkpt lat="41.39655" lon="9.16324">
        <ele>19.36</ele>
        <time>2014-06-06T13:46:03Z</time>
      </trkpt>
      <trkpt lat="41.39661" lon="9.16333">
        <ele>19.84</ele>
        <time>2014-06-06T13:46:04Z</time>
      </trkpt>
      <trkpt lat="41.39669" lon="9.16341">
        <ele>19.84</ele>
        <time>2014-06-06T13:46:05Z</time>
      </trkpt>
      <trkpt lat="41.39679" lon="9.16346">
        <ele>20.81</ele>
        <time>2014-06-06T13:46:06Z</time>
      </trkpt>
      <trkpt lat="41.39691" lon="9.16348">
        <ele>21.29</ele>
        <time>2014-06-06T13:46:07Z</time>
      </trkpt>
      <trkpt lat="41.39704" lon="9.16349">
        <ele>22.73</ele>
        <time>2014-06-06T13:46:08Z</time>
      </trkpt>
      <trkpt lat="41.39718" lon="9.1635">
        <ele>23.69</ele>
        <time>2014-06-06T13:46:09Z</time>
      </trkpt>
      <trkpt lat="41.39779" lon="9.1636">
        <ele>29.94</ele>
        <time>2014-06-06T13:46:13Z</time>
      </trkpt>
      <trkpt lat="41.39793" lon="9.16368">
        <ele>31.86</ele>
        <time>2014-06-06T13:46:14Z</time>
      </trkpt>
      <trkpt lat="41.39806" lon="9.16377">
        <ele>33.3</ele>
        <time>2014-06-06T13:46:15Z</time>
      </trkpt>
      <trkpt lat="41.39817" lon="9.16387">
        <ele>34.74</ele>
        <time>2014-06-06T13:46:16Z</time>
      </trkpt>
      <trkpt lat="41.39829" lon="9.164">
        <ele>36.67</ele>
        <time>2014-06-06T13:46:17Z</time>
      </trkpt>
      <trkpt lat="41.39839" lon="9.16415">
        <ele>38.11</ele>
        <time>2014-06-06T13:46:18Z</time>
      </trkpt>
      <trkpt lat="41.39923" lon="9.16513">
        <ele>49.16</ele>
        <time>2014-06-06T13:46:26Z</time>
      </trkpt>
      <trkpt lat="41.39954" lon="9.16541">
        <ele>52.05</ele>
        <time>2014-06-06T13:46:30Z</time>
      </trkpt>
      <trkpt lat="41.3996" lon="9.16548">
        <ele>52.53</ele>
        <time>2014-06-06T13:46:31Z</time>
      </trkpt>
      <trkpt lat="41.39981" lon="9.1659">
        <ele>53.01</ele>
        <time>2014-06-06T13:46:35Z</time>
      </trkpt>
      <trkpt lat="41.39992" lon="9.16616">
        <ele>52.05</ele>
        <time>2014-06-06T13:46:37Z</time>
      </trkpt>
      <trkpt lat="41.40001" lon="9.16629">
        <ele>52.05</ele>
        <time>2014-06-06T13:46:38Z</time>
      </trkpt>
      <trkpt lat="41.40013" lon="9.16639">
        <ele>52.05</ele>
        <time>2014-06-06T13:46:39Z</time>
      </trkpt>
      <trkpt lat="41.4012" lon="9.16745">
        <ele>49.65</ele>
        <time>2014-06-06T13:46:48Z</time>
      </trkpt>
      <trkpt lat="41.40189" lon="9.16823">
        <ele>50.61</ele>
        <time>2014-06-06T13:46:54Z</time>
      </trkpt>
      <trkpt lat="41.40202" lon="9.16831">
        <ele>50.61</ele>
        <time>2014-06-06T13:46:55Z</time>
      </trkpt>
      <trkpt lat="41.40217" lon="9.16835">
        <ele>50.61</ele>
        <time>2014-06-06T13:46:56Z</time>
      </trkpt>
      <trkpt lat="41.40232" lon="9.16837">
        <ele>50.13</ele>
        <time>2014-06-06T13:46:57Z</time>
      </trkpt>
      <trkpt lat="41.40248" lon="9.16838">
        <ele>50.61</ele>
        <time>2014-06-06T13:46:58Z</time>
      </trkpt>
      <trkpt lat="41.4036" lon="9.16846">
        <ele>51.57</ele>
        <time>2014-06-06T13:47:05Z</time>
      </trkpt>
      <trkpt lat="41.40374" lon="9.16852">
        <ele>52.05</ele>
        <time>2014-06-06T13:47:06Z</time>
      </trkpt>
      <trkpt lat="41.40388" lon="9.16863">
        <ele>52.53</ele>
        <time>2014-06-06T13:47:07Z</time>
      </trkpt>
      <trkpt lat="41.40499" lon="9.16966">
        <ele>58.3</ele>
        <time>2014-06-06T13:47:14Z</time>
      </trkpt>
      <trkpt lat="41.40667" lon="9.17115">
        <ele>68.39</ele>
        <time>2014-06-06T13:47:24Z</time>
      </trkpt>
      <trkpt lat="41.40763" lon="9.17192">
        <ele>73.68</ele>
        <time>2014-06-06T13:47:30Z</time>
      </trkpt>
      <trkpt lat="41.4101" lon="9.17326">
        <ele>84.25</ele>
        <time>2014-06-06T13:47:45Z</time>
      </trkpt>
      <trkpt lat="41.41153" lon="9.17397">
        <ele>82.33</ele>
        <time>2014-06-06T13:47:55Z</time>
      </trkpt>
      <trkpt lat="41.41165" lon="9.17397">
        <ele>81.85</ele>
        <time>2014-06-06T13:47:56Z</time>
      </trkpt>
      <trkpt lat="41.41177" lon="9.17389">
        <ele>78.97</ele>
        <time>2014-06-06T13:47:57Z</time>
      </trkpt>
      <trkpt lat="41.41189" lon="9.17379">
        <ele>78.48</ele>
        <time>2014-06-06T13:47:58Z</time>
      </trkpt>
      <trkpt lat="41.41197" lon="9.17364">
        <ele>77.52</ele>
        <time>2014-06-06T13:47:59Z</time>
      </trkpt>
      <trkpt lat="41.41205" lon="9.17346">
        <ele>76.56</ele>
        <time>2014-06-06T13:48:00Z</time>
      </trkpt>
      <trkpt lat="41.41213" lon="9.17325">
        <ele>75.12</ele>
        <time>2014-06-06T13:48:01Z</time>
      </trkpt>
      <trkpt lat="41.41284" lon="9.1717">
        <ele>62.14</ele>
        <time>2014-06-06T13:48:09Z</time>
      </trkpt>
      <trkpt lat="41.41292" lon="9.17152">
        <ele>61.18</ele>
        <time>2014-06-06T13:48:10Z</time>
      </trkpt>
      <trkpt lat="41.41298" lon="9.17133">
        <ele>58.78</ele>
        <time>2014-06-06T13:48:11Z</time>
      </trkpt>
      <trkpt lat="41.413" lon="9.17114">
        <ele>58.3</ele>
        <time>2014-06-06T13:48:12Z</time>
      </trkpt>
      <trkpt lat="41.41301" lon="9.17095">
        <ele>56.37</ele>
        <time>2014-06-06T13:48:13Z</time>
      </trkpt>
      <trkpt lat="41.41301" lon="9.17076">
        <ele>55.41</ele>
        <time>2014-06-06T13:48:14Z</time>
      </trkpt>
      <trkpt lat="41.41304" lon="9.17024">
        <ele>52.05</ele>
        <time>2014-06-06T13:48:17Z</time>
      </trkpt>
      <trkpt lat="41.41307" lon="9.17012">
        <ele>51.09</ele>
        <time>2014-06-06T13:48:18Z</time>
      </trkpt>
      <trkpt lat="41.41313" lon="9.17003">
        <ele>50.13</ele>
        <time>2014-06-06T13:48:19Z</time>
      </trkpt>
      <trkpt lat="41.41319" lon="9.17001">
        <ele>49.16</ele>
        <time>2014-06-06T13:48:20Z</time>
      </trkpt>
      <trkpt lat="41.41326" lon="9.17003">
        <ele>48.2</ele>
        <time>2014-06-06T13:48:21Z</time>
      </trkpt>
      <trkpt lat="41.41332" lon="9.17011">
        <ele>47.72</ele>
        <time>2014-06-06T13:48:22Z</time>
      </trkpt>
      <trkpt lat="41.41337" lon="9.17024">
        <ele>47.24</ele>
        <time>2014-06-06T13:48:23Z</time>
      </trkpt>
      <trkpt lat="41.41341" lon="9.1704">
        <ele>46.76</ele>
        <time>2014-06-06T13:48:24Z</time>
      </trkpt>
      <trkpt lat="41.41344" lon="9.17058">
        <ele>45.8</ele>
        <time>2014-06-06T13:48:25Z</time>
      </trkpt>
      <trkpt lat="41.41348" lon="9.17078">
        <ele>44.84</ele>
        <time>2014-06-06T13:48:26Z</time>
      </trkpt>
      <trkpt lat="41.41354" lon="9.17097">
        <ele>46.76</ele>
        <time>2014-06-06T13:48:27Z</time>
      </trkpt>
      <trkpt lat="41.41374" lon="9.17149">
        <ele>48.2</ele>
        <time>2014-06-06T13:48:30Z</time>
      </trkpt>
      <trkpt lat="41.41377" lon="9.17167">
        <ele>48.68</ele>
        <time>2014-06-06T13:48:31Z</time>
      </trkpt>
      <trkpt lat="41.41379" lon="9.17186">
        <ele>49.65</ele>
        <time>2014-06-06T13:48:32Z</time>
      </trkpt>
      <trkpt lat="41.41376" lon="9.17207">
        <ele>50.13</ele>
        <time>2014-06-06T13:48:33Z</time>
      </trkpt>
      <trkpt lat="41.41372" lon="9.17229">
        <ele>50.61</ele>
        <time>2014-06-06T13:48:34Z</time>
      </trkpt>
      <trkpt lat="41.41364" lon="9.17274">
        <ele>52.05</ele>
        <time>2014-06-06T13:48:36Z</time>
      </trkpt>
      <trkpt lat="41.4136" lon="9.17359">
        <ele>55.41</ele>
        <time>2014-06-06T13:48:40Z</time>
      </trkpt>
      <trkpt lat="41.41363" lon="9.17377">
        <ele>55.89</ele>
        <time>2014-06-06T13:48:41Z</time>
      </trkpt>
      <trkpt lat="41.41368" lon="9.17395">
        <ele>56.37</ele>
        <time>2014-06-06T13:48:42Z</time>
      </trkpt>
      <trkpt lat="41.41375" lon="9.17412">
        <ele>56.37</ele>
        <time>2014-06-06T13:48:43Z</time>
      </trkpt>
      <trkpt lat="41.41382" lon="9.17428">
        <ele>57.34</ele>
        <time>2014-06-06T13:48:44Z</time>
      </trkpt>
      <trkpt lat="41.4147" lon="9.17622">
        <ele>65.51</ele>
        <time>2014-06-06T13:48:54Z</time>
      </trkpt>
      <trkpt lat="41.41489" lon="9.17655">
        <ele>66.95</ele>
        <time>2014-06-06T13:48:56Z</time>
      </trkpt>
      <trkpt lat="41.415" lon="9.17668">
        <ele>67.91</ele>
        <time>2014-06-06T13:48:57Z</time>
      </trkpt>
      <trkpt lat="41.41514" lon="9.1768">
        <ele>68.87</ele>
        <time>2014-06-06T13:48:58Z</time>
      </trkpt>
      <trkpt lat="41.41528" lon="9.17691">
        <ele>69.35</ele>
        <time>2014-06-06T13:48:59Z</time>
      </trkpt>
      <trkpt lat="41.41543" lon="9.17702">
        <ele>70.31</ele>
        <time>2014-06-06T13:49:00Z</time>
      </trkpt>
      <trkpt lat="41.41712" lon="9.17818">
        <ele>80.41</ele>
        <time>2014-06-06T13:49:11Z</time>
      </trkpt>
      <trkpt lat="41.41854" lon="9.17917">
        <ele>84.25</ele>
        <time>2014-06-06T13:49:21Z</time>
      </trkpt>
      <trkpt lat="41.42036" lon="9.18043">
        <ele>91.46</ele>
        <time>2014-06-06T13:49:34Z</time>
      </trkpt>
      <trkpt lat="41.42165" lon="9.18129">
        <ele>93.87</ele>
        <time>2014-06-06T13:49:42Z</time>
      </trkpt>
      <trkpt lat="41.42182" lon="9.18132">
        <ele>93.87</ele>
        <time>2014-06-06T13:49:43Z</time>
      </trkpt>
      <trkpt lat="41.42199" lon="9.18134">
        <ele>93.39</ele>
        <time>2014-06-06T13:49:44Z</time>
      </trkpt>
      <trkpt lat="41.42297" lon="9.18127">
        <ele>84.25</ele>
        <time>2014-06-06T13:49:50Z</time>
      </trkpt>
      <trkpt lat="41.42312" lon="9.18119">
        <ele>81.37</ele>
        <time>2014-06-06T13:49:51Z</time>
      </trkpt>
      <trkpt lat="41.42325" lon="9.18109">
        <ele>80.41</ele>
        <time>2014-06-06T13:49:52Z</time>
      </trkpt>
      <trkpt lat="41.42349" lon="9.18091">
        <ele>78.97</ele>
        <time>2014-06-06T13:49:54Z</time>
      </trkpt>
      <trkpt lat="41.42363" lon="9.18087">
        <ele>78.48</ele>
        <time>2014-06-06T13:49:55Z</time>
      </trkpt>
      <trkpt lat="41.42376" lon="9.18086">
        <ele>78</ele>
        <time>2014-06-06T13:49:56Z</time>
      </trkpt>
      <trkpt lat="41.42388" lon="9.18092">
        <ele>78</ele>
        <time>2014-06-06T13:49:57Z</time>
      </trkpt>
      <trkpt lat="41.42398" lon="9.18102">
        <ele>78</ele>
        <time>2014-06-06T13:49:58Z</time>
      </trkpt>
      <trkpt lat="41.42409" lon="9.18114">
        <ele>77.52</ele>
        <time>2014-06-06T13:49:59Z</time>
      </trkpt>
      <trkpt lat="41.42421" lon="9.18126">
        <ele>77.52</ele>
        <time>2014-06-06T13:50:00Z</time>
      </trkpt>
      <trkpt lat="41.42434" lon="9.18136">
        <ele>77.04</ele>
        <time>2014-06-06T13:50:01Z</time>
      </trkpt>
      <trkpt lat="41.42449" lon="9.18146">
        <ele>77.04</ele>
        <time>2014-06-06T13:50:02Z</time>
      </trkpt>
      <trkpt lat="41.42573" lon="9.18208">
        <ele>72.72</ele>
        <time>2014-06-06T13:50:10Z</time>
      </trkpt>
      <trkpt lat="41.42588" lon="9.18218">
        <ele>72.24</ele>
        <time>2014-06-06T13:50:11Z</time>
      </trkpt>
      <trkpt lat="41.42601" lon="9.1823">
        <ele>71.27</ele>
        <time>2014-06-06T13:50:12Z</time>
      </trkpt>
      <trkpt lat="41.42615" lon="9.18245">
        <ele>69.83</ele>
        <time>2014-06-06T13:50:13Z</time>
      </trkpt>
      <trkpt lat="41.42681" lon="9.1835">
        <ele>63.1</ele>
        <time>2014-06-06T13:50:19Z</time>
      </trkpt>
      <trkpt lat="41.42687" lon="9.18368">
        <ele>62.14</ele>
        <time>2014-06-06T13:50:20Z</time>
      </trkpt>
      <trkpt lat="41.4269" lon="9.18387">
        <ele>61.66</ele>
        <time>2014-06-06T13:50:21Z</time>
      </trkpt>
      <trkpt lat="41.4269" lon="9.18406">
        <ele>61.18</ele>
        <time>2014-06-06T13:50:22Z</time>
      </trkpt>
      <trkpt lat="41.42687" lon="9.18425">
        <ele>60.7</ele>
        <time>2014-06-06T13:50:23Z</time>
      </trkpt>
      <trkpt lat="41.42683" lon="9.18444">
        <ele>60.22</ele>
        <time>2014-06-06T13:50:24Z</time>
      </trkpt>
      <trkpt lat="41.42681" lon="9.18462">
        <ele>59.26</ele>
        <time>2014-06-06T13:50:25Z</time>
      </trkpt>
      <trkpt lat="41.42682" lon="9.18481">
        <ele>57.82</ele>
        <time>2014-06-06T13:50:26Z</time>
      </trkpt>
      <trkpt lat="41.42687" lon="9.18499">
        <ele>55.41</ele>
        <time>2014-06-06T13:50:27Z</time>
      </trkpt>
      <trkpt lat="41.42695" lon="9.18518">
        <ele>53.97</ele>
        <time>2014-06-06T13:50:28Z</time>
      </trkpt>
      <trkpt lat="41.42705" lon="9.18538">
        <ele>53.01</ele>
        <time>2014-06-06T13:50:29Z</time>
      </trkpt>
      <trkpt lat="41.42785" lon="9.18706">
        <ele>43.4</ele>
        <time>2014-06-06T13:50:38Z</time>
      </trkpt>
      <trkpt lat="41.42796" lon="9.18718">
        <ele>42.44</ele>
        <time>2014-06-06T13:50:39Z</time>
      </trkpt>
      <trkpt lat="41.42808" lon="9.18725">
        <ele>40.99</ele>
        <time>2014-06-06T13:50:40Z</time>
      </trkpt>
      <trkpt lat="41.42822" lon="9.18729">
        <ele>39.55</ele>
        <time>2014-06-06T13:50:41Z</time>
      </trkpt>
      <trkpt lat="41.42835" lon="9.18732">
        <ele>38.11</ele>
        <time>2014-06-06T13:50:42Z</time>
      </trkpt>
      <trkpt lat="41.4285" lon="9.18738">
        <ele>37.15</ele>
        <time>2014-06-06T13:50:43Z</time>
      </trkpt>
      <trkpt lat="41.42865" lon="9.18747">
        <ele>36.19</ele>
        <time>2014-06-06T13:50:44Z</time>
      </trkpt>
      <trkpt lat="41.42881" lon="9.18758">
        <ele>35.23</ele>
        <time>2014-06-06T13:50:45Z</time>
      </trkpt>
      <trkpt lat="41.43003" lon="9.18809">
        <ele>29.46</ele>
        <time>2014-06-06T13:50:52Z</time>
      </trkpt>
      <trkpt lat="41.43157" lon="9.18846">
        <ele>24.17</ele>
        <time>2014-06-06T13:51:01Z</time>
      </trkpt>
      <trkpt lat="41.43173" lon="9.18856">
        <ele>23.69</ele>
        <time>2014-06-06T13:51:02Z</time>
      </trkpt>
      <trkpt lat="41.43188" lon="9.1887">
        <ele>24.17</ele>
        <time>2014-06-06T13:51:03Z</time>
      </trkpt>
      <trkpt lat="41.43203" lon="9.18885">
        <ele>24.17</ele>
        <time>2014-06-06T13:51:04Z</time>
      </trkpt>
      <trkpt lat="41.43218" lon="9.18901">
        <ele>24.65</ele>
        <time>2014-06-06T13:51:05Z</time>
      </trkpt>
      <trkpt lat="41.43411" lon="9.19113">
        <ele>21.77</ele>
        <time>2014-06-06T13:51:17Z</time>
      </trkpt>
      <trkpt lat="41.43703" lon="9.19427">
        <ele>14.08</ele>
        <time>2014-06-06T13:51:33Z</time>
      </trkpt>
      <trkpt lat="41.4399" lon="9.19735">
        <ele>9.27</ele>
        <time>2014-06-06T13:51:49Z</time>
      </trkpt>
      <trkpt lat="41.44225" lon="9.19987">
        <ele>9.75</ele>
        <time>2014-06-06T13:52:03Z</time>
      </trkpt>
      <trkpt lat="41.44414" lon="9.20202">
        <ele>10.71</ele>
        <time>2014-06-06T13:52:15Z</time>
      </trkpt>
      <trkpt lat="41.44593" lon="9.20411">
        <ele>7.83</ele>
        <time>2014-06-06T13:52:26Z</time>
      </trkpt>
      <trkpt lat="41.44825" lon="9.20675">
        <ele>15.52</ele>
        <time>2014-06-06T13:52:39Z</time>
      </trkpt>
      <trkpt lat="41.45016" lon="9.20847">
        <ele>13.12</ele>
        <time>2014-06-06T13:52:49Z</time>
      </trkpt>
      <trkpt lat="41.4521" lon="9.21015">
        <ele>16</ele>
        <time>2014-06-06T13:52:59Z</time>
      </trkpt>
      <trkpt lat="41.45401" lon="9.21183">
        <ele>19.84</ele>
        <time>2014-06-06T13:53:09Z</time>
      </trkpt>
      <trkpt lat="41.45557" lon="9.21322">
        <ele>21.29</ele>
        <time>2014-06-06T13:53:18Z</time>
      </trkpt>
      <trkpt lat="41.45743" lon="9.21483">
        <ele>23.21</ele>
        <time>2014-06-06T13:53:29Z</time>
      </trkpt>
      <trkpt lat="41.45943" lon="9.21659">
        <ele>26.57</ele>
        <time>2014-06-06T13:53:41Z</time>
      </trkpt>
      <trkpt lat="41.46078" lon="9.2178">
        <ele>28.5</ele>
        <time>2014-06-06T13:53:49Z</time>
      </trkpt>
      <trkpt lat="41.46257" lon="9.21937">
        <ele>28.5</ele>
        <time>2014-06-06T13:54:00Z</time>
      </trkpt>
      <trkpt lat="41.46358" lon="9.22028">
        <ele>31.86</ele>
        <time>2014-06-06T13:54:08Z</time>
      </trkpt>
      <trkpt lat="41.46492" lon="9.22144">
        <ele>33.3</ele>
        <time>2014-06-06T13:54:18Z</time>
      </trkpt>
      <trkpt lat="41.46686" lon="9.22314">
        <ele>36.67</ele>
        <time>2014-06-06T13:54:32Z</time>
      </trkpt>
      <trkpt lat="41.46845" lon="9.22406">
        <ele>38.11</ele>
        <time>2014-06-06T13:54:41Z</time>
      </trkpt>
      <trkpt lat="41.47" lon="9.225">
        <ele>39.55</ele>
        <time>2014-06-06T13:54:49Z</time>
      </trkpt>
      <trkpt lat="41.47192" lon="9.22609">
        <ele>39.07</ele>
        <time>2014-06-06T13:55:01Z</time>
      </trkpt>
      <trkpt lat="41.47307" lon="9.22677">
        <ele>43.88</ele>
        <time>2014-06-06T13:55:09Z</time>
      </trkpt>
      <trkpt lat="41.4732" lon="9.2269">
        <ele>44.84</ele>
        <time>2014-06-06T13:55:10Z</time>
      </trkpt>
      <trkpt lat="41.47333" lon="9.22704">
        <ele>45.8</ele>
        <time>2014-06-06T13:55:11Z</time>
      </trkpt>
      <trkpt lat="41.47475" lon="9.22893">
        <ele>46.76</ele>
        <time>2014-06-06T13:55:22Z</time>
      </trkpt>
      <trkpt lat="41.47626" lon="9.23089">
        <ele>45.32</ele>
        <time>2014-06-06T13:55:34Z</time>
      </trkpt>
      <trkpt lat="41.47787" lon="9.23295">
        <ele>45.32</ele>
        <time>2014-06-06T13:55:47Z</time>
      </trkpt>
      <trkpt lat="41.47825" lon="9.23345">
        <ele>45.8</ele>
        <time>2014-06-06T13:55:51Z</time>
      </trkpt>
      <trkpt lat="41.47829" lon="9.23353">
        <ele>46.76</ele>
        <time>2014-06-06T13:55:52Z</time>
      </trkpt>
      <trkpt lat="41.47831" lon="9.2336">
        <ele>47.24</ele>
        <time>2014-06-06T13:55:53Z</time>
      </trkpt>
      <trkpt lat="41.4783" lon="9.23367">
        <ele>47.72</ele>
        <time>2014-06-06T13:55:54Z</time>
      </trkpt>
      <trkpt lat="41.47828" lon="9.23373">
        <ele>47.72</ele>
        <time>2014-06-06T13:55:55Z</time>
      </trkpt>
      <trkpt lat="41.47826" lon="9.23381">
        <ele>46.76</ele>
        <time>2014-06-06T13:55:56Z</time>
      </trkpt>
      <trkpt lat="41.47826" lon="9.2339">
        <ele>46.28</ele>
        <time>2014-06-06T13:55:57Z</time>
      </trkpt>
      <trkpt lat="41.47829" lon="9.234">
        <ele>46.28</ele>
        <time>2014-06-06T13:55:58Z</time>
      </trkpt>
      <trkpt lat="41.47833" lon="9.23427">
        <ele>46.28</ele>
        <time>2014-06-06T13:56:00Z</time>
      </trkpt>
      <trkpt lat="41.47832" lon="9.23443">
        <ele>46.28</ele>
        <time>2014-06-06T13:56:01Z</time>
      </trkpt>
      <trkpt lat="41.47829" lon="9.23476">
        <ele>46.76</ele>
        <time>2014-06-06T13:56:03Z</time>
      </trkpt>
      <trkpt lat="41.4783" lon="9.23495">
        <ele>48.68</ele>
        <time>2014-06-06T13:56:04Z</time>
      </trkpt>
      <trkpt lat="41.47833" lon="9.23513">
        <ele>50.61</ele>
        <time>2014-06-06T13:56:05Z</time>
      </trkpt>
      <trkpt lat="41.47841" lon="9.23546">
        <ele>52.53</ele>
        <time>2014-06-06T13:56:07Z</time>
      </trkpt>
      <trkpt lat="41.47842" lon="9.23576">
        <ele>53.97</ele>
        <time>2014-06-06T13:56:09Z</time>
      </trkpt>
      <trkpt lat="41.47849" lon="9.23615">
        <ele>55.89</ele>
        <time>2014-06-06T13:56:12Z</time>
      </trkpt>
      <trkpt lat="41.47854" lon="9.23658">
        <ele>58.3</ele>
        <time>2014-06-06T13:56:15Z</time>
      </trkpt>
      <trkpt lat="41.47852" lon="9.23673">
        <ele>59.26</ele>
        <time>2014-06-06T13:56:16Z</time>
      </trkpt>
      <trkpt lat="41.4785" lon="9.23689">
        <ele>60.7</ele>
        <time>2014-06-06T13:56:17Z</time>
      </trkpt>
      <trkpt lat="41.47851" lon="9.23705">
        <ele>61.66</ele>
        <time>2014-06-06T13:56:18Z</time>
      </trkpt>
      <trkpt lat="41.47853" lon="9.23722">
        <ele>62.62</ele>
        <time>2014-06-06T13:56:19Z</time>
      </trkpt>
      <trkpt lat="41.47861" lon="9.23786">
        <ele>66.47</ele>
        <time>2014-06-06T13:56:23Z</time>
      </trkpt>
      <trkpt lat="41.47866" lon="9.23797">
        <ele>67.91</ele>
        <time>2014-06-06T13:56:24Z</time>
      </trkpt>
      <trkpt lat="41.47873" lon="9.23806">
        <ele>68.39</ele>
        <time>2014-06-06T13:56:25Z</time>
      </trkpt>
      <trkpt lat="41.47884" lon="9.23811">
        <ele>68.87</ele>
        <time>2014-06-06T13:56:26Z</time>
      </trkpt>
      <trkpt lat="41.47894" lon="9.23815">
        <ele>68.87</ele>
        <time>2014-06-06T13:56:27Z</time>
      </trkpt>
      <trkpt lat="41.47906" lon="9.23819">
        <ele>69.83</ele>
        <time>2014-06-06T13:56:28Z</time>
      </trkpt>
      <trkpt lat="41.47918" lon="9.23825">
        <ele>70.31</ele>
        <time>2014-06-06T13:56:29Z</time>
      </trkpt>
      <trkpt lat="41.47931" lon="9.23832">
        <ele>70.31</ele>
        <time>2014-06-06T13:56:30Z</time>
      </trkpt>
      <trkpt lat="41.47944" lon="9.23842">
        <ele>70.79</ele>
        <time>2014-06-06T13:56:31Z</time>
      </trkpt>
      <trkpt lat="41.48009" lon="9.23897">
        <ele>74.16</ele>
        <time>2014-06-06T13:56:36Z</time>
      </trkpt>
      <trkpt lat="41.48019" lon="9.23911">
        <ele>74.64</ele>
        <time>2014-06-06T13:56:37Z</time>
      </trkpt>
      <trkpt lat="41.4805" lon="9.23957">
        <ele>77.52</ele>
        <time>2014-06-06T13:56:40Z</time>
      </trkpt>
      <trkpt lat="41.48059" lon="9.23973">
        <ele>78.97</ele>
        <time>2014-06-06T13:56:41Z</time>
      </trkpt>
      <trkpt lat="41.48065" lon="9.23989">
        <ele>80.41</ele>
        <time>2014-06-06T13:56:42Z</time>
      </trkpt>
      <trkpt lat="41.48067" lon="9.24004">
        <ele>82.81</ele>
        <time>2014-06-06T13:56:43Z</time>
      </trkpt>
      <trkpt lat="41.48069" lon="9.24017">
        <ele>83.29</ele>
        <time>2014-06-06T13:56:44Z</time>
      </trkpt>
      <trkpt lat="41.48072" lon="9.24029">
        <ele>83.29</ele>
        <time>2014-06-06T13:56:45Z</time>
      </trkpt>
      <trkpt lat="41.48079" lon="9.24038">
        <ele>84.25</ele>
        <time>2014-06-06T13:56:46Z</time>
      </trkpt>
      <trkpt lat="41.48087" lon="9.24044">
        <ele>85.21</ele>
        <time>2014-06-06T13:56:47Z</time>
      </trkpt>
      <trkpt lat="41.48134" lon="9.24069">
        <ele>85.21</ele>
        <time>2014-06-06T13:56:51Z</time>
      </trkpt>
      <trkpt lat="41.48148" lon="9.24073">
        <ele>85.69</ele>
        <time>2014-06-06T13:56:52Z</time>
      </trkpt>
      <trkpt lat="41.48172" lon="9.24077">
        <ele>86.66</ele>
        <time>2014-06-06T13:56:54Z</time>
      </trkpt>
      <trkpt lat="41.48182" lon="9.24082">
        <ele>88.1</ele>
        <time>2014-06-06T13:56:55Z</time>
      </trkpt>
      <trkpt lat="41.4819" lon="9.24089">
        <ele>89.54</ele>
        <time>2014-06-06T13:56:56Z</time>
      </trkpt>
      <trkpt lat="41.48197" lon="9.241">
        <ele>90.98</ele>
        <time>2014-06-06T13:56:57Z</time>
      </trkpt>
      <trkpt lat="41.48205" lon="9.24112">
        <ele>90.98</ele>
        <time>2014-06-06T13:56:58Z</time>
      </trkpt>
      <trkpt lat="41.48215" lon="9.24122">
        <ele>91.46</ele>
        <time>2014-06-06T13:56:59Z</time>
      </trkpt>
      <trkpt lat="41.48227" lon="9.24132">
        <ele>91.94</ele>
        <time>2014-06-06T13:57:00Z</time>
      </trkpt>
      <trkpt lat="41.48241" lon="9.2414">
        <ele>92.42</ele>
        <time>2014-06-06T13:57:01Z</time>
      </trkpt>
      <trkpt lat="41.48255" lon="9.24147">
        <ele>93.39</ele>
        <time>2014-06-06T13:57:02Z</time>
      </trkpt>
      <trkpt lat="41.4829" lon="9.24167">
        <ele>95.79</ele>
        <time>2014-06-06T13:57:05Z</time>
      </trkpt>
      <trkpt lat="41.483" lon="9.24177">
        <ele>96.75</ele>
        <time>2014-06-06T13:57:06Z</time>
      </trkpt>
      <trkpt lat="41.48308" lon="9.24189">
        <ele>97.71</ele>
        <time>2014-06-06T13:57:07Z</time>
      </trkpt>
      <trkpt lat="41.48316" lon="9.24198">
        <ele>98.67</ele>
        <time>2014-06-06T13:57:08Z</time>
      </trkpt>
      <trkpt lat="41.48326" lon="9.24204">
        <ele>100.11</ele>
        <time>2014-06-06T13:57:09Z</time>
      </trkpt>
      <trkpt lat="41.48336" lon="9.24207">
        <ele>101.08</ele>
        <time>2014-06-06T13:57:10Z</time>
      </trkpt>
      <trkpt lat="41.48347" lon="9.2421">
        <ele>101.56</ele>
        <time>2014-06-06T13:57:11Z</time>
      </trkpt>
      <trkpt lat="41.48359" lon="9.24217">
        <ele>103.48</ele>
        <time>2014-06-06T13:57:12Z</time>
      </trkpt>
      <trkpt lat="41.48371" lon="9.24226">
        <ele>104.44</ele>
        <time>2014-06-06T13:57:13Z</time>
      </trkpt>
      <trkpt lat="41.48384" lon="9.24237">
        <ele>105.88</ele>
        <time>2014-06-06T13:57:14Z</time>
      </trkpt>
      <trkpt lat="41.48432" lon="9.24281">
        <ele>109.25</ele>
        <time>2014-06-06T13:57:18Z</time>
      </trkpt>
      <trkpt lat="41.48445" lon="9.2429">
        <ele>110.69</ele>
        <time>2014-06-06T13:57:20Z</time>
      </trkpt>
      <trkpt lat="41.48447" lon="9.24295">
        <ele>111.65</ele>
        <time>2014-06-06T13:57:21Z</time>
      </trkpt>
      <trkpt lat="41.48446" lon="9.24298">
        <ele>112.61</ele>
        <time>2014-06-06T13:57:22Z</time>
      </trkpt>
      <trkpt lat="41.48443" lon="9.24299">
        <ele>113.57</ele>
        <time>2014-06-06T13:57:23Z</time>
      </trkpt>
      <trkpt lat="41.48439" lon="9.24298">
        <ele>114.05</ele>
        <time>2014-06-06T13:57:24Z</time>
      </trkpt>
      <trkpt lat="41.48433" lon="9.24294">
        <ele>113.57</ele>
        <time>2014-06-06T13:57:25Z</time>
      </trkpt>
      <trkpt lat="41.48415" lon="9.24287">
        <ele>113.57</ele>
        <time>2014-06-06T13:57:27Z</time>
      </trkpt>
      <trkpt lat="41.48359" lon="9.2427">
        <ele>115.01</ele>
        <time>2014-06-06T13:57:32Z</time>
      </trkpt>
      <trkpt lat="41.48348" lon="9.24271">
        <ele>115.01</ele>
        <time>2014-06-06T13:57:33Z</time>
      </trkpt>
      <trkpt lat="41.48338" lon="9.24273">
        <ele>115.98</ele>
        <time>2014-06-06T13:57:34Z</time>
      </trkpt>
      <trkpt lat="41.48295" lon="9.2428">
        <ele>116.94</ele>
        <time>2014-06-06T13:57:38Z</time>
      </trkpt>
      <trkpt lat="41.48283" lon="9.24275">
        <ele>116.46</ele>
        <time>2014-06-06T13:57:39Z</time>
      </trkpt>
      <trkpt lat="41.48271" lon="9.24269">
        <ele>117.42</ele>
        <time>2014-06-06T13:57:40Z</time>
      </trkpt>
      <trkpt lat="41.48238" lon="9.2425">
        <ele>119.34</ele>
        <time>2014-06-06T13:57:43Z</time>
      </trkpt>
      <trkpt lat="41.48227" lon="9.24246">
        <ele>119.82</ele>
        <time>2014-06-06T13:57:44Z</time>
      </trkpt>
      <trkpt lat="41.48215" lon="9.24246">
        <ele>120.78</ele>
        <time>2014-06-06T13:57:45Z</time>
      </trkpt>
      <trkpt lat="41.4819" lon="9.24245">
        <ele>120.78</ele>
        <time>2014-06-06T13:57:47Z</time>
      </trkpt>
      <trkpt lat="41.48176" lon="9.24241">
        <ele>121.26</ele>
        <time>2014-06-06T13:57:48Z</time>
      </trkpt>
      <trkpt lat="41.48058" lon="9.24208">
        <ele>124.63</ele>
        <time>2014-06-06T13:57:56Z</time>
      </trkpt>
      <trkpt lat="41.48035" lon="9.24203">
        <ele>124.63</ele>
        <time>2014-06-06T13:57:58Z</time>
      </trkpt>
      <trkpt lat="41.48025" lon="9.24204">
        <ele>125.11</ele>
        <time>2014-06-06T13:57:59Z</time>
      </trkpt>
      <trkpt lat="41.48016" lon="9.24209">
        <ele>125.59</ele>
        <time>2014-06-06T13:58:00Z</time>
      </trkpt>
      <trkpt lat="41.48008" lon="9.24217">
        <ele>126.07</ele>
        <time>2014-06-06T13:58:01Z</time>
      </trkpt>
      <trkpt lat="41.48003" lon="9.24226">
        <ele>127.03</ele>
        <time>2014-06-06T13:58:02Z</time>
      </trkpt>
      <trkpt lat="41.48" lon="9.24237">
        <ele>127.51</ele>
        <time>2014-06-06T13:58:03Z</time>
      </trkpt>
      <trkpt lat="41.47999" lon="9.24248">
        <ele>127.51</ele>
        <time>2014-06-06T13:58:04Z</time>
      </trkpt>
      <trkpt lat="41.48001" lon="9.2426">
        <ele>127.99</ele>
        <time>2014-06-06T13:58:05Z</time>
      </trkpt>
      <trkpt lat="41.48005" lon="9.2427">
        <ele>126.55</ele>
        <time>2014-06-06T13:58:06Z</time>
      </trkpt>
      <trkpt lat="41.48012" lon="9.24279">
        <ele>127.51</ele>
        <time>2014-06-06T13:58:07Z</time>
      </trkpt>
      <trkpt lat="41.4802" lon="9.24286">
        <ele>127.51</ele>
        <time>2014-06-06T13:58:08Z</time>
      </trkpt>
      <trkpt lat="41.4803" lon="9.24292">
        <ele>128.47</ele>
        <time>2014-06-06T13:58:09Z</time>
      </trkpt>
      <trkpt lat="41.48056" lon="9.24315">
        <ele>130.88</ele>
        <time>2014-06-06T13:58:12Z</time>
      </trkpt>
      <trkpt lat="41.48138" lon="9.24442">
        <ele>137.13</ele>
        <time>2014-06-06T13:58:22Z</time>
      </trkpt>
      <trkpt lat="41.48167" lon="9.24496">
        <ele>140.97</ele>
        <time>2014-06-06T13:58:26Z</time>
      </trkpt>
      <trkpt lat="41.48175" lon="9.24505">
        <ele>141.93</ele>
        <time>2014-06-06T13:58:27Z</time>
      </trkpt>
      <trkpt lat="41.48186" lon="9.24513">
        <ele>142.89</ele>
        <time>2014-06-06T13:58:28Z</time>
      </trkpt>
      <trkpt lat="41.48243" lon="9.24554">
        <ele>148.18</ele>
        <time>2014-06-06T13:58:33Z</time>
      </trkpt>
      <trkpt lat="41.48252" lon="9.24565">
        <ele>149.62</ele>
        <time>2014-06-06T13:58:34Z</time>
      </trkpt>
      <trkpt lat="41.4826" lon="9.24576">
        <ele>150.58</ele>
        <time>2014-06-06T13:58:35Z</time>
      </trkpt>
      <trkpt lat="41.48266" lon="9.24586">
        <ele>152.03</ele>
        <time>2014-06-06T13:58:36Z</time>
      </trkpt>
      <trkpt lat="41.48272" lon="9.24596">
        <ele>152.03</ele>
        <time>2014-06-06T13:58:37Z</time>
      </trkpt>
      <trkpt lat="41.48274" lon="9.24608">
        <ele>155.39</ele>
        <time>2014-06-06T13:58:38Z</time>
      </trkpt>
      <trkpt lat="41.48275" lon="9.24619">
        <ele>156.83</ele>
        <time>2014-06-06T13:58:39Z</time>
      </trkpt>
      <trkpt lat="41.48273" lon="9.24631">
        <ele>157.79</ele>
        <time>2014-06-06T13:58:40Z</time>
      </trkpt>
      <trkpt lat="41.48271" lon="9.24642">
        <ele>159.24</ele>
        <time>2014-06-06T13:58:41Z</time>
      </trkpt>
      <trkpt lat="41.48269" lon="9.24652">
        <ele>158.27</ele>
        <time>2014-06-06T13:58:42Z</time>
      </trkpt>
      <trkpt lat="41.48266" lon="9.24667">
        <ele>158.27</ele>
        <time>2014-06-06T13:58:44Z</time>
      </trkpt>
      <trkpt lat="41.48265" lon="9.24674">
        <ele>158.27</ele>
        <time>2014-06-06T13:58:45Z</time>
      </trkpt>
      <trkpt lat="41.48266" lon="9.2469">
        <ele>157.79</ele>
        <time>2014-06-06T13:58:47Z</time>
      </trkpt>
      <trkpt lat="41.48268" lon="9.24699">
        <ele>158.27</ele>
        <time>2014-06-06T13:58:48Z</time>
      </trkpt>
      <trkpt lat="41.48281" lon="9.24759">
        <ele>160.2</ele>
        <time>2014-06-06T13:58:53Z</time>
      </trkpt>
      <trkpt lat="41.48285" lon="9.24771">
        <ele>161.16</ele>
        <time>2014-06-06T13:58:54Z</time>
      </trkpt>
      <trkpt lat="41.48297" lon="9.24807">
        <ele>163.08</ele>
        <time>2014-06-06T13:58:57Z</time>
      </trkpt>
      <trkpt lat="41.48299" lon="9.24821">
        <ele>163.56</ele>
        <time>2014-06-06T13:58:58Z</time>
      </trkpt>
      <trkpt lat="41.48309" lon="9.24931">
        <ele>165.96</ele>
        <time>2014-06-06T13:59:05Z</time>
      </trkpt>
      <trkpt lat="41.48307" lon="9.24943">
        <ele>166.93</ele>
        <time>2014-06-06T13:59:06Z</time>
      </trkpt>
      <trkpt lat="41.48303" lon="9.24953">
        <ele>167.89</ele>
        <time>2014-06-06T13:59:07Z</time>
      </trkpt>
      <trkpt lat="41.48297" lon="9.24961">
        <ele>168.85</ele>
        <time>2014-06-06T13:59:08Z</time>
      </trkpt>
      <trkpt lat="41.48289" lon="9.24968">
        <ele>169.81</ele>
        <time>2014-06-06T13:59:09Z</time>
      </trkpt>
      <trkpt lat="41.48281" lon="9.24972">
        <ele>170.29</ele>
        <time>2014-06-06T13:59:10Z</time>
      </trkpt>
      <trkpt lat="41.48265" lon="9.24989">
        <ele>172.21</ele>
        <time>2014-06-06T13:59:13Z</time>
      </trkpt>
      <trkpt lat="41.48261" lon="9.24997">
        <ele>172.69</ele>
        <time>2014-06-06T13:59:14Z</time>
      </trkpt>
      <trkpt lat="41.48259" lon="9.25004">
        <ele>173.17</ele>
        <time>2014-06-06T13:59:15Z</time>
      </trkpt>
      <trkpt lat="41.48256" lon="9.25012">
        <ele>171.73</ele>
        <time>2014-06-06T13:59:16Z</time>
      </trkpt>
      <trkpt lat="41.48254" lon="9.25021">
        <ele>169.33</ele>
        <time>2014-06-06T13:59:17Z</time>
      </trkpt>
      <trkpt lat="41.48254" lon="9.25032">
        <ele>169.33</ele>
        <time>2014-06-06T13:59:18Z</time>
      </trkpt>
      <trkpt lat="41.48256" lon="9.25042">
        <ele>167.89</ele>
        <time>2014-06-06T13:59:19Z</time>
      </trkpt>
      <trkpt lat="41.4826" lon="9.25053">
        <ele>166.93</ele>
        <time>2014-06-06T13:59:20Z</time>
      </trkpt>
      <trkpt lat="41.48265" lon="9.25063">
        <ele>166.45</ele>
        <time>2014-06-06T13:59:21Z</time>
      </trkpt>
      <trkpt lat="41.48272" lon="9.25074">
        <ele>165.96</ele>
        <time>2014-06-06T13:59:22Z</time>
      </trkpt>
      <trkpt lat="41.48302" lon="9.25122">
        <ele>163.56</ele>
        <time>2014-06-06T13:59:27Z</time>
      </trkpt>
      <trkpt lat="41.48309" lon="9.25129">
        <ele>163.08</ele>
        <time>2014-06-06T13:59:28Z</time>
      </trkpt>
      <trkpt lat="41.48328" lon="9.25148">
        <ele>161.64</ele>
        <time>2014-06-06T13:59:34Z</time>
      </trkpt>
      <trkpt lat="41.4836" lon="9.25172">
        <ele>160.2</ele>
        <time>2014-06-06T13:59:43Z</time>
      </trkpt>
      <trkpt lat="41.48361" lon="9.25176">
        <ele>159.72</ele>
        <time>2014-06-06T13:59:44Z</time>
      </trkpt>
      <trkpt lat="41.48363" lon="9.25181">
        <ele>159.24</ele>
        <time>2014-06-06T13:59:45Z</time>
      </trkpt>
      <trkpt lat="41.4837" lon="9.25202">
        <ele>156.83</ele>
        <time>2014-06-06T13:59:49Z</time>
      </trkpt>
      <trkpt lat="41.48371" lon="9.25209">
        <ele>156.83</ele>
        <time>2014-06-06T13:59:50Z</time>
      </trkpt>
    </trkseg>
  </trk>
  <rte>
    <name><![CDATA[412o2]]></name>
      <rtept lat="43.29703" lon="3.51239">
        <ele>9.8</ele>
        <name><![CDATA[Début]]></name>
      </rtept>
      <rtept lat="45.53327" lon="4.63035">
        <ele>227</ele>
        <name><![CDATA[Fin]]></name>
      </rtept>
    </rte>
  <rte>
    <name><![CDATA[Enregistremen: 20 Avr. 2014 11:54]]></name>
      <rtept lat="43.29703" lon="3.51239">
        <ele>9.8</ele>
        <name><![CDATA[Début]]></name>
      </rtept>
      <rtept lat="43.29697" lon="3.51234">
        <ele>10</ele>
        <name><![CDATA[Fin]]></name>
      </rtept>
    </rte>
  <rte>
    <name><![CDATA[Enregistremen: 25 Avr. 2014 18:53]]></name>
      <rtept lat="43.29985" lon="3.47166">
        <ele>11.5</ele>
        <name><![CDATA[Début]]></name>
      </rtept>
      <rtept lat="43.29703" lon="3.51217">
        <ele>10.3</ele>
        <name><![CDATA[Fin]]></name>
      </rtept>
    </rte>
  <rte>
    <name><![CDATA[Enregistremen: 26 Avr. 2014 09:29]]></name>
      <rtept lat="43.29708" lon="3.51221">
        <ele>10.1</ele>
        <name><![CDATA[Début]]></name>
      </rtept>
      <rtept lat="44.8036" lon="3.42125">
        <ele>1116.3</ele>
        <name><![CDATA[Fin]]></name>
      </rtept>
    </rte>
  <rte>
    <name><![CDATA[Enregistremen: 26 Avr. 2014 13:36]]></name>
      <rtept lat="44.80459" lon="3.42344">
        <ele>1127.9</ele>
        <name><![CDATA[Début]]></name>
      </rtept>
      <rtept lat="45.5332" lon="4.63052">
        <ele>227</ele>
        <name><![CDATA[Fin]]></name>
      </rtept>
    </rte>
  <rte>
    <name><![CDATA[Enregistremen: 27 Avr. 2014 17:19]]></name>
      <rtept lat="45.53325" lon="4.63029">
        <ele>227</ele>
        <name><![CDATA[Début]]></name>
      </rtept>
      <rtept lat="45.53314" lon="4.6305">
        <ele>227</ele>
        <name><![CDATA[Fin]]></name>
      </rtept>
    </rte>
  <rte>
    <name><![CDATA[Enregistremen: 29 Avr. 2014 16:08]]></name>
      <rtept lat="45.70924" lon="4.98048">
        <ele>212</ele>
        <name><![CDATA[Début]]></name>
      </rtept>
      <rtept lat="45.87983" lon="4.59593">
        <ele>320.7</ele>
        <name><![CDATA[Fin]]></name>
      </rtept>
    </rte>
  <rte>
    <name><![CDATA[Enregistremen: 30 Avr. 2014 13:54]]></name>
      <rtept lat="45.87974" lon="4.59628">
        <ele>312.7</ele>
        <name><![CDATA[Début]]></name>
      </rtept>
      <rtept lat="45.70896" lon="4.98136">
        <ele>212</ele>
        <name><![CDATA[Fin]]></name>
      </rtept>
    </rte>
  <rte>
    <name><![CDATA[Enregistremen: 30 Avr. 2014 14:59]]></name>
      <rtept lat="45.70843" lon="4.98123">
        <ele>212</ele>
        <name><![CDATA[Début]]></name>
      </rtept>
      <rtept lat="45.53091" lon="4.62177">
        <ele>232.5</ele>
        <name><![CDATA[Fin]]></name>
      </rtept>
    </rte>
  <rte>
    <name><![CDATA[Lesfauxrdg]]></name>
      <rtept lat="44.80459" lon="3.42344">
        <ele>1127.9</ele>
        <name><![CDATA[Début]]></name>
      </rtept>
      <rtept lat="45.5332" lon="4.63052">
        <ele>227</ele>
        <name><![CDATA[Fin]]></name>
      </rtept>
    </rte>
</gpx>